<?xml version='1.0' encoding='UTF-8'?>
<gpx version="1.1" creator="https://www.komoot.de" xmlns="http://www.topografix.com/GPX/1/1" xmlns:xsi="http://www.w3.org/2001/XMLSchema-instance" xsi:schemaLocation="http://www.topografix.com/GPX/1/1 http://www.topografix.com/GPX/1/1/gpx.xsd">
  <metadata>
    <name>69_980OedenholzBinzgen</name>
    <author>
      <link href="https://www.komoot.de">
        <text>komoot</text>
        <type>text/html</type>
      </link>
    </author>
  </metadata>
  <trk>
    <name>69_980OedenholzBinzgen</name>
    <trkseg>
      <trkpt lat="47.541195" lon="7.870969">
        <ele>340.612687</ele>
        <time>2021-11-20T06:52:19.807Z</time>
      </trkpt>
      <trkpt lat="47.541410" lon="7.870791">
        <ele>340.612687</ele>
        <time>2021-11-20T06:52:23.749Z</time>
      </trkpt>
      <trkpt lat="47.541576" lon="7.870664">
        <ele>340.612687</ele>
        <time>2021-11-20T06:52:27.877Z</time>
      </trkpt>
      <trkpt lat="47.541796" lon="7.871042">
        <ele>340.612687</ele>
        <time>2021-11-20T06:52:34.984Z</time>
      </trkpt>
      <trkpt lat="47.541953" lon="7.871286">
        <ele>340.951708</ele>
        <time>2021-11-20T06:52:39.817Z</time>
      </trkpt>
      <trkpt lat="47.542039" lon="7.871556">
        <ele>341.646940</ele>
        <time>2021-11-20T06:52:44.176Z</time>
      </trkpt>
      <trkpt lat="47.542067" lon="7.871664">
        <ele>341.916353</ele>
        <time>2021-11-20T06:52:45.850Z</time>
      </trkpt>
      <trkpt lat="47.542091" lon="7.871721">
        <ele>342.072793</ele>
        <time>2021-11-20T06:52:46.461Z</time>
      </trkpt>
      <trkpt lat="47.542218" lon="7.871866">
        <ele>342.625929</ele>
        <time>2021-11-20T06:52:51.561Z</time>
      </trkpt>
      <trkpt lat="47.542394" lon="7.872341">
        <ele>343.887740</ele>
        <time>2021-11-20T06:53:01.622Z</time>
      </trkpt>
      <trkpt lat="47.542436" lon="7.872494">
        <ele>344.272364</ele>
        <time>2021-11-20T06:53:05.013Z</time>
      </trkpt>
      <trkpt lat="47.542537" lon="7.872430">
        <ele>344.651321</ele>
        <time>2021-11-20T06:53:07.126Z</time>
      </trkpt>
      <trkpt lat="47.542714" lon="7.872334">
        <ele>345.301557</ele>
        <time>2021-11-20T06:53:14.082Z</time>
      </trkpt>
      <trkpt lat="47.542814" lon="7.872280">
        <ele>345.668732</ele>
        <time>2021-11-20T06:53:17.096Z</time>
      </trkpt>
      <trkpt lat="47.542919" lon="7.872226">
        <ele>346.052157</ele>
        <time>2021-11-20T06:53:20.934Z</time>
      </trkpt>
      <trkpt lat="47.543013" lon="7.872182">
        <ele>346.392232</ele>
        <time>2021-11-20T06:53:24.441Z</time>
      </trkpt>
      <trkpt lat="47.543233" lon="7.872082">
        <ele>347.480712</ele>
        <time>2021-11-20T06:53:31.680Z</time>
      </trkpt>
      <trkpt lat="47.543251" lon="7.872152">
        <ele>347.794564</ele>
        <time>2021-11-20T06:53:35.053Z</time>
      </trkpt>
      <trkpt lat="47.543332" lon="7.872237">
        <ele>348.410686</ele>
        <time>2021-11-20T06:53:38.358Z</time>
      </trkpt>
      <trkpt lat="47.544390" lon="7.872423">
        <ele>355.023713</ele>
        <time>2021-11-20T06:54:20.078Z</time>
      </trkpt>
      <trkpt lat="47.544883" lon="7.872555">
        <ele>358.145802</ele>
        <time>2021-11-20T06:54:42.487Z</time>
      </trkpt>
      <trkpt lat="47.545131" lon="7.872664">
        <ele>359.883571</ele>
        <time>2021-11-20T06:54:53.491Z</time>
      </trkpt>
      <trkpt lat="47.545375" lon="7.872836">
        <ele>361.698794</ele>
        <time>2021-11-20T06:55:04.432Z</time>
      </trkpt>
      <trkpt lat="47.545478" lon="7.872968">
        <ele>362.613687</ele>
        <time>2021-11-20T06:55:11.239Z</time>
      </trkpt>
      <trkpt lat="47.545515" lon="7.873015">
        <ele>362.941102</ele>
        <time>2021-11-20T06:55:13.196Z</time>
      </trkpt>
      <trkpt lat="47.545746" lon="7.873302">
        <ele>364.966369</ele>
        <time>2021-11-20T06:55:26.395Z</time>
      </trkpt>
      <trkpt lat="47.545934" lon="7.873549">
        <ele>366.654394</ele>
        <time>2021-11-20T06:55:36.496Z</time>
      </trkpt>
      <trkpt lat="47.546077" lon="7.873763">
        <ele>368.019840</ele>
        <time>2021-11-20T06:55:45.692Z</time>
      </trkpt>
      <trkpt lat="47.546135" lon="7.873859">
        <ele>368.604051</ele>
        <time>2021-11-20T06:55:48.931Z</time>
      </trkpt>
      <trkpt lat="47.546309" lon="7.874154">
        <ele>370.262894</ele>
        <time>2021-11-20T06:56:00.045Z</time>
      </trkpt>
      <trkpt lat="47.547126" lon="7.875801">
        <ele>376.084035</ele>
        <time>2021-11-20T06:56:45.807Z</time>
      </trkpt>
      <trkpt lat="47.547574" lon="7.876801">
        <ele>377.541095</ele>
        <time>2021-11-20T06:57:04.802Z</time>
      </trkpt>
      <trkpt lat="47.547992" lon="7.877974">
        <ele>377.311519</ele>
        <time>2021-11-20T06:57:17.603Z</time>
      </trkpt>
      <trkpt lat="47.548234" lon="7.878638">
        <ele>377.016405</ele>
        <time>2021-11-20T06:57:22.915Z</time>
      </trkpt>
      <trkpt lat="47.548422" lon="7.878959">
        <ele>375.874727</ele>
        <time>2021-11-20T06:57:25.758Z</time>
      </trkpt>
      <trkpt lat="47.548718" lon="7.879258">
        <ele>374.448903</ele>
        <time>2021-11-20T06:57:29.296Z</time>
      </trkpt>
      <trkpt lat="47.549140" lon="7.879391">
        <ele>372.731788</ele>
        <time>2021-11-20T06:57:33.483Z</time>
      </trkpt>
      <trkpt lat="47.549318" lon="7.879398">
        <ele>372.023109</ele>
        <time>2021-11-20T06:57:35.110Z</time>
      </trkpt>
      <trkpt lat="47.549327" lon="7.879547">
        <ele>371.621254</ele>
        <time>2021-11-20T06:57:36.096Z</time>
      </trkpt>
      <trkpt lat="47.549726" lon="7.880786">
        <ele>368.068606</ele>
        <time>2021-11-20T06:57:45.031Z</time>
      </trkpt>
      <trkpt lat="47.549927" lon="7.881490">
        <ele>366.147298</ele>
        <time>2021-11-20T06:57:50.063Z</time>
      </trkpt>
      <trkpt lat="47.550234" lon="7.883221">
        <ele>361.475973</ele>
        <time>2021-11-20T06:58:02.464Z</time>
      </trkpt>
      <trkpt lat="47.550332" lon="7.884727">
        <ele>357.283618</ele>
        <time>2021-11-20T06:58:12.308Z</time>
      </trkpt>
      <trkpt lat="47.550391" lon="7.885109">
        <ele>356.197767</ele>
        <time>2021-11-20T06:58:14.840Z</time>
      </trkpt>
      <trkpt lat="47.550548" lon="7.885799">
        <ele>353.562998</ele>
        <time>2021-11-20T06:58:19.445Z</time>
      </trkpt>
      <trkpt lat="47.550677" lon="7.886476">
        <ele>350.934680</ele>
        <time>2021-11-20T06:58:23.875Z</time>
      </trkpt>
      <trkpt lat="47.550758" lon="7.887295">
        <ele>347.842012</ele>
        <time>2021-11-20T06:58:29.017Z</time>
      </trkpt>
      <trkpt lat="47.550789" lon="7.887816">
        <ele>345.873749</ele>
        <time>2021-11-20T06:58:32.249Z</time>
      </trkpt>
      <trkpt lat="47.550831" lon="7.888611">
        <ele>342.500309</ele>
        <time>2021-11-20T06:58:37.205Z</time>
      </trkpt>
      <trkpt lat="47.550833" lon="7.889069">
        <ele>340.562756</ele>
        <time>2021-11-20T06:58:40.015Z</time>
      </trkpt>
      <trkpt lat="47.550915" lon="7.890600">
        <ele>334.240196</ele>
        <time>2021-11-20T06:58:49.408Z</time>
      </trkpt>
      <trkpt lat="47.550904" lon="7.891725">
        <ele>330.747760</ele>
        <time>2021-11-20T06:58:56.412Z</time>
      </trkpt>
      <trkpt lat="47.550892" lon="7.893176">
        <ele>326.386905</ele>
        <time>2021-11-20T06:59:06.024Z</time>
      </trkpt>
      <trkpt lat="47.550908" lon="7.894308">
        <ele>325.324504</ele>
        <time>2021-11-20T06:59:15.229Z</time>
      </trkpt>
      <trkpt lat="47.550878" lon="7.895158">
        <ele>324.525849</ele>
        <time>2021-11-20T06:59:22.414Z</time>
      </trkpt>
      <trkpt lat="47.550838" lon="7.895509">
        <ele>324.191840</ele>
        <time>2021-11-20T06:59:25.578Z</time>
      </trkpt>
      <trkpt lat="47.550660" lon="7.896255">
        <ele>323.091826</ele>
        <time>2021-11-20T06:59:32.066Z</time>
      </trkpt>
      <trkpt lat="47.550639" lon="7.896345">
        <ele>322.938463</ele>
        <time>2021-11-20T06:59:33.254Z</time>
      </trkpt>
      <trkpt lat="47.550648" lon="7.896481">
        <ele>322.718383</ele>
        <time>2021-11-20T06:59:34.209Z</time>
      </trkpt>
      <trkpt lat="47.550819" lon="7.898109">
        <ele>320.064922</ele>
        <time>2021-11-20T06:59:45.957Z</time>
      </trkpt>
      <trkpt lat="47.550801" lon="7.900244">
        <ele>314.289915</ele>
        <time>2021-11-20T06:59:59.794Z</time>
      </trkpt>
      <trkpt lat="47.550769" lon="7.901362">
        <ele>311.218470</ele>
        <time>2021-11-20T07:00:07.066Z</time>
      </trkpt>
      <trkpt lat="47.550757" lon="7.901591">
        <ele>310.645505</ele>
        <time>2021-11-20T07:00:09.202Z</time>
      </trkpt>
      <trkpt lat="47.550688" lon="7.902451">
        <ele>308.485112</ele>
        <time>2021-11-20T07:00:17.636Z</time>
      </trkpt>
      <trkpt lat="47.550498" lon="7.903445">
        <ele>305.908031</ele>
        <time>2021-11-20T07:00:27.886Z</time>
      </trkpt>
      <trkpt lat="47.550302" lon="7.904164">
        <ele>303.942523</ele>
        <time>2021-11-20T07:00:35.146Z</time>
      </trkpt>
      <trkpt lat="47.550025" lon="7.904774">
        <ele>302.068665</ele>
        <time>2021-11-20T07:00:42.071Z</time>
      </trkpt>
      <trkpt lat="47.549868" lon="7.905010">
        <ele>301.224093</ele>
        <time>2021-11-20T07:00:45.203Z</time>
      </trkpt>
      <trkpt lat="47.549867" lon="7.905155">
        <ele>300.854504</ele>
        <time>2021-11-20T07:00:46.599Z</time>
      </trkpt>
      <trkpt lat="47.550067" lon="7.905245">
        <ele>300.065191</ele>
        <time>2021-11-20T07:00:49.525Z</time>
      </trkpt>
      <trkpt lat="47.550283" lon="7.905413">
        <ele>299.143966</ele>
        <time>2021-11-20T07:00:52.974Z</time>
      </trkpt>
      <trkpt lat="47.550497" lon="7.905558">
        <ele>298.375597</ele>
        <time>2021-11-20T07:00:56.332Z</time>
      </trkpt>
      <trkpt lat="47.549539" lon="7.908625">
        <ele>293.212187</ele>
        <time>2021-11-20T07:01:20.781Z</time>
      </trkpt>
      <trkpt lat="47.549520" lon="7.908678">
        <ele>293.150909</ele>
        <time>2021-11-20T07:01:21.279Z</time>
      </trkpt>
      <trkpt lat="47.549326" lon="7.909321">
        <ele>292.431736</ele>
        <time>2021-11-20T07:01:27.010Z</time>
      </trkpt>
      <trkpt lat="47.549269" lon="7.909511">
        <ele>292.219427</ele>
        <time>2021-11-20T07:01:28.731Z</time>
      </trkpt>
      <trkpt lat="47.549195" lon="7.909756">
        <ele>291.945353</ele>
        <time>2021-11-20T07:01:30.913Z</time>
      </trkpt>
      <trkpt lat="47.549102" lon="7.910058">
        <ele>291.606402</ele>
        <time>2021-11-20T07:01:33.624Z</time>
      </trkpt>
      <trkpt lat="47.549012" lon="7.910340">
        <ele>291.307812</ele>
        <time>2021-11-20T07:01:36.131Z</time>
      </trkpt>
      <trkpt lat="47.548412" lon="7.912168">
        <ele>289.765293</ele>
        <time>2021-11-20T07:01:52.460Z</time>
      </trkpt>
      <trkpt lat="47.548027" lon="7.913334">
        <ele>289.114330</ele>
        <time>2021-11-20T07:02:03.221Z</time>
      </trkpt>
      <trkpt lat="47.547994" lon="7.913433">
        <ele>289.080258</ele>
        <time>2021-11-20T07:02:04.141Z</time>
      </trkpt>
      <trkpt lat="47.547423" lon="7.915080">
        <ele>288.530645</ele>
        <time>2021-11-20T07:02:21.618Z</time>
      </trkpt>
      <trkpt lat="47.547113" lon="7.915971">
        <ele>288.778280</ele>
        <time>2021-11-20T07:02:32.065Z</time>
      </trkpt>
      <trkpt lat="47.547091" lon="7.916039">
        <ele>288.796909</ele>
        <time>2021-11-20T07:02:33.089Z</time>
      </trkpt>
      <trkpt lat="47.547032" lon="7.916218">
        <ele>288.846121</ele>
        <time>2021-11-20T07:02:35.292Z</time>
      </trkpt>
      <trkpt lat="47.546821" lon="7.916867">
        <ele>289.024081</ele>
        <time>2021-11-20T07:02:43.401Z</time>
      </trkpt>
      <trkpt lat="47.546262" lon="7.919081">
        <ele>289.672492</ele>
        <time>2021-11-20T07:03:10.913Z</time>
      </trkpt>
      <trkpt lat="47.546128" lon="7.919617">
        <ele>289.834922</ele>
        <time>2021-11-20T07:03:16.381Z</time>
      </trkpt>
      <trkpt lat="47.545973" lon="7.920313">
        <ele>290.193968</ele>
        <time>2021-11-20T07:03:24.844Z</time>
      </trkpt>
      <trkpt lat="47.545913" lon="7.920765">
        <ele>290.509891</ele>
        <time>2021-11-20T07:03:29.018Z</time>
      </trkpt>
      <trkpt lat="47.545881" lon="7.921096">
        <ele>290.739211</ele>
        <time>2021-11-20T07:03:33.034Z</time>
      </trkpt>
      <trkpt lat="47.545810" lon="7.921755">
        <ele>291.196881</ele>
        <time>2021-11-20T07:03:41.943Z</time>
      </trkpt>
      <trkpt lat="47.545778" lon="7.921947">
        <ele>291.332511</ele>
        <time>2021-11-20T07:03:45.552Z</time>
      </trkpt>
      <trkpt lat="47.545714" lon="7.922249">
        <ele>291.549594</ele>
        <time>2021-11-20T07:03:48.750Z</time>
      </trkpt>
      <trkpt lat="47.545699" lon="7.922325">
        <ele>291.603898</ele>
        <time>2021-11-20T07:03:49.948Z</time>
      </trkpt>
      <trkpt lat="47.545690" lon="7.922369">
        <ele>291.635429</ele>
        <time>2021-11-20T07:03:52.046Z</time>
      </trkpt>
      <trkpt lat="47.545641" lon="7.922610">
        <ele>291.906810</ele>
        <time>2021-11-20T07:03:54.400Z</time>
      </trkpt>
      <trkpt lat="47.545587" lon="7.922895">
        <ele>292.564697</ele>
        <time>2021-11-20T07:04:00.196Z</time>
      </trkpt>
      <trkpt lat="47.545553" lon="7.923142">
        <ele>293.124948</ele>
        <time>2021-11-20T07:04:02.843Z</time>
      </trkpt>
      <trkpt lat="47.545536" lon="7.923407">
        <ele>293.716559</ele>
        <time>2021-11-20T07:04:08.733Z</time>
      </trkpt>
      <trkpt lat="47.545521" lon="7.923709">
        <ele>294.389563</ele>
        <time>2021-11-20T07:04:12.886Z</time>
      </trkpt>
      <trkpt lat="47.545481" lon="7.924396">
        <ele>295.922077</ele>
        <time>2021-11-20T07:04:27.489Z</time>
      </trkpt>
      <trkpt lat="47.545466" lon="7.924880">
        <ele>296.998892</ele>
        <time>2021-11-20T07:04:38.796Z</time>
      </trkpt>
      <trkpt lat="47.545446" lon="7.925350">
        <ele>297.989629</ele>
        <time>2021-11-20T07:04:49.171Z</time>
      </trkpt>
      <trkpt lat="47.545417" lon="7.925848">
        <ele>298.927761</ele>
        <time>2021-11-20T07:04:59.650Z</time>
      </trkpt>
      <trkpt lat="47.545409" lon="7.926773">
        <ele>300.663971</ele>
        <time>2021-11-20T07:05:16.851Z</time>
      </trkpt>
      <trkpt lat="47.545407" lon="7.927001">
        <ele>301.091924</ele>
        <time>2021-11-20T07:05:20.660Z</time>
      </trkpt>
      <trkpt lat="47.545406" lon="7.927306">
        <ele>301.664364</ele>
        <time>2021-11-20T07:05:25.264Z</time>
      </trkpt>
      <trkpt lat="47.545421" lon="7.927686">
        <ele>302.378778</ele>
        <time>2021-11-20T07:05:30.800Z</time>
      </trkpt>
      <trkpt lat="47.545475" lon="7.928419">
        <ele>302.303830</ele>
        <time>2021-11-20T07:05:40.117Z</time>
      </trkpt>
      <trkpt lat="47.545563" lon="7.929641">
        <ele>301.481798</ele>
        <time>2021-11-20T07:05:49.997Z</time>
      </trkpt>
      <trkpt lat="47.545661" lon="7.930955">
        <ele>300.430757</ele>
        <time>2021-11-20T07:05:59.393Z</time>
      </trkpt>
      <trkpt lat="47.545696" lon="7.931497">
        <ele>299.868890</ele>
        <time>2021-11-20T07:06:03.361Z</time>
      </trkpt>
      <trkpt lat="47.545721" lon="7.931992">
        <ele>299.356651</ele>
        <time>2021-11-20T07:06:07.154Z</time>
      </trkpt>
      <trkpt lat="47.545724" lon="7.932758">
        <ele>298.566171</ele>
        <time>2021-11-20T07:06:13.363Z</time>
      </trkpt>
      <trkpt lat="47.545702" lon="7.933290">
        <ele>298.216635</ele>
        <time>2021-11-20T07:06:18.006Z</time>
      </trkpt>
      <trkpt lat="47.545674" lon="7.933625">
        <ele>298.371230</ele>
        <time>2021-11-20T07:06:21.207Z</time>
      </trkpt>
      <trkpt lat="47.545457" lon="7.935110">
        <ele>299.067083</ele>
        <time>2021-11-20T07:06:39.342Z</time>
      </trkpt>
      <trkpt lat="47.545074" lon="7.936484">
        <ele>300.309998</ele>
        <time>2021-11-20T07:07:00.869Z</time>
      </trkpt>
      <trkpt lat="47.544903" lon="7.936917">
        <ele>300.886417</ele>
        <time>2021-11-20T07:07:08.185Z</time>
      </trkpt>
      <trkpt lat="47.544705" lon="7.937395">
        <ele>301.530819</ele>
        <time>2021-11-20T07:07:16.369Z</time>
      </trkpt>
      <trkpt lat="47.544472" lon="7.937932">
        <ele>302.264324</ele>
        <time>2021-11-20T07:07:25.777Z</time>
      </trkpt>
      <trkpt lat="47.543826" lon="7.939433">
        <ele>304.359347</ele>
        <time>2021-11-20T07:07:52.658Z</time>
      </trkpt>
      <trkpt lat="47.543435" lon="7.940670">
        <ele>305.760112</ele>
        <time>2021-11-20T07:08:12.619Z</time>
      </trkpt>
      <trkpt lat="47.543161" lon="7.942213">
        <ele>306.628817</ele>
        <time>2021-11-20T07:08:33.468Z</time>
      </trkpt>
      <trkpt lat="47.543007" lon="7.943867">
        <ele>306.297395</ele>
        <time>2021-11-20T07:08:49.012Z</time>
      </trkpt>
      <trkpt lat="47.542913" lon="7.945267">
        <ele>305.190344</ele>
        <time>2021-11-20T07:08:59.919Z</time>
      </trkpt>
      <trkpt lat="47.542872" lon="7.945781">
        <ele>304.713819</ele>
        <time>2021-11-20T07:09:03.735Z</time>
      </trkpt>
      <trkpt lat="47.542875" lon="7.946089">
        <ele>304.360174</ele>
        <time>2021-11-20T07:09:05.969Z</time>
      </trkpt>
      <trkpt lat="47.542902" lon="7.946514">
        <ele>303.870084</ele>
        <time>2021-11-20T07:09:09.063Z</time>
      </trkpt>
      <trkpt lat="47.542943" lon="7.946806">
        <ele>303.527670</ele>
        <time>2021-11-20T07:09:11.274Z</time>
      </trkpt>
      <trkpt lat="47.542974" lon="7.946965">
        <ele>303.337664</ele>
        <time>2021-11-20T07:09:12.582Z</time>
      </trkpt>
      <trkpt lat="47.542979" lon="7.946989">
        <ele>303.308828</ele>
        <time>2021-11-20T07:09:12.739Z</time>
      </trkpt>
      <trkpt lat="47.542989" lon="7.947104">
        <ele>303.175708</ele>
        <time>2021-11-20T07:09:13.610Z</time>
      </trkpt>
      <trkpt lat="47.542984" lon="7.947304">
        <ele>302.945936</ele>
        <time>2021-11-20T07:09:15.185Z</time>
      </trkpt>
      <trkpt lat="47.542979" lon="7.947370">
        <ele>302.869687</ele>
        <time>2021-11-20T07:09:15.686Z</time>
      </trkpt>
      <trkpt lat="47.542935" lon="7.947564">
        <ele>302.634725</ele>
        <time>2021-11-20T07:09:17.253Z</time>
      </trkpt>
      <trkpt lat="47.542892" lon="7.947789">
        <ele>302.366254</ele>
        <time>2021-11-20T07:09:19.171Z</time>
      </trkpt>
      <trkpt lat="47.542875" lon="7.948001">
        <ele>302.121150</ele>
        <time>2021-11-20T07:09:20.987Z</time>
      </trkpt>
      <trkpt lat="47.542838" lon="7.948225">
        <ele>301.868225</ele>
        <time>2021-11-20T07:09:22.772Z</time>
      </trkpt>
      <trkpt lat="47.542826" lon="7.948298">
        <ele>301.837117</ele>
        <time>2021-11-20T07:09:23.393Z</time>
      </trkpt>
      <trkpt lat="47.542719" lon="7.949175">
        <ele>301.468128</ele>
        <time>2021-11-20T07:09:30.617Z</time>
      </trkpt>
      <trkpt lat="47.542609" lon="7.949914">
        <ele>301.154807</ele>
        <time>2021-11-20T07:09:37.392Z</time>
      </trkpt>
      <trkpt lat="47.542560" lon="7.950202">
        <ele>301.031837</ele>
        <time>2021-11-20T07:09:40.261Z</time>
      </trkpt>
      <trkpt lat="47.542554" lon="7.950231">
        <ele>301.019278</ele>
        <time>2021-11-20T07:09:40.536Z</time>
      </trkpt>
      <trkpt lat="47.542546" lon="7.950274">
        <ele>301.000811</ele>
        <time>2021-11-20T07:09:40.941Z</time>
      </trkpt>
      <trkpt lat="47.542444" lon="7.950687">
        <ele>300.818730</ele>
        <time>2021-11-20T07:09:45.404Z</time>
      </trkpt>
      <trkpt lat="47.542357" lon="7.951037">
        <ele>300.726052</ele>
        <time>2021-11-20T07:09:49.048Z</time>
      </trkpt>
      <trkpt lat="47.542192" lon="7.951713">
        <ele>300.599531</ele>
        <time>2021-11-20T07:09:55.995Z</time>
      </trkpt>
      <trkpt lat="47.542169" lon="7.951815">
        <ele>300.580603</ele>
        <time>2021-11-20T07:09:56.923Z</time>
      </trkpt>
      <trkpt lat="47.541991" lon="7.952667">
        <ele>300.423625</ele>
        <time>2021-11-20T07:10:05.204Z</time>
      </trkpt>
      <trkpt lat="47.541791" lon="7.953601">
        <ele>300.393422</ele>
        <time>2021-11-20T07:10:14.255Z</time>
      </trkpt>
      <trkpt lat="47.541773" lon="7.953695">
        <ele>300.423657</ele>
        <time>2021-11-20T07:10:15.192Z</time>
      </trkpt>
      <trkpt lat="47.541735" lon="7.953892">
        <ele>300.487058</ele>
        <time>2021-11-20T07:10:17.074Z</time>
      </trkpt>
      <trkpt lat="47.541660" lon="7.954250">
        <ele>300.603052</ele>
        <time>2021-11-20T07:10:20.833Z</time>
      </trkpt>
      <trkpt lat="47.541530" lon="7.954936">
        <ele>300.823538</ele>
        <time>2021-11-20T07:10:28.054Z</time>
      </trkpt>
      <trkpt lat="47.541482" lon="7.955294">
        <ele>300.936484</ele>
        <time>2021-11-20T07:10:32.102Z</time>
      </trkpt>
      <trkpt lat="47.541465" lon="7.955512">
        <ele>301.004392</ele>
        <time>2021-11-20T07:10:34.438Z</time>
      </trkpt>
      <trkpt lat="47.541442" lon="7.955866">
        <ele>301.114443</ele>
        <time>2021-11-20T07:10:39.730Z</time>
      </trkpt>
      <trkpt lat="47.541410" lon="7.956569">
        <ele>302.401799</ele>
        <time>2021-11-20T07:10:51.031Z</time>
      </trkpt>
      <trkpt lat="47.541404" lon="7.956677">
        <ele>302.610046</ele>
        <time>2021-11-20T07:10:53.136Z</time>
      </trkpt>
      <trkpt lat="47.541280" lon="7.957569">
        <ele>304.360190</ele>
        <time>2021-11-20T07:11:08.784Z</time>
      </trkpt>
      <trkpt lat="47.541237" lon="7.957756">
        <ele>304.739828</ele>
        <time>2021-11-20T07:11:13.132Z</time>
      </trkpt>
      <trkpt lat="47.541141" lon="7.958127">
        <ele>305.503372</ele>
        <time>2021-11-20T07:11:20.683Z</time>
      </trkpt>
      <trkpt lat="47.540957" lon="7.959132">
        <ele>307.705328</ele>
        <time>2021-11-20T07:11:42.126Z</time>
      </trkpt>
      <trkpt lat="47.540954" lon="7.959705">
        <ele>308.982470</ele>
        <time>2021-11-20T07:11:53.553Z</time>
      </trkpt>
      <trkpt lat="47.540979" lon="7.959950">
        <ele>309.534730</ele>
        <time>2021-11-20T07:11:59.003Z</time>
      </trkpt>
      <trkpt lat="47.541002" lon="7.960092">
        <ele>309.860202</ele>
        <time>2021-11-20T07:12:01.596Z</time>
      </trkpt>
      <trkpt lat="47.541060" lon="7.960321">
        <ele>310.405338</ele>
        <time>2021-11-20T07:12:06.319Z</time>
      </trkpt>
      <trkpt lat="47.541153" lon="7.960814">
        <ele>311.546230</ele>
        <time>2021-11-20T07:12:14.888Z</time>
      </trkpt>
      <trkpt lat="47.541242" lon="7.961294">
        <ele>312.456958</ele>
        <time>2021-11-20T07:12:22.846Z</time>
      </trkpt>
      <trkpt lat="47.541316" lon="7.962197">
        <ele>313.626630</ele>
        <time>2021-11-20T07:12:37.473Z</time>
      </trkpt>
      <trkpt lat="47.541314" lon="7.962377">
        <ele>313.858120</ele>
        <time>2021-11-20T07:12:40.302Z</time>
      </trkpt>
      <trkpt lat="47.541308" lon="7.962513">
        <ele>314.033372</ele>
        <time>2021-11-20T07:12:42.164Z</time>
      </trkpt>
      <trkpt lat="47.541293" lon="7.962730">
        <ele>314.313867</ele>
        <time>2021-11-20T07:12:45.027Z</time>
      </trkpt>
      <trkpt lat="47.541258" lon="7.962975">
        <ele>314.635884</ele>
        <time>2021-11-20T07:12:48.928Z</time>
      </trkpt>
      <trkpt lat="47.541217" lon="7.963187">
        <ele>314.919457</ele>
        <time>2021-11-20T07:12:51.717Z</time>
      </trkpt>
      <trkpt lat="47.541123" lon="7.963520">
        <ele>315.383584</ele>
        <time>2021-11-20T07:12:56.952Z</time>
      </trkpt>
      <trkpt lat="47.541019" lon="7.963815">
        <ele>315.767111</ele>
        <time>2021-11-20T07:13:01.587Z</time>
      </trkpt>
      <trkpt lat="47.540959" lon="7.963916">
        <ele>315.901579</ele>
        <time>2021-11-20T07:13:03.875Z</time>
      </trkpt>
      <trkpt lat="47.540467" lon="7.964759">
        <ele>317.015371</ele>
        <time>2021-11-20T07:13:19.600Z</time>
      </trkpt>
      <trkpt lat="47.540257" lon="7.965417">
        <ele>317.742825</ele>
        <time>2021-11-20T07:13:29.536Z</time>
      </trkpt>
      <trkpt lat="47.540200" lon="7.965632">
        <ele>317.973693</ele>
        <time>2021-11-20T07:13:32.989Z</time>
      </trkpt>
      <trkpt lat="47.540100" lon="7.966046">
        <ele>318.431633</ele>
        <time>2021-11-20T07:13:38.878Z</time>
      </trkpt>
      <trkpt lat="47.539909" lon="7.966784">
        <ele>319.327232</ele>
        <time>2021-11-20T07:13:49.574Z</time>
      </trkpt>
      <trkpt lat="47.539680" lon="7.967625">
        <ele>320.354799</ele>
        <time>2021-11-20T07:14:02.996Z</time>
      </trkpt>
      <trkpt lat="47.539403" lon="7.968640">
        <ele>321.706056</ele>
        <time>2021-11-20T07:14:19.458Z</time>
      </trkpt>
      <trkpt lat="47.539248" lon="7.969246">
        <ele>322.710251</ele>
        <time>2021-11-20T07:14:29.749Z</time>
      </trkpt>
      <trkpt lat="47.539144" lon="7.969781">
        <ele>323.572971</ele>
        <time>2021-11-20T07:14:38.862Z</time>
      </trkpt>
      <trkpt lat="47.539052" lon="7.970439">
        <ele>324.614247</ele>
        <time>2021-11-20T07:14:50.178Z</time>
      </trkpt>
      <trkpt lat="47.538935" lon="7.971210">
        <ele>325.829357</ele>
        <time>2021-11-20T07:15:03.470Z</time>
      </trkpt>
      <trkpt lat="47.538858" lon="7.971696">
        <ele>326.585363</ele>
        <time>2021-11-20T07:15:11.512Z</time>
      </trkpt>
      <trkpt lat="47.538687" lon="7.972850">
        <ele>328.374610</ele>
        <time>2021-11-20T07:15:30.276Z</time>
      </trkpt>
      <trkpt lat="47.538490" lon="7.973699">
        <ele>329.758892</ele>
        <time>2021-11-20T07:15:44.497Z</time>
      </trkpt>
      <trkpt lat="47.538402" lon="7.973943">
        <ele>330.215267</ele>
        <time>2021-11-20T07:15:48.996Z</time>
      </trkpt>
      <trkpt lat="47.538106" lon="7.974772">
        <ele>331.762400</ele>
        <time>2021-11-20T07:16:04.045Z</time>
      </trkpt>
      <trkpt lat="47.537896" lon="7.975317">
        <ele>332.797653</ele>
        <time>2021-11-20T07:16:14.322Z</time>
      </trkpt>
      <trkpt lat="47.536866" lon="7.977996">
        <ele>338.263863</ele>
        <time>2021-11-20T07:17:09.126Z</time>
      </trkpt>
      <trkpt lat="47.536460" lon="7.979083">
        <ele>339.133740</ele>
        <time>2021-11-20T07:17:28.212Z</time>
      </trkpt>
      <trkpt lat="47.536403" lon="7.979241">
        <ele>339.216356</ele>
        <time>2021-11-20T07:17:30.574Z</time>
      </trkpt>
      <trkpt lat="47.536340" lon="7.979418">
        <ele>339.308633</ele>
        <time>2021-11-20T07:17:33.187Z</time>
      </trkpt>
      <trkpt lat="47.536061" lon="7.980200">
        <ele>339.716532</ele>
        <time>2021-11-20T07:17:41.998Z</time>
      </trkpt>
      <trkpt lat="47.535599" lon="7.981498">
        <ele>338.450822</ele>
        <time>2021-11-20T07:17:53.267Z</time>
      </trkpt>
      <trkpt lat="47.535452" lon="7.981933">
        <ele>337.806860</ele>
        <time>2021-11-20T07:17:56.713Z</time>
      </trkpt>
      <trkpt lat="47.535345" lon="7.982248">
        <ele>337.340056</ele>
        <time>2021-11-20T07:17:59.209Z</time>
      </trkpt>
      <trkpt lat="47.535328" lon="7.982298">
        <ele>337.265946</ele>
        <time>2021-11-20T07:17:59.607Z</time>
      </trkpt>
      <trkpt lat="47.535300" lon="7.982379">
        <ele>337.145480</ele>
        <time>2021-11-20T07:18:00.271Z</time>
      </trkpt>
      <trkpt lat="47.535231" lon="7.982582">
        <ele>336.844611</ele>
        <time>2021-11-20T07:18:01.902Z</time>
      </trkpt>
      <trkpt lat="47.534817" lon="7.983835">
        <ele>335.389352</ele>
        <time>2021-11-20T07:18:12.198Z</time>
      </trkpt>
      <trkpt lat="47.534722" lon="7.984096">
        <ele>335.109253</ele>
        <time>2021-11-20T07:18:14.581Z</time>
      </trkpt>
      <trkpt lat="47.534320" lon="7.984882">
        <ele>334.177767</ele>
        <time>2021-11-20T07:18:23.060Z</time>
      </trkpt>
      <trkpt lat="47.534197" lon="7.985105">
        <ele>333.905748</ele>
        <time>2021-11-20T07:18:25.675Z</time>
      </trkpt>
      <trkpt lat="47.533975" lon="7.985526">
        <ele>333.156621</ele>
        <time>2021-11-20T07:18:30.018Z</time>
      </trkpt>
      <trkpt lat="47.533546" lon="7.986336">
        <ele>331.651994</ele>
        <time>2021-11-20T07:18:37.799Z</time>
      </trkpt>
      <trkpt lat="47.533208" lon="7.986980">
        <ele>330.459823</ele>
        <time>2021-11-20T07:18:43.572Z</time>
      </trkpt>
      <trkpt lat="47.533114" lon="7.987128">
        <ele>330.162846</ele>
        <time>2021-11-20T07:18:44.991Z</time>
      </trkpt>
      <trkpt lat="47.533142" lon="7.987165">
        <ele>330.081617</ele>
        <time>2021-11-20T07:18:45.329Z</time>
      </trkpt>
      <trkpt lat="47.533195" lon="7.987215">
        <ele>329.937767</ele>
        <time>2021-11-20T07:18:46.010Z</time>
      </trkpt>
      <trkpt lat="47.533230" lon="7.987237">
        <ele>329.782486</ele>
        <time>2021-11-20T07:18:46.363Z</time>
      </trkpt>
      <trkpt lat="47.533509" lon="7.987411">
        <ele>328.546140</ele>
        <time>2021-11-20T07:18:49.346Z</time>
      </trkpt>
      <trkpt lat="47.533728" lon="7.987557">
        <ele>327.565305</ele>
        <time>2021-11-20T07:18:51.689Z</time>
      </trkpt>
      <trkpt lat="47.534072" lon="7.987749">
        <ele>326.063948</ele>
        <time>2021-11-20T07:18:55.228Z</time>
      </trkpt>
      <trkpt lat="47.534280" lon="7.987862">
        <ele>325.159123</ele>
        <time>2021-11-20T07:18:57.332Z</time>
      </trkpt>
      <trkpt lat="47.534363" lon="7.987895">
        <ele>324.808146</ele>
        <time>2021-11-20T07:18:58.161Z</time>
      </trkpt>
      <trkpt lat="47.534795" lon="7.988078">
        <ele>322.973092</ele>
        <time>2021-11-20T07:19:02.461Z</time>
      </trkpt>
      <trkpt lat="47.534985" lon="7.988144">
        <ele>322.278725</ele>
        <time>2021-11-20T07:19:04.353Z</time>
      </trkpt>
      <trkpt lat="47.535196" lon="7.988134">
        <ele>321.621160</ele>
        <time>2021-11-20T07:19:06.471Z</time>
      </trkpt>
      <trkpt lat="47.535393" lon="7.988043">
        <ele>320.978391</ele>
        <time>2021-11-20T07:19:08.541Z</time>
      </trkpt>
      <trkpt lat="47.535735" lon="7.987639">
        <ele>319.615823</ele>
        <time>2021-11-20T07:19:12.996Z</time>
      </trkpt>
      <trkpt lat="47.535862" lon="7.987408">
        <ele>318.989355</ele>
        <time>2021-11-20T07:19:15.035Z</time>
      </trkpt>
      <trkpt lat="47.535935" lon="7.987272">
        <ele>318.623984</ele>
        <time>2021-11-20T07:19:16.272Z</time>
      </trkpt>
      <trkpt lat="47.536140" lon="7.986963">
        <ele>317.712957</ele>
        <time>2021-11-20T07:19:19.268Z</time>
      </trkpt>
      <trkpt lat="47.536465" lon="7.986660">
        <ele>316.809644</ele>
        <time>2021-11-20T07:19:23.443Z</time>
      </trkpt>
      <trkpt lat="47.536685" lon="7.986543">
        <ele>316.517244</ele>
        <time>2021-11-20T07:19:25.999Z</time>
      </trkpt>
      <trkpt lat="47.536796" lon="7.986519">
        <ele>316.376922</ele>
        <time>2021-11-20T07:19:27.240Z</time>
      </trkpt>
      <trkpt lat="47.537167" lon="7.986470">
        <ele>315.910995</ele>
        <time>2021-11-20T07:19:31.698Z</time>
      </trkpt>
      <trkpt lat="47.537409" lon="7.986449">
        <ele>315.607758</ele>
        <time>2021-11-20T07:19:34.704Z</time>
      </trkpt>
      <trkpt lat="47.537821" lon="7.986433">
        <ele>315.092208</ele>
        <time>2021-11-20T07:19:39.809Z</time>
      </trkpt>
      <trkpt lat="47.537897" lon="7.986428">
        <ele>314.997045</ele>
        <time>2021-11-20T07:19:40.974Z</time>
      </trkpt>
      <trkpt lat="47.538277" lon="7.986431">
        <ele>314.764551</ele>
        <time>2021-11-20T07:19:45.722Z</time>
      </trkpt>
      <trkpt lat="47.538514" lon="7.986428">
        <ele>314.775054</ele>
        <time>2021-11-20T07:19:48.851Z</time>
      </trkpt>
      <trkpt lat="47.538630" lon="7.986438">
        <ele>314.780203</ele>
        <time>2021-11-20T07:19:51.029Z</time>
      </trkpt>
      <trkpt lat="47.539274" lon="7.986488">
        <ele>314.808781</ele>
        <time>2021-11-20T07:20:01.286Z</time>
      </trkpt>
      <trkpt lat="47.539415" lon="7.986507">
        <ele>314.815055</ele>
        <time>2021-11-20T07:20:04.007Z</time>
      </trkpt>
      <trkpt lat="47.539549" lon="7.986535">
        <ele>314.821052</ele>
        <time>2021-11-20T07:20:06.063Z</time>
      </trkpt>
      <trkpt lat="47.539952" lon="7.986630">
        <ele>314.814519</ele>
        <time>2021-11-20T07:20:12.714Z</time>
      </trkpt>
      <trkpt lat="47.540347" lon="7.986737">
        <ele>314.694893</ele>
        <time>2021-11-20T07:20:18.408Z</time>
      </trkpt>
      <trkpt lat="47.540335" lon="7.986933">
        <ele>314.655314</ele>
        <time>2021-11-20T07:20:20.246Z</time>
      </trkpt>
      <trkpt lat="47.540321" lon="7.987087">
        <ele>314.624063</ele>
        <time>2021-11-20T07:20:21.570Z</time>
      </trkpt>
      <trkpt lat="47.539978" lon="7.988189">
        <ele>314.380015</ele>
        <time>2021-11-20T07:20:32.756Z</time>
      </trkpt>
      <trkpt lat="47.539990" lon="7.989097">
        <ele>314.124546</ele>
        <time>2021-11-20T07:20:40.592Z</time>
      </trkpt>
      <trkpt lat="47.540011" lon="7.990131">
        <ele>313.769040</ele>
        <time>2021-11-20T07:20:49.689Z</time>
      </trkpt>
      <trkpt lat="47.540018" lon="7.990553">
        <ele>313.623971</ele>
        <time>2021-11-20T07:20:53.441Z</time>
      </trkpt>
      <trkpt lat="47.540056" lon="7.990982">
        <ele>313.475276</ele>
        <time>2021-11-20T07:20:57.357Z</time>
      </trkpt>
      <trkpt lat="47.540104" lon="7.991287">
        <ele>313.394810</ele>
        <time>2021-11-20T07:21:00.244Z</time>
      </trkpt>
      <trkpt lat="47.540140" lon="7.991504">
        <ele>313.441991</ele>
        <time>2021-11-20T07:21:16.860Z</time>
      </trkpt>
      <trkpt lat="47.540194" lon="7.991768">
        <ele>313.500235</ele>
        <time>2021-11-20T07:21:19.497Z</time>
      </trkpt>
      <trkpt lat="47.540262" lon="7.992244">
        <ele>313.602963</ele>
        <time>2021-11-20T07:21:24.292Z</time>
      </trkpt>
      <trkpt lat="47.540316" lon="7.993620">
        <ele>313.893983</ele>
        <time>2021-11-20T07:21:40.115Z</time>
      </trkpt>
      <trkpt lat="47.540089" lon="7.994896">
        <ele>315.291077</ele>
        <time>2021-11-20T07:21:56.840Z</time>
      </trkpt>
      <trkpt lat="47.540013" lon="7.995140">
        <ele>315.629152</ele>
        <time>2021-11-20T07:22:00.767Z</time>
      </trkpt>
      <trkpt lat="47.539876" lon="7.995796">
        <ele>316.493054</ele>
        <time>2021-11-20T07:22:10.394Z</time>
      </trkpt>
      <trkpt lat="47.539838" lon="7.996117">
        <ele>316.903067</ele>
        <time>2021-11-20T07:22:16.131Z</time>
      </trkpt>
      <trkpt lat="47.539726" lon="7.997265">
        <ele>320.355621</ele>
        <time>2021-11-20T07:22:40.280Z</time>
      </trkpt>
      <trkpt lat="47.539590" lon="7.998122">
        <ele>323.539430</ele>
        <time>2021-11-20T07:23:00.315Z</time>
      </trkpt>
      <trkpt lat="47.539569" lon="7.998315">
        <ele>324.246420</ele>
        <time>2021-11-20T07:23:06.007Z</time>
      </trkpt>
      <trkpt lat="47.539365" lon="8.001150">
        <ele>337.482760</ele>
        <time>2021-11-20T07:24:32.708Z</time>
      </trkpt>
      <trkpt lat="47.539400" lon="8.001871">
        <ele>340.808957</ele>
        <time>2021-11-20T07:24:54.684Z</time>
      </trkpt>
      <trkpt lat="47.539437" lon="8.002525">
        <ele>342.943435</ele>
        <time>2021-11-20T07:25:13.154Z</time>
      </trkpt>
      <trkpt lat="47.539437" lon="8.002963">
        <ele>344.367953</ele>
        <time>2021-11-20T07:25:24.151Z</time>
      </trkpt>
      <trkpt lat="47.539434" lon="8.003156">
        <ele>344.995818</ele>
        <time>2021-11-20T07:25:28.832Z</time>
      </trkpt>
      <trkpt lat="47.539492" lon="8.004516">
        <ele>348.956854</ele>
        <time>2021-11-20T07:25:55.706Z</time>
      </trkpt>
      <trkpt lat="47.539590" lon="8.005890">
        <ele>349.169747</ele>
        <time>2021-11-20T07:26:10.240Z</time>
      </trkpt>
      <trkpt lat="47.539569" lon="8.007914">
        <ele>349.299173</ele>
        <time>2021-11-20T07:26:27.014Z</time>
      </trkpt>
      <trkpt lat="47.539645" lon="8.009866">
        <ele>349.353801</ele>
        <time>2021-11-20T07:26:47.843Z</time>
      </trkpt>
      <trkpt lat="47.539703" lon="8.011107">
        <ele>350.320899</ele>
        <time>2021-11-20T07:27:04.456Z</time>
      </trkpt>
      <trkpt lat="47.539798" lon="8.012369">
        <ele>351.297812</ele>
        <time>2021-11-20T07:27:22.918Z</time>
      </trkpt>
      <trkpt lat="47.539903" lon="8.015200">
        <ele>352.201864</ele>
        <time>2021-11-20T07:27:57.032Z</time>
      </trkpt>
      <trkpt lat="47.539908" lon="8.015397">
        <ele>351.871472</ele>
        <time>2021-11-20T07:27:59.305Z</time>
      </trkpt>
      <trkpt lat="47.539918" lon="8.015722">
        <ele>351.326228</ele>
        <time>2021-11-20T07:28:01.807Z</time>
      </trkpt>
      <trkpt lat="47.539979" lon="8.017566">
        <ele>348.232102</ele>
        <time>2021-11-20T07:28:14.682Z</time>
      </trkpt>
      <trkpt lat="47.540012" lon="8.018657">
        <ele>343.589768</ele>
        <time>2021-11-20T07:28:21.419Z</time>
      </trkpt>
      <trkpt lat="47.540031" lon="8.019456">
        <ele>340.004453</ele>
        <time>2021-11-20T07:28:26.237Z</time>
      </trkpt>
      <trkpt lat="47.540052" lon="8.019825">
        <ele>338.343813</ele>
        <time>2021-11-20T07:28:28.462Z</time>
      </trkpt>
      <trkpt lat="47.540098" lon="8.020321">
        <ele>336.101142</ele>
        <time>2021-11-20T07:28:31.456Z</time>
      </trkpt>
      <trkpt lat="47.540134" lon="8.020585">
        <ele>334.985471</ele>
        <time>2021-11-20T07:28:33.052Z</time>
      </trkpt>
      <trkpt lat="47.540204" lon="8.020975">
        <ele>333.313824</ele>
        <time>2021-11-20T07:28:35.474Z</time>
      </trkpt>
      <trkpt lat="47.540354" lon="8.022332">
        <ele>327.617799</ele>
        <time>2021-11-20T07:28:43.919Z</time>
      </trkpt>
      <trkpt lat="47.540454" lon="8.023022">
        <ele>324.951406</ele>
        <time>2021-11-20T07:28:48.470Z</time>
      </trkpt>
      <trkpt lat="47.540537" lon="8.023536">
        <ele>324.167123</ele>
        <time>2021-11-20T07:28:52.084Z</time>
      </trkpt>
      <trkpt lat="47.540490" lon="8.024315">
        <ele>323.006497</ele>
        <time>2021-11-20T07:28:57.723Z</time>
      </trkpt>
      <trkpt lat="47.540408" lon="8.025334">
        <ele>321.483616</ele>
        <time>2021-11-20T07:29:05.916Z</time>
      </trkpt>
      <trkpt lat="47.540306" lon="8.026756">
        <ele>320.878951</ele>
        <time>2021-11-20T07:29:18.817Z</time>
      </trkpt>
      <trkpt lat="47.540273" lon="8.028579">
        <ele>320.632729</ele>
        <time>2021-11-20T07:29:36.686Z</time>
      </trkpt>
      <trkpt lat="47.540275" lon="8.029790">
        <ele>320.882586</ele>
        <time>2021-11-20T07:29:49.256Z</time>
      </trkpt>
      <trkpt lat="47.540324" lon="8.030594">
        <ele>321.049143</ele>
        <time>2021-11-20T07:29:58.257Z</time>
      </trkpt>
      <trkpt lat="47.540394" lon="8.031575">
        <ele>321.852956</ele>
        <time>2021-11-20T07:30:09.922Z</time>
      </trkpt>
      <trkpt lat="47.541006" lon="8.038351">
        <ele>330.627444</ele>
        <time>2021-11-20T07:31:50.652Z</time>
      </trkpt>
      <trkpt lat="47.541015" lon="8.038511">
        <ele>330.906996</ele>
        <time>2021-11-20T07:31:54.085Z</time>
      </trkpt>
      <trkpt lat="47.541029" lon="8.038776">
        <ele>331.369814</ele>
        <time>2021-11-20T07:32:01.215Z</time>
      </trkpt>
      <trkpt lat="47.540973" lon="8.039326">
        <ele>332.525072</ele>
        <time>2021-11-20T07:32:15.124Z</time>
      </trkpt>
      <trkpt lat="47.540755" lon="8.039911">
        <ele>333.926503</ele>
        <time>2021-11-20T07:32:30.626Z</time>
      </trkpt>
      <trkpt lat="47.540612" lon="8.040244">
        <ele>334.754230</ele>
        <time>2021-11-20T07:32:38.760Z</time>
      </trkpt>
      <trkpt lat="47.540564" lon="8.040358">
        <ele>335.036016</ele>
        <time>2021-11-20T07:32:40.680Z</time>
      </trkpt>
      <trkpt lat="47.540240" lon="8.040995">
        <ele>336.708761</ele>
        <time>2021-11-20T07:32:52.017Z</time>
      </trkpt>
      <trkpt lat="47.540116" lon="8.041253">
        <ele>337.013664</ele>
        <time>2021-11-20T07:32:55.506Z</time>
      </trkpt>
      <trkpt lat="47.540079" lon="8.041350">
        <ele>337.014095</ele>
        <time>2021-11-20T07:32:56.659Z</time>
      </trkpt>
      <trkpt lat="47.540031" lon="8.041477">
        <ele>337.014657</ele>
        <time>2021-11-20T07:32:57.853Z</time>
      </trkpt>
      <trkpt lat="47.539998" lon="8.041644">
        <ele>337.015330</ele>
        <time>2021-11-20T07:33:00.191Z</time>
      </trkpt>
      <trkpt lat="47.539983" lon="8.041866">
        <ele>337.016193</ele>
        <time>2021-11-20T07:33:03.537Z</time>
      </trkpt>
      <trkpt lat="47.539991" lon="8.042065">
        <ele>337.016963</ele>
        <time>2021-11-20T07:33:08.095Z</time>
      </trkpt>
      <trkpt lat="47.540021" lon="8.042268">
        <ele>337.017767</ele>
        <time>2021-11-20T07:33:13.229Z</time>
      </trkpt>
      <trkpt lat="47.540034" lon="8.042303">
        <ele>337.017921</ele>
        <time>2021-11-20T07:33:14.080Z</time>
      </trkpt>
      <trkpt lat="47.540072" lon="8.042391">
        <ele>337.018325</ele>
        <time>2021-11-20T07:33:16.383Z</time>
      </trkpt>
      <trkpt lat="47.540094" lon="8.042446">
        <ele>337.018572</ele>
        <time>2021-11-20T07:33:16.858Z</time>
      </trkpt>
      <trkpt lat="47.540115" lon="8.042499">
        <ele>337.018810</ele>
        <time>2021-11-20T07:33:17.269Z</time>
      </trkpt>
      <trkpt lat="47.540230" lon="8.042774">
        <ele>337.020060</ele>
        <time>2021-11-20T07:33:19.789Z</time>
      </trkpt>
      <trkpt lat="47.540311" lon="8.043099">
        <ele>337.021400</ele>
        <time>2021-11-20T07:33:22.415Z</time>
      </trkpt>
      <trkpt lat="47.540353" lon="8.043323">
        <ele>337.022298</ele>
        <time>2021-11-20T07:33:24.271Z</time>
      </trkpt>
      <trkpt lat="47.540358" lon="8.043349">
        <ele>337.022403</ele>
        <time>2021-11-20T07:33:24.484Z</time>
      </trkpt>
      <trkpt lat="47.540392" lon="8.043542">
        <ele>337.023174</ele>
        <time>2021-11-20T07:33:26.493Z</time>
      </trkpt>
      <trkpt lat="47.540394" lon="8.043626">
        <ele>337.273422</ele>
        <time>2021-11-20T07:33:28.270Z</time>
      </trkpt>
      <trkpt lat="47.540360" lon="8.044061">
        <ele>339.409576</ele>
        <time>2021-11-20T07:33:34.408Z</time>
      </trkpt>
      <trkpt lat="47.540345" lon="8.044329">
        <ele>340.721395</ele>
        <time>2021-11-20T07:33:42.693Z</time>
      </trkpt>
      <trkpt lat="47.540316" lon="8.044416">
        <ele>341.194709</ele>
        <time>2021-11-20T07:33:44.200Z</time>
      </trkpt>
      <trkpt lat="47.540484" lon="8.044413">
        <ele>342.408778</ele>
        <time>2021-11-20T07:33:52.023Z</time>
      </trkpt>
      <trkpt lat="47.540509" lon="8.044410">
        <ele>342.590021</ele>
        <time>2021-11-20T07:33:53.687Z</time>
      </trkpt>
      <trkpt lat="47.540685" lon="8.044388">
        <ele>343.866331</ele>
        <time>2021-11-20T07:34:01.333Z</time>
      </trkpt>
      <trkpt lat="47.540801" lon="8.044393">
        <ele>344.704910</ele>
        <time>2021-11-20T07:34:07.327Z</time>
      </trkpt>
      <trkpt lat="47.540913" lon="8.044428">
        <ele>345.532043</ele>
        <time>2021-11-20T07:34:14.984Z</time>
      </trkpt>
      <trkpt lat="47.540994" lon="8.044486">
        <ele>346.182149</ele>
        <time>2021-11-20T07:34:18.477Z</time>
      </trkpt>
      <trkpt lat="47.541082" lon="8.044576">
        <ele>346.954875</ele>
        <time>2021-11-20T07:34:23.476Z</time>
      </trkpt>
      <trkpt lat="47.541181" lon="8.044757">
        <ele>348.091240</ele>
        <time>2021-11-20T07:34:35.430Z</time>
      </trkpt>
      <trkpt lat="47.541272" lon="8.045010">
        <ele>349.489635</ele>
        <time>2021-11-20T07:34:44.885Z</time>
      </trkpt>
      <trkpt lat="47.541383" lon="8.045289">
        <ele>351.268835</ele>
        <time>2021-11-20T07:34:59.852Z</time>
      </trkpt>
      <trkpt lat="47.541649" lon="8.045944">
        <ele>355.706547</ele>
        <time>2021-11-20T07:35:28.283Z</time>
      </trkpt>
      <trkpt lat="47.541824" lon="8.046281">
        <ele>358.174912</ele>
        <time>2021-11-20T07:35:44.792Z</time>
      </trkpt>
      <trkpt lat="47.542028" lon="8.046678">
        <ele>361.071467</ele>
        <time>2021-11-20T07:36:02.941Z</time>
      </trkpt>
      <trkpt lat="47.542173" lon="8.047001">
        <ele>363.323426</ele>
        <time>2021-11-20T07:36:14.883Z</time>
      </trkpt>
      <trkpt lat="47.542191" lon="8.047035">
        <ele>363.574274</ele>
        <time>2021-11-20T07:36:15.253Z</time>
      </trkpt>
      <trkpt lat="47.542760" lon="8.048321">
        <ele>365.102890</ele>
        <time>2021-11-20T07:36:43.592Z</time>
      </trkpt>
      <trkpt lat="47.543032" lon="8.048967">
        <ele>364.859530</ele>
        <time>2021-11-20T07:36:49.202Z</time>
      </trkpt>
      <trkpt lat="47.543197" lon="8.049360">
        <ele>364.711600</ele>
        <time>2021-11-20T07:36:52.151Z</time>
      </trkpt>
      <trkpt lat="47.543527" lon="8.049937">
        <ele>361.230652</ele>
        <time>2021-11-20T07:36:56.889Z</time>
      </trkpt>
      <trkpt lat="47.543707" lon="8.050192">
        <ele>358.830837</ele>
        <time>2021-11-20T07:36:59.063Z</time>
      </trkpt>
      <trkpt lat="47.543727" lon="8.050310">
        <ele>358.039507</ele>
        <time>2021-11-20T07:36:59.927Z</time>
      </trkpt>
      <trkpt lat="47.543814" lon="8.050409">
        <ele>356.982445</ele>
        <time>2021-11-20T07:37:00.838Z</time>
      </trkpt>
      <trkpt lat="47.544563" lon="8.050992">
        <ele>348.829841</ele>
        <time>2021-11-20T07:37:08.044Z</time>
      </trkpt>
      <trkpt lat="47.545273" lon="8.051296">
        <ele>341.649258</ele>
        <time>2021-11-20T07:37:14.247Z</time>
      </trkpt>
      <trkpt lat="47.545750" lon="8.051406">
        <ele>336.948447</ele>
        <time>2021-11-20T07:37:18.398Z</time>
      </trkpt>
      <trkpt lat="47.545930" lon="8.051448">
        <ele>335.174057</ele>
        <time>2021-11-20T07:37:19.953Z</time>
      </trkpt>
      <trkpt lat="47.546716" lon="8.051461">
        <ele>329.148323</ele>
        <time>2021-11-20T07:37:27.033Z</time>
      </trkpt>
      <trkpt lat="47.546837" lon="8.051463">
        <ele>328.814647</ele>
        <time>2021-11-20T07:37:28.228Z</time>
      </trkpt>
      <trkpt lat="47.547714" lon="8.051557">
        <ele>326.390021</ele>
        <time>2021-11-20T07:37:37.489Z</time>
      </trkpt>
      <trkpt lat="47.548185" lon="8.051677">
        <ele>325.072186</ele>
        <time>2021-11-20T07:37:44.157Z</time>
      </trkpt>
      <trkpt lat="47.548744" lon="8.051887">
        <ele>324.715189</ele>
        <time>2021-11-20T07:37:52.288Z</time>
      </trkpt>
      <trkpt lat="47.549149" lon="8.052064">
        <ele>324.614475</ele>
        <time>2021-11-20T07:37:58.280Z</time>
      </trkpt>
      <trkpt lat="47.549738" lon="8.052404">
        <ele>324.463704</ele>
        <time>2021-11-20T07:38:07.220Z</time>
      </trkpt>
      <trkpt lat="47.550740" lon="8.052995">
        <ele>324.492228</ele>
        <time>2021-11-20T07:38:22.663Z</time>
      </trkpt>
      <trkpt lat="47.550973" lon="8.053161">
        <ele>324.520246</ele>
        <time>2021-11-20T07:38:26.722Z</time>
      </trkpt>
      <trkpt lat="47.551306" lon="8.053467">
        <ele>324.562709</ele>
        <time>2021-11-20T07:38:32.931Z</time>
      </trkpt>
      <trkpt lat="47.551349" lon="8.053523">
        <ele>324.568913</ele>
        <time>2021-11-20T07:38:33.854Z</time>
      </trkpt>
      <trkpt lat="47.551894" lon="8.054228">
        <ele>324.677427</ele>
        <time>2021-11-20T07:38:45.522Z</time>
      </trkpt>
      <trkpt lat="47.552120" lon="8.054543">
        <ele>324.731529</ele>
        <time>2021-11-20T07:38:50.745Z</time>
      </trkpt>
      <trkpt lat="47.552487" lon="8.054973">
        <ele>324.813111</ele>
        <time>2021-11-20T07:38:58.384Z</time>
      </trkpt>
      <trkpt lat="47.552622" lon="8.055105">
        <ele>324.841314</ele>
        <time>2021-11-20T07:39:00.907Z</time>
      </trkpt>
      <trkpt lat="47.552751" lon="8.055232">
        <ele>324.868319</ele>
        <time>2021-11-20T07:39:03.340Z</time>
      </trkpt>
      <trkpt lat="47.553934" lon="8.056292">
        <ele>324.370728</ele>
        <time>2021-11-20T07:39:21.989Z</time>
      </trkpt>
      <trkpt lat="47.553955" lon="8.056423">
        <ele>324.327430</ele>
        <time>2021-11-20T07:39:23.149Z</time>
      </trkpt>
      <trkpt lat="47.553918" lon="8.056534">
        <ele>324.287618</ele>
        <time>2021-11-20T07:39:24.220Z</time>
      </trkpt>
      <trkpt lat="47.553951" lon="8.056569">
        <ele>324.268281</ele>
        <time>2021-11-20T07:39:24.797Z</time>
      </trkpt>
      <trkpt lat="47.554076" lon="8.056308">
        <ele>324.165364</ele>
        <time>2021-11-20T07:39:27.562Z</time>
      </trkpt>
      <trkpt lat="47.554427" lon="8.056633">
        <ele>323.925684</ele>
        <time>2021-11-20T07:39:32.813Z</time>
      </trkpt>
      <trkpt lat="47.555655" lon="8.057811">
        <ele>322.885724</ele>
        <time>2021-11-20T07:39:51.584Z</time>
      </trkpt>
      <trkpt lat="47.555706" lon="8.057851">
        <ele>322.844703</ele>
        <time>2021-11-20T07:39:52.616Z</time>
      </trkpt>
      <trkpt lat="47.555845" lon="8.057959">
        <ele>322.712569</ele>
        <time>2021-11-20T07:39:54.504Z</time>
      </trkpt>
      <trkpt lat="47.555950" lon="8.058038">
        <ele>322.588540</ele>
        <time>2021-11-20T07:39:56.057Z</time>
      </trkpt>
      <trkpt lat="47.556038" lon="8.058094">
        <ele>322.487669</ele>
        <time>2021-11-20T07:39:57.335Z</time>
      </trkpt>
      <trkpt lat="47.556114" lon="8.058137">
        <ele>322.401986</ele>
        <time>2021-11-20T07:39:58.212Z</time>
      </trkpt>
      <trkpt lat="47.556243" lon="8.058197">
        <ele>322.259582</ele>
        <time>2021-11-20T07:39:59.865Z</time>
      </trkpt>
      <trkpt lat="47.556650" lon="8.058347">
        <ele>321.817854</ele>
        <time>2021-11-20T07:40:04.905Z</time>
      </trkpt>
      <trkpt lat="47.556854" lon="8.058408">
        <ele>321.598662</ele>
        <time>2021-11-20T07:40:07.322Z</time>
      </trkpt>
      <trkpt lat="47.557401" lon="8.058403">
        <ele>321.022529</ele>
        <time>2021-11-20T07:40:14.083Z</time>
      </trkpt>
      <trkpt lat="47.557498" lon="8.058378">
        <ele>320.918831</ele>
        <time>2021-11-20T07:40:15.129Z</time>
      </trkpt>
      <trkpt lat="47.557861" lon="8.058282">
        <ele>320.697389</ele>
        <time>2021-11-20T07:40:19.536Z</time>
      </trkpt>
      <trkpt lat="47.557986" lon="8.058487">
        <ele>320.594416</ele>
        <time>2021-11-20T07:40:22.008Z</time>
      </trkpt>
      <trkpt lat="47.558135" lon="8.058789">
        <ele>320.454987</ele>
        <time>2021-11-20T07:40:25.027Z</time>
      </trkpt>
      <trkpt lat="47.558705" lon="8.059935">
        <ele>319.924397</ele>
        <time>2021-11-20T07:40:38.181Z</time>
      </trkpt>
      <trkpt lat="47.559127" lon="8.060780">
        <ele>320.038479</ele>
        <time>2021-11-20T07:40:49.698Z</time>
      </trkpt>
      <trkpt lat="47.559315" lon="8.061147">
        <ele>320.111149</ele>
        <time>2021-11-20T07:40:54.715Z</time>
      </trkpt>
      <trkpt lat="47.559454" lon="8.061437">
        <ele>320.167250</ele>
        <time>2021-11-20T07:40:58.573Z</time>
      </trkpt>
      <trkpt lat="47.559486" lon="8.061505">
        <ele>320.180325</ele>
        <time>2021-11-20T07:40:59.485Z</time>
      </trkpt>
      <trkpt lat="47.559532" lon="8.061606">
        <ele>320.199543</ele>
        <time>2021-11-20T07:41:00.770Z</time>
      </trkpt>
      <trkpt lat="47.559623" lon="8.061812">
        <ele>320.238375</ele>
        <time>2021-11-20T07:41:03.390Z</time>
      </trkpt>
      <trkpt lat="47.559747" lon="8.061982">
        <ele>320.277856</ele>
        <time>2021-11-20T07:41:06.091Z</time>
      </trkpt>
      <trkpt lat="47.559896" lon="8.062191">
        <ele>320.318781</ele>
        <time>2021-11-20T07:41:09.244Z</time>
      </trkpt>
      <trkpt lat="47.560225" lon="8.062994">
        <ele>320.407048</ele>
        <time>2021-11-20T07:41:19.262Z</time>
      </trkpt>
      <trkpt lat="47.560335" lon="8.063169">
        <ele>320.429518</ele>
        <time>2021-11-20T07:41:21.772Z</time>
      </trkpt>
      <trkpt lat="47.560392" lon="8.063300">
        <ele>320.444164</ele>
        <time>2021-11-20T07:41:23.384Z</time>
      </trkpt>
      <trkpt lat="47.560719" lon="8.063873">
        <ele>320.514673</ele>
        <time>2021-11-20T07:41:31.306Z</time>
      </trkpt>
      <trkpt lat="47.560806" lon="8.064037">
        <ele>320.534273</ele>
        <time>2021-11-20T07:41:33.340Z</time>
      </trkpt>
      <trkpt lat="47.560887" lon="8.064271">
        <ele>320.558785</ele>
        <time>2021-11-20T07:41:36.082Z</time>
      </trkpt>
      <trkpt lat="47.561017" lon="8.064820">
        <ele>320.522151</ele>
        <time>2021-11-20T07:41:41.750Z</time>
      </trkpt>
      <trkpt lat="47.561108" lon="8.065242">
        <ele>320.494257</ele>
        <time>2021-11-20T07:41:45.870Z</time>
      </trkpt>
      <trkpt lat="47.561253" lon="8.066385">
        <ele>320.421028</ele>
        <time>2021-11-20T07:41:56.863Z</time>
      </trkpt>
      <trkpt lat="47.561276" lon="8.067022">
        <ele>320.509763</ele>
        <time>2021-11-20T07:42:03.114Z</time>
      </trkpt>
      <trkpt lat="47.561265" lon="8.067435">
        <ele>320.813414</ele>
        <time>2021-11-20T07:42:07.497Z</time>
      </trkpt>
      <trkpt lat="47.561229" lon="8.067903">
        <ele>321.159462</ele>
        <time>2021-11-20T07:42:13.240Z</time>
      </trkpt>
      <trkpt lat="47.561187" lon="8.068256">
        <ele>321.422798</ele>
        <time>2021-11-20T07:42:17.647Z</time>
      </trkpt>
      <trkpt lat="47.561130" lon="8.068650">
        <ele>321.718833</ele>
        <time>2021-11-20T07:42:22.890Z</time>
      </trkpt>
      <trkpt lat="47.560998" lon="8.069237">
        <ele>322.173395</ele>
        <time>2021-11-20T07:42:32.037Z</time>
      </trkpt>
      <trkpt lat="47.560904" lon="8.069780">
        <ele>322.847022</ele>
        <time>2021-11-20T07:42:40.997Z</time>
      </trkpt>
      <trkpt lat="47.560864" lon="8.070015">
        <ele>323.222584</ele>
        <time>2021-11-20T07:42:45.029Z</time>
      </trkpt>
      <trkpt lat="47.560739" lon="8.070551">
        <ele>324.101370</ele>
        <time>2021-11-20T07:42:54.643Z</time>
      </trkpt>
      <trkpt lat="47.560584" lon="8.070919">
        <ele>324.773590</ele>
        <time>2021-11-20T07:43:01.956Z</time>
      </trkpt>
      <trkpt lat="47.560553" lon="8.071099">
        <ele>325.061459</ele>
        <time>2021-11-20T07:43:05.147Z</time>
      </trkpt>
      <trkpt lat="47.560524" lon="8.071179">
        <ele>325.202182</ele>
        <time>2021-11-20T07:43:06.908Z</time>
      </trkpt>
      <trkpt lat="47.560318" lon="8.072316">
        <ele>326.865111</ele>
        <time>2021-11-20T07:43:25.809Z</time>
      </trkpt>
      <trkpt lat="47.559811" lon="8.074398">
        <ele>329.283021</ele>
        <time>2021-11-20T07:43:56.649Z</time>
      </trkpt>
      <trkpt lat="47.559426" lon="8.075372">
        <ele>330.472535</ele>
        <time>2021-11-20T07:44:12.099Z</time>
      </trkpt>
      <trkpt lat="47.559046" lon="8.076086">
        <ele>331.427416</ele>
        <time>2021-11-20T07:44:25.123Z</time>
      </trkpt>
      <trkpt lat="47.558613" lon="8.076826">
        <ele>332.384478</ele>
        <time>2021-11-20T07:44:39.706Z</time>
      </trkpt>
      <trkpt lat="47.557793" lon="8.078299">
        <ele>333.850854</ele>
        <time>2021-11-20T07:45:07.464Z</time>
      </trkpt>
      <trkpt lat="47.557256" lon="8.079416">
        <ele>332.871464</ele>
        <time>2021-11-20T07:45:19.312Z</time>
      </trkpt>
      <trkpt lat="47.557099" lon="8.079786">
        <ele>332.184665</ele>
        <time>2021-11-20T07:45:22.550Z</time>
      </trkpt>
      <trkpt lat="47.556853" lon="8.080477">
        <ele>330.956997</ele>
        <time>2021-11-20T07:45:27.936Z</time>
      </trkpt>
      <trkpt lat="47.556470" lon="8.081563">
        <ele>327.865573</ele>
        <time>2021-11-20T07:45:35.951Z</time>
      </trkpt>
      <trkpt lat="47.556083" lon="8.083354">
        <ele>321.523226</ele>
        <time>2021-11-20T07:45:47.755Z</time>
      </trkpt>
      <trkpt lat="47.555956" lon="8.084115">
        <ele>319.038800</ele>
        <time>2021-11-20T07:45:52.758Z</time>
      </trkpt>
      <trkpt lat="47.555899" lon="8.084472">
        <ele>317.891996</ele>
        <time>2021-11-20T07:45:55.078Z</time>
      </trkpt>
      <trkpt lat="47.555764" lon="8.085769">
        <ele>313.789574</ele>
        <time>2021-11-20T07:46:03.542Z</time>
      </trkpt>
      <trkpt lat="47.555733" lon="8.086819">
        <ele>312.219863</ele>
        <time>2021-11-20T07:46:10.470Z</time>
      </trkpt>
      <trkpt lat="47.555737" lon="8.087083">
        <ele>312.031055</ele>
        <time>2021-11-20T07:46:12.269Z</time>
      </trkpt>
      <trkpt lat="47.555780" lon="8.087557">
        <ele>311.689097</ele>
        <time>2021-11-20T07:46:15.759Z</time>
      </trkpt>
      <trkpt lat="47.555809" lon="8.087783">
        <ele>311.524612</ele>
        <time>2021-11-20T07:46:18.205Z</time>
      </trkpt>
      <trkpt lat="47.555829" lon="8.087941">
        <ele>311.409672</ele>
        <time>2021-11-20T07:46:19.653Z</time>
      </trkpt>
      <trkpt lat="47.555887" lon="8.088299">
        <ele>311.146429</ele>
        <time>2021-11-20T07:46:23.876Z</time>
      </trkpt>
      <trkpt lat="47.555939" lon="8.088552">
        <ele>310.957331</ele>
        <time>2021-11-20T07:46:27.246Z</time>
      </trkpt>
      <trkpt lat="47.555991" lon="8.088778">
        <ele>311.054049</ele>
        <time>2021-11-20T07:46:30.865Z</time>
      </trkpt>
      <trkpt lat="47.555997" lon="8.088801">
        <ele>311.165668</ele>
        <time>2021-11-20T07:46:31.518Z</time>
      </trkpt>
      <trkpt lat="47.556065" lon="8.089084">
        <ele>312.525472</ele>
        <time>2021-11-20T07:46:38.029Z</time>
      </trkpt>
      <trkpt lat="47.556111" lon="8.089266">
        <ele>313.405195</ele>
        <time>2021-11-20T07:46:42.171Z</time>
      </trkpt>
      <trkpt lat="47.556151" lon="8.089459">
        <ele>314.319098</ele>
        <time>2021-11-20T07:46:49.492Z</time>
      </trkpt>
      <trkpt lat="47.556137" lon="8.089730">
        <ele>315.549394</ele>
        <time>2021-11-20T07:46:54.964Z</time>
      </trkpt>
      <trkpt lat="47.556110" lon="8.089809">
        <ele>315.950238</ele>
        <time>2021-11-20T07:46:56.987Z</time>
      </trkpt>
      <trkpt lat="47.556110" lon="8.089809">
        <ele>315.950238</ele>
        <time>2021-11-20T07:46:57.122Z</time>
      </trkpt>
      <trkpt lat="47.556110" lon="8.089809">
        <ele>315.950238</ele>
        <time>2021-11-20T07:46:57.132Z</time>
      </trkpt>
      <trkpt lat="47.556049" lon="8.089894">
        <ele>316.511884</ele>
        <time>2021-11-20T07:47:01.854Z</time>
      </trkpt>
      <trkpt lat="47.555958" lon="8.089981">
        <ele>317.238275</ele>
        <time>2021-11-20T07:47:05.122Z</time>
      </trkpt>
      <trkpt lat="47.555814" lon="8.090101">
        <ele>318.346406</ele>
        <time>2021-11-20T07:47:12.403Z</time>
      </trkpt>
      <trkpt lat="47.555709" lon="8.090186">
        <ele>319.148931</ele>
        <time>2021-11-20T07:47:19.596Z</time>
      </trkpt>
      <trkpt lat="47.555442" lon="8.090309">
        <ele>321.024358</ele>
        <time>2021-11-20T07:47:34.678Z</time>
      </trkpt>
      <trkpt lat="47.555428" lon="8.090311">
        <ele>321.118697</ele>
        <time>2021-11-20T07:47:36.219Z</time>
      </trkpt>
      <trkpt lat="47.555380" lon="8.090319">
        <ele>321.442682</ele>
        <time>2021-11-20T07:47:39.459Z</time>
      </trkpt>
      <trkpt lat="47.555337" lon="8.090325">
        <ele>321.732376</ele>
        <time>2021-11-20T07:47:41.901Z</time>
      </trkpt>
      <trkpt lat="47.555198" lon="8.090321">
        <ele>322.664878</ele>
        <time>2021-11-20T07:47:48.908Z</time>
      </trkpt>
      <trkpt lat="47.555112" lon="8.090313">
        <ele>323.290285</ele>
        <time>2021-11-20T07:47:54.897Z</time>
      </trkpt>
      <trkpt lat="47.555031" lon="8.090308">
        <ele>323.906598</ele>
        <time>2021-11-20T07:48:01.395Z</time>
      </trkpt>
      <trkpt lat="47.554885" lon="8.090276">
        <ele>325.028599</ele>
        <time>2021-11-20T07:48:08.486Z</time>
      </trkpt>
      <trkpt lat="47.554832" lon="8.090226">
        <ele>325.506250</ele>
        <time>2021-11-20T07:48:12.534Z</time>
      </trkpt>
      <trkpt lat="47.554799" lon="8.090151">
        <ele>325.965604</ele>
        <time>2021-11-20T07:48:16.445Z</time>
      </trkpt>
      <trkpt lat="47.554777" lon="8.090048">
        <ele>326.519892</ele>
        <time>2021-11-20T07:48:22.438Z</time>
      </trkpt>
      <trkpt lat="47.554750" lon="8.089964">
        <ele>326.997248</ele>
        <time>2021-11-20T07:48:26.010Z</time>
      </trkpt>
      <trkpt lat="47.554514" lon="8.090062">
        <ele>328.860495</ele>
        <time>2021-11-20T07:48:37.922Z</time>
      </trkpt>
      <trkpt lat="47.554276" lon="8.090130">
        <ele>330.703153</ele>
        <time>2021-11-20T07:48:49.658Z</time>
      </trkpt>
      <trkpt lat="47.554025" lon="8.090156">
        <ele>332.615967</ele>
        <time>2021-11-20T07:49:02.129Z</time>
      </trkpt>
      <trkpt lat="47.553684" lon="8.090132">
        <ele>335.211246</ele>
        <time>2021-11-20T07:49:15.394Z</time>
      </trkpt>
      <trkpt lat="47.552086" lon="8.089915">
        <ele>338.809204</ele>
        <time>2021-11-20T07:49:53.302Z</time>
      </trkpt>
      <trkpt lat="47.551496" lon="8.089843">
        <ele>339.042075</ele>
        <time>2021-11-20T07:49:59.997Z</time>
      </trkpt>
      <trkpt lat="47.550657" lon="8.089793">
        <ele>337.700369</ele>
        <time>2021-11-20T07:50:09.077Z</time>
      </trkpt>
      <trkpt lat="47.550176" lon="8.089890">
        <ele>336.924702</ele>
        <time>2021-11-20T07:50:14.355Z</time>
      </trkpt>
      <trkpt lat="47.549751" lon="8.090009">
        <ele>336.686981</ele>
        <time>2021-11-20T07:50:19.649Z</time>
      </trkpt>
      <trkpt lat="47.549689" lon="8.090023">
        <ele>336.745181</ele>
        <time>2021-11-20T07:50:20.750Z</time>
      </trkpt>
      <trkpt lat="47.549330" lon="8.090206">
        <ele>337.097495</ele>
        <time>2021-11-20T07:50:26.078Z</time>
      </trkpt>
      <trkpt lat="47.548932" lon="8.090552">
        <ele>337.525721</ele>
        <time>2021-11-20T07:50:33.910Z</time>
      </trkpt>
      <trkpt lat="47.548580" lon="8.090994">
        <ele>337.953911</ele>
        <time>2021-11-20T07:50:43.746Z</time>
      </trkpt>
      <trkpt lat="47.548109" lon="8.091607">
        <ele>339.751139</ele>
        <time>2021-11-20T07:51:01.287Z</time>
      </trkpt>
      <trkpt lat="47.547688" lon="8.092136">
        <ele>342.062093</ele>
        <time>2021-11-20T07:51:20.257Z</time>
      </trkpt>
      <trkpt lat="47.547479" lon="8.092413">
        <ele>343.236039</ele>
        <time>2021-11-20T07:51:29.755Z</time>
      </trkpt>
      <trkpt lat="47.547403" lon="8.092513">
        <ele>343.661562</ele>
        <time>2021-11-20T07:51:32.832Z</time>
      </trkpt>
      <trkpt lat="47.547127" lon="8.092859">
        <ele>345.175123</ele>
        <time>2021-11-20T07:51:44.674Z</time>
      </trkpt>
      <trkpt lat="47.547048" lon="8.092964">
        <ele>345.619425</ele>
        <time>2021-11-20T07:51:48.104Z</time>
      </trkpt>
      <trkpt lat="47.546922" lon="8.093131">
        <ele>346.245272</ele>
        <time>2021-11-20T07:51:54.103Z</time>
      </trkpt>
      <trkpt lat="47.546508" lon="8.093680">
        <ele>348.257932</ele>
        <time>2021-11-20T07:52:11.696Z</time>
      </trkpt>
      <trkpt lat="47.546338" lon="8.093908">
        <ele>349.088585</ele>
        <time>2021-11-20T07:52:18.894Z</time>
      </trkpt>
      <trkpt lat="47.545895" lon="8.094509">
        <ele>351.264465</ele>
        <time>2021-11-20T07:52:36.527Z</time>
      </trkpt>
      <trkpt lat="47.545126" lon="8.095450">
        <ele>352.679055</ele>
        <time>2021-11-20T07:52:59.155Z</time>
      </trkpt>
      <trkpt lat="47.544594" lon="8.095912">
        <ele>353.054789</ele>
        <time>2021-11-20T07:53:07.626Z</time>
      </trkpt>
      <trkpt lat="47.544419" lon="8.096063">
        <ele>353.178184</ele>
        <time>2021-11-20T07:53:10.089Z</time>
      </trkpt>
      <trkpt lat="47.543978" lon="8.096443">
        <ele>353.371996</ele>
        <time>2021-11-20T07:53:16.414Z</time>
      </trkpt>
      <trkpt lat="47.543428" lon="8.096918">
        <ele>353.473684</ele>
        <time>2021-11-20T07:53:25.914Z</time>
      </trkpt>
      <trkpt lat="47.542782" lon="8.097415">
        <ele>353.589953</ele>
        <time>2021-11-20T07:53:37.618Z</time>
      </trkpt>
      <trkpt lat="47.541972" lon="8.097739">
        <ele>355.528162</ele>
        <time>2021-11-20T07:53:53.933Z</time>
      </trkpt>
      <trkpt lat="47.541891" lon="8.097778">
        <ele>355.772753</ele>
        <time>2021-11-20T07:53:56.498Z</time>
      </trkpt>
      <trkpt lat="47.541736" lon="8.097846">
        <ele>356.236987</ele>
        <time>2021-11-20T07:54:00.709Z</time>
      </trkpt>
      <trkpt lat="47.541294" lon="8.098103">
        <ele>357.600585</ele>
        <time>2021-11-20T07:54:16.032Z</time>
      </trkpt>
      <trkpt lat="47.541331" lon="8.098259">
        <ele>357.921132</ele>
        <time>2021-11-20T07:54:20.410Z</time>
      </trkpt>
      <trkpt lat="47.541600" lon="8.098858">
        <ele>359.649005</ele>
        <time>2021-11-20T07:54:37.703Z</time>
      </trkpt>
      <trkpt lat="47.541634" lon="8.098967">
        <ele>360.027326</ele>
        <time>2021-11-20T07:54:40.866Z</time>
      </trkpt>
      <trkpt lat="47.541690" lon="8.099150">
        <ele>360.660384</ele>
        <time>2021-11-20T07:54:46.007Z</time>
      </trkpt>
      <trkpt lat="47.541717" lon="8.099238">
        <ele>360.964942</ele>
        <time>2021-11-20T07:54:48.442Z</time>
      </trkpt>
      <trkpt lat="47.541847" lon="8.099787">
        <ele>362.798017</ele>
        <time>2021-11-20T07:55:03.325Z</time>
      </trkpt>
      <trkpt lat="47.541894" lon="8.100661">
        <ele>365.560461</ele>
        <time>2021-11-20T07:55:26.235Z</time>
      </trkpt>
      <trkpt lat="47.541839" lon="8.101088">
        <ele>366.930086</ele>
        <time>2021-11-20T07:55:38.725Z</time>
      </trkpt>
      <trkpt lat="47.541851" lon="8.101428">
        <ele>368.031066</ele>
        <time>2021-11-20T07:55:48.830Z</time>
      </trkpt>
      <trkpt lat="47.541893" lon="8.101780">
        <ele>369.195913</ele>
        <time>2021-11-20T07:55:58.875Z</time>
      </trkpt>
      <trkpt lat="47.542029" lon="8.102904">
        <ele>372.917069</ele>
        <time>2021-11-20T07:56:29.060Z</time>
      </trkpt>
      <trkpt lat="47.542031" lon="8.103252">
        <ele>374.051137</ele>
        <time>2021-11-20T07:56:38.158Z</time>
      </trkpt>
      <trkpt lat="47.542070" lon="8.103279">
        <ele>374.258949</ele>
        <time>2021-11-20T07:56:40.123Z</time>
      </trkpt>
      <trkpt lat="47.542257" lon="8.103443">
        <ele>375.307998</ele>
        <time>2021-11-20T07:56:48.460Z</time>
      </trkpt>
      <trkpt lat="47.542317" lon="8.103429">
        <ele>375.601210</ele>
        <time>2021-11-20T07:56:50.474Z</time>
      </trkpt>
      <trkpt lat="47.542424" lon="8.103404">
        <ele>376.162348</ele>
        <time>2021-11-20T07:56:54.493Z</time>
      </trkpt>
      <trkpt lat="47.542536" lon="8.103244">
        <ele>377.022410</ele>
        <time>2021-11-20T07:56:59.971Z</time>
      </trkpt>
      <trkpt lat="47.542561" lon="8.102981">
        <ele>378.013441</ele>
        <time>2021-11-20T07:57:06.702Z</time>
      </trkpt>
      <trkpt lat="47.542510" lon="8.102462">
        <ele>379.970431</ele>
        <time>2021-11-20T07:57:20.521Z</time>
      </trkpt>
      <trkpt lat="47.542503" lon="8.102285">
        <ele>380.632015</ele>
        <time>2021-11-20T07:57:25.733Z</time>
      </trkpt>
      <trkpt lat="47.542577" lon="8.101899">
        <ele>382.129280</ele>
        <time>2021-11-20T07:57:36.709Z</time>
      </trkpt>
      <trkpt lat="47.542852" lon="8.101208">
        <ele>385.122378</ele>
        <time>2021-11-20T07:58:00.281Z</time>
      </trkpt>
      <trkpt lat="47.543027" lon="8.100889">
        <ele>387.010265</ele>
        <time>2021-11-20T07:58:16.062Z</time>
      </trkpt>
      <trkpt lat="47.543585" lon="8.100026">
        <ele>393.319384</ele>
        <time>2021-11-20T07:58:56.228Z</time>
      </trkpt>
      <trkpt lat="47.543626" lon="8.099974">
        <ele>393.741514</ele>
        <time>2021-11-20T07:58:59.594Z</time>
      </trkpt>
      <trkpt lat="47.543723" lon="8.100009">
        <ele>394.522339</ele>
        <time>2021-11-20T07:59:06.341Z</time>
      </trkpt>
      <trkpt lat="47.543822" lon="8.100121">
        <ele>395.496586</ele>
        <time>2021-11-20T07:59:11.749Z</time>
      </trkpt>
      <trkpt lat="47.543873" lon="8.100334">
        <ele>396.689753</ele>
        <time>2021-11-20T07:59:19.314Z</time>
      </trkpt>
      <trkpt lat="47.543879" lon="8.100475">
        <ele>397.435632</ele>
        <time>2021-11-20T07:59:25.974Z</time>
      </trkpt>
      <trkpt lat="47.543866" lon="8.100680">
        <ele>398.522682</ele>
        <time>2021-11-20T07:59:32.018Z</time>
      </trkpt>
      <trkpt lat="47.543838" lon="8.101089">
        <ele>400.673526</ele>
        <time>2021-11-20T07:59:47.207Z</time>
      </trkpt>
      <trkpt lat="47.543817" lon="8.101400">
        <ele>402.284480</ele>
        <time>2021-11-20T07:59:57.371Z</time>
      </trkpt>
      <trkpt lat="47.543833" lon="8.101783">
        <ele>404.262311</ele>
        <time>2021-11-20T08:00:10.803Z</time>
      </trkpt>
      <trkpt lat="47.543919" lon="8.102097">
        <ele>406.008869</ele>
        <time>2021-11-20T08:00:24.470Z</time>
      </trkpt>
      <trkpt lat="47.544294" lon="8.102728">
        <ele>410.341993</ele>
        <time>2021-11-20T08:00:51.117Z</time>
      </trkpt>
      <trkpt lat="47.544415" lon="8.103199">
        <ele>412.939459</ele>
        <time>2021-11-20T08:01:07.151Z</time>
      </trkpt>
      <trkpt lat="47.544919" lon="8.104043">
        <ele>419.682784</ele>
        <time>2021-11-20T08:01:46.657Z</time>
      </trkpt>
      <trkpt lat="47.545065" lon="8.104367">
        <ele>422.055729</ele>
        <time>2021-11-20T08:02:00.898Z</time>
      </trkpt>
      <trkpt lat="47.545423" lon="8.106082">
        <ele>434.054181</ele>
        <time>2021-11-20T08:03:14.469Z</time>
      </trkpt>
      <trkpt lat="47.545518" lon="8.107226">
        <ele>443.441871</ele>
        <time>2021-11-20T08:04:08.974Z</time>
      </trkpt>
      <trkpt lat="47.545547" lon="8.107728">
        <ele>447.545411</ele>
        <time>2021-11-20T08:04:31.313Z</time>
      </trkpt>
      <trkpt lat="47.545551" lon="8.107799">
        <ele>448.125689</ele>
        <time>2021-11-20T08:04:36.682Z</time>
      </trkpt>
      <trkpt lat="47.545512" lon="8.109419">
        <ele>460.929956</ele>
        <time>2021-11-20T08:05:55.958Z</time>
      </trkpt>
      <trkpt lat="47.545325" lon="8.109906">
        <ele>465.307579</ele>
        <time>2021-11-20T08:06:22.798Z</time>
      </trkpt>
      <trkpt lat="47.545250" lon="8.110536">
        <ele>470.305896</ele>
        <time>2021-11-20T08:06:46.444Z</time>
      </trkpt>
      <trkpt lat="47.545218" lon="8.110683">
        <ele>471.512694</ele>
        <time>2021-11-20T08:06:53.704Z</time>
      </trkpt>
      <trkpt lat="47.545172" lon="8.110829">
        <ele>472.611531</ele>
        <time>2021-11-20T08:07:00.967Z</time>
      </trkpt>
      <trkpt lat="47.544737" lon="8.111813">
        <ele>478.257246</ele>
        <time>2021-11-20T08:07:42.199Z</time>
      </trkpt>
      <trkpt lat="47.544623" lon="8.112471">
        <ele>481.517888</ele>
        <time>2021-11-20T08:08:03.302Z</time>
      </trkpt>
      <trkpt lat="47.544623" lon="8.112669">
        <ele>482.468250</ele>
        <time>2021-11-20T08:08:11.449Z</time>
      </trkpt>
      <trkpt lat="47.544646" lon="8.112743">
        <ele>482.859280</ele>
        <time>2021-11-20T08:08:14.186Z</time>
      </trkpt>
      <trkpt lat="47.544669" lon="8.112802">
        <ele>483.186301</ele>
        <time>2021-11-20T08:08:15.805Z</time>
      </trkpt>
      <trkpt lat="47.544720" lon="8.112827">
        <ele>483.568282</ele>
        <time>2021-11-20T08:08:17.204Z</time>
      </trkpt>
      <trkpt lat="47.544930" lon="8.112757">
        <ele>485.098854</ele>
        <time>2021-11-20T08:08:25.761Z</time>
      </trkpt>
      <trkpt lat="47.545402" lon="8.112171">
        <ele>487.987405</ele>
        <time>2021-11-20T08:08:47.719Z</time>
      </trkpt>
      <trkpt lat="47.545880" lon="8.112015">
        <ele>490.270279</ele>
        <time>2021-11-20T08:09:07.072Z</time>
      </trkpt>
      <trkpt lat="47.546382" lon="8.111534">
        <ele>493.058654</ele>
        <time>2021-11-20T08:09:28.524Z</time>
      </trkpt>
      <trkpt lat="47.546768" lon="8.111251">
        <ele>495.623239</ele>
        <time>2021-11-20T08:09:46.018Z</time>
      </trkpt>
      <trkpt lat="47.547417" lon="8.110419">
        <ele>501.078314</ele>
        <time>2021-11-20T08:10:28.670Z</time>
      </trkpt>
      <trkpt lat="47.547740" lon="8.109862">
        <ele>504.228766</ele>
        <time>2021-11-20T08:10:52.387Z</time>
      </trkpt>
      <trkpt lat="47.547828" lon="8.109723">
        <ele>505.037952</ele>
        <time>2021-11-20T08:10:57.714Z</time>
      </trkpt>
      <trkpt lat="47.548054" lon="8.109451">
        <ele>506.691145</ele>
        <time>2021-11-20T08:11:10.873Z</time>
      </trkpt>
      <trkpt lat="47.548310" lon="8.109338">
        <ele>508.207769</ele>
        <time>2021-11-20T08:11:22.124Z</time>
      </trkpt>
      <trkpt lat="47.548499" lon="8.109362">
        <ele>509.284785</ele>
        <time>2021-11-20T08:11:29.373Z</time>
      </trkpt>
      <trkpt lat="47.548568" lon="8.109396">
        <ele>509.697645</ele>
        <time>2021-11-20T08:11:33.623Z</time>
      </trkpt>
      <trkpt lat="47.548534" lon="8.109612">
        <ele>510.547619</ele>
        <time>2021-11-20T08:11:42.390Z</time>
      </trkpt>
      <trkpt lat="47.548434" lon="8.109656">
        <ele>511.139897</ele>
        <time>2021-11-20T08:11:46.302Z</time>
      </trkpt>
      <trkpt lat="47.548385" lon="8.109716">
        <ele>511.500825</ele>
        <time>2021-11-20T08:11:49.007Z</time>
      </trkpt>
      <trkpt lat="47.548141" lon="8.110019">
        <ele>513.308456</ele>
        <time>2021-11-20T08:12:02.951Z</time>
      </trkpt>
      <trkpt lat="47.548051" lon="8.110153">
        <ele>514.032900</ele>
        <time>2021-11-20T08:12:08.955Z</time>
      </trkpt>
      <trkpt lat="47.547928" lon="8.110557">
        <ele>515.494562</ele>
        <time>2021-11-20T08:12:21.885Z</time>
      </trkpt>
      <trkpt lat="47.547950" lon="8.111046">
        <ele>516.566655</ele>
        <time>2021-11-20T08:12:34.262Z</time>
      </trkpt>
      <trkpt lat="47.547979" lon="8.111255">
        <ele>517.033417</ele>
        <time>2021-11-20T08:12:39.788Z</time>
      </trkpt>
      <trkpt lat="47.547927" lon="8.111402">
        <ele>517.396475</ele>
        <time>2021-11-20T08:12:43.051Z</time>
      </trkpt>
      <trkpt lat="47.547830" lon="8.111764">
        <ele>518.248493</ele>
        <time>2021-11-20T08:12:51.039Z</time>
      </trkpt>
      <trkpt lat="47.547780" lon="8.111967">
        <ele>518.721213</ele>
        <time>2021-11-20T08:12:55.969Z</time>
      </trkpt>
      <trkpt lat="47.547768" lon="8.112017">
        <ele>518.837300</ele>
        <time>2021-11-20T08:12:57.626Z</time>
      </trkpt>
      <trkpt lat="47.547722" lon="8.112390">
        <ele>519.666773</ele>
        <time>2021-11-20T08:13:04.517Z</time>
      </trkpt>
      <trkpt lat="47.547718" lon="8.112483">
        <ele>519.870630</ele>
        <time>2021-11-20T08:13:06.967Z</time>
      </trkpt>
      <trkpt lat="47.547707" lon="8.112811">
        <ele>520.589039</ele>
        <time>2021-11-20T08:13:13.943Z</time>
      </trkpt>
      <trkpt lat="47.547696" lon="8.112851">
        <ele>520.683526</ele>
        <time>2021-11-20T08:13:14.510Z</time>
      </trkpt>
      <trkpt lat="47.547654" lon="8.113053">
        <ele>520.971448</ele>
        <time>2021-11-20T08:13:19.300Z</time>
      </trkpt>
      <trkpt lat="47.547133" lon="8.114285">
        <ele>520.100350</ele>
        <time>2021-11-20T08:13:40.607Z</time>
      </trkpt>
      <trkpt lat="47.547023" lon="8.114647">
        <ele>519.862481</ele>
        <time>2021-11-20T08:13:45.168Z</time>
      </trkpt>
      <trkpt lat="47.546775" lon="8.116163">
        <ele>516.699368</ele>
        <time>2021-11-20T08:13:59.866Z</time>
      </trkpt>
      <trkpt lat="47.546660" lon="8.117289">
        <ele>512.878418</ele>
        <time>2021-11-20T08:14:10.227Z</time>
      </trkpt>
      <trkpt lat="47.546029" lon="8.119239">
        <ele>504.852042</ele>
        <time>2021-11-20T08:14:29.404Z</time>
      </trkpt>
      <trkpt lat="47.545660" lon="8.120605">
        <ele>499.247985</ele>
        <time>2021-11-20T08:14:42.586Z</time>
      </trkpt>
      <trkpt lat="47.545599" lon="8.120815">
        <ele>498.465439</ele>
        <time>2021-11-20T08:14:44.554Z</time>
      </trkpt>
      <trkpt lat="47.545552" lon="8.120757">
        <ele>498.155249</ele>
        <time>2021-11-20T08:14:45.451Z</time>
      </trkpt>
      <trkpt lat="47.545493" lon="8.120704">
        <ele>497.805357</ele>
        <time>2021-11-20T08:14:46.417Z</time>
      </trkpt>
      <trkpt lat="47.545343" lon="8.120625">
        <ele>496.998075</ele>
        <time>2021-11-20T08:14:48.541Z</time>
      </trkpt>
      <trkpt lat="47.545226" lon="8.120573">
        <ele>496.378647</ele>
        <time>2021-11-20T08:14:50.165Z</time>
      </trkpt>
      <trkpt lat="47.544644" lon="8.120315">
        <ele>493.298043</ele>
        <time>2021-11-20T08:14:58.402Z</time>
      </trkpt>
      <trkpt lat="47.544444" lon="8.120306">
        <ele>492.283381</ele>
        <time>2021-11-20T08:15:01.153Z</time>
      </trkpt>
      <trkpt lat="47.544195" lon="8.120445">
        <ele>490.942858</ele>
        <time>2021-11-20T08:15:04.726Z</time>
      </trkpt>
      <trkpt lat="47.543797" lon="8.120870">
        <ele>488.852828</ele>
        <time>2021-11-20T08:15:11.542Z</time>
      </trkpt>
      <trkpt lat="47.543667" lon="8.120893">
        <ele>488.295095</ele>
        <time>2021-11-20T08:15:13.328Z</time>
      </trkpt>
      <trkpt lat="47.543249" lon="8.120753">
        <ele>486.469479</ele>
        <time>2021-11-20T08:15:19.224Z</time>
      </trkpt>
      <trkpt lat="47.542862" lon="8.120539">
        <ele>484.709754</ele>
        <time>2021-11-20T08:15:25.002Z</time>
      </trkpt>
      <trkpt lat="47.542556" lon="8.120380">
        <ele>483.328336</ele>
        <time>2021-11-20T08:15:29.558Z</time>
      </trkpt>
      <trkpt lat="47.542397" lon="8.120269">
        <ele>482.823425</ele>
        <time>2021-11-20T08:15:32.074Z</time>
      </trkpt>
      <trkpt lat="47.542112" lon="8.120175">
        <ele>481.985428</ele>
        <time>2021-11-20T08:15:36.233Z</time>
      </trkpt>
      <trkpt lat="47.541299" lon="8.119897">
        <ele>479.590709</ele>
        <time>2021-11-20T08:15:48.459Z</time>
      </trkpt>
      <trkpt lat="47.540798" lon="8.119697">
        <ele>478.146447</ele>
        <time>2021-11-20T08:15:56.667Z</time>
      </trkpt>
      <trkpt lat="47.540140" lon="8.119357">
        <ele>477.566978</ele>
        <time>2021-11-20T08:16:08.567Z</time>
      </trkpt>
      <trkpt lat="47.539737" lon="8.119119">
        <ele>477.206227</ele>
        <time>2021-11-20T08:16:16.212Z</time>
      </trkpt>
      <trkpt lat="47.539622" lon="8.119051">
        <ele>477.103265</ele>
        <time>2021-11-20T08:16:18.598Z</time>
      </trkpt>
      <trkpt lat="47.538656" lon="8.118654">
        <ele>476.405309</ele>
        <time>2021-11-20T08:16:38.571Z</time>
      </trkpt>
      <trkpt lat="47.537405" lon="8.118469">
        <ele>475.714827</ele>
        <time>2021-11-20T08:17:04.496Z</time>
      </trkpt>
      <trkpt lat="47.536803" lon="8.118426">
        <ele>472.915652</ele>
        <time>2021-11-20T08:17:13.029Z</time>
      </trkpt>
      <trkpt lat="47.536450" lon="8.118473">
        <ele>471.106183</ele>
        <time>2021-11-20T08:17:17.865Z</time>
      </trkpt>
      <trkpt lat="47.536293" lon="8.118486">
        <ele>470.303385</ele>
        <time>2021-11-20T08:17:20.039Z</time>
      </trkpt>
      <trkpt lat="47.536158" lon="8.118503">
        <ele>469.611671</ele>
        <time>2021-11-20T08:17:21.820Z</time>
      </trkpt>
      <trkpt lat="47.536161" lon="8.118622">
        <ele>469.201219</ele>
        <time>2021-11-20T08:17:22.822Z</time>
      </trkpt>
      <trkpt lat="47.536174" lon="8.118698">
        <ele>468.930987</ele>
        <time>2021-11-20T08:17:23.566Z</time>
      </trkpt>
      <trkpt lat="47.536202" lon="8.118815">
        <ele>468.503128</ele>
        <time>2021-11-20T08:17:24.665Z</time>
      </trkpt>
      <trkpt lat="47.536288" lon="8.119124">
        <ele>467.351124</ele>
        <time>2021-11-20T08:17:27.506Z</time>
      </trkpt>
      <trkpt lat="47.536488" lon="8.119568">
        <ele>464.745760</ele>
        <time>2021-11-20T08:17:32.034Z</time>
      </trkpt>
      <trkpt lat="47.536908" lon="8.120043">
        <ele>459.955519</ele>
        <time>2021-11-20T08:17:38.605Z</time>
      </trkpt>
      <trkpt lat="47.537093" lon="8.120151">
        <ele>458.152931</ele>
        <time>2021-11-20T08:17:41.009Z</time>
      </trkpt>
      <trkpt lat="47.537744" lon="8.120294">
        <ele>452.187030</ele>
        <time>2021-11-20T08:17:49.099Z</time>
      </trkpt>
      <trkpt lat="47.538213" lon="8.121177">
        <ele>445.324772</ele>
        <time>2021-11-20T08:17:58.402Z</time>
      </trkpt>
      <trkpt lat="47.538673" lon="8.121609">
        <ele>440.401089</ele>
        <time>2021-11-20T08:18:05.179Z</time>
      </trkpt>
      <trkpt lat="47.538759" lon="8.121738">
        <ele>439.294664</ele>
        <time>2021-11-20T08:18:06.668Z</time>
      </trkpt>
      <trkpt lat="47.538882" lon="8.122037">
        <ele>437.157851</ele>
        <time>2021-11-20T08:18:09.680Z</time>
      </trkpt>
      <trkpt lat="47.539299" lon="8.123012">
        <ele>430.744688</ele>
        <time>2021-11-20T08:18:19.271Z</time>
      </trkpt>
      <trkpt lat="47.539607" lon="8.124056">
        <ele>424.939453</ele>
        <time>2021-11-20T08:18:28.914Z</time>
      </trkpt>
      <trkpt lat="47.539695" lon="8.124266">
        <ele>423.680066</ele>
        <time>2021-11-20T08:18:31.100Z</time>
      </trkpt>
      <trkpt lat="47.539814" lon="8.124463">
        <ele>422.333127</ele>
        <time>2021-11-20T08:18:33.457Z</time>
      </trkpt>
      <trkpt lat="47.540400" lon="8.125305">
        <ele>417.274844</ele>
        <time>2021-11-20T08:18:44.332Z</time>
      </trkpt>
      <trkpt lat="47.540664" lon="8.125536">
        <ele>415.570500</ele>
        <time>2021-11-20T08:18:48.389Z</time>
      </trkpt>
      <trkpt lat="47.540686" lon="8.125570">
        <ele>415.393776</ele>
        <time>2021-11-20T08:18:48.791Z</time>
      </trkpt>
      <trkpt lat="47.540800" lon="8.125754">
        <ele>414.456625</ele>
        <time>2021-11-20T08:18:50.993Z</time>
      </trkpt>
      <trkpt lat="47.540882" lon="8.126176">
        <ele>412.808824</ele>
        <time>2021-11-20T08:18:55.023Z</time>
      </trkpt>
      <trkpt lat="47.540899" lon="8.126837">
        <ele>410.326442</ele>
        <time>2021-11-20T08:19:01.015Z</time>
      </trkpt>
      <trkpt lat="47.540893" lon="8.127017">
        <ele>409.645056</ele>
        <time>2021-11-20T08:19:02.677Z</time>
      </trkpt>
      <trkpt lat="47.540987" lon="8.127386">
        <ele>408.153885</ele>
        <time>2021-11-20T08:19:06.175Z</time>
      </trkpt>
      <trkpt lat="47.541228" lon="8.128089">
        <ele>405.172849</ele>
        <time>2021-11-20T08:19:13.202Z</time>
      </trkpt>
      <trkpt lat="47.541352" lon="8.128420">
        <ele>403.741599</ele>
        <time>2021-11-20T08:19:16.495Z</time>
      </trkpt>
      <trkpt lat="47.541394" lon="8.128512">
        <ele>403.321689</ele>
        <time>2021-11-20T08:19:17.506Z</time>
      </trkpt>
      <trkpt lat="47.542025" lon="8.130249">
        <ele>396.700917</ele>
        <time>2021-11-20T08:19:35.362Z</time>
      </trkpt>
      <trkpt lat="47.542446" lon="8.131364">
        <ele>392.784787</ele>
        <time>2021-11-20T08:19:47.369Z</time>
      </trkpt>
      <trkpt lat="47.542585" lon="8.131744">
        <ele>391.647207</ele>
        <time>2021-11-20T08:19:51.524Z</time>
      </trkpt>
      <trkpt lat="47.542759" lon="8.132117">
        <ele>390.651932</ele>
        <time>2021-11-20T08:19:55.988Z</time>
      </trkpt>
      <trkpt lat="47.542820" lon="8.132240">
        <ele>390.316896</ele>
        <time>2021-11-20T08:19:57.525Z</time>
      </trkpt>
      <trkpt lat="47.542923" lon="8.132422">
        <ele>389.795553</ele>
        <time>2021-11-20T08:19:59.903Z</time>
      </trkpt>
      <trkpt lat="47.543205" lon="8.132907">
        <ele>388.390424</ele>
        <time>2021-11-20T08:20:06.311Z</time>
      </trkpt>
      <trkpt lat="47.543258" lon="8.132977">
        <ele>388.159523</ele>
        <time>2021-11-20T08:20:07.333Z</time>
      </trkpt>
      <trkpt lat="47.543327" lon="8.133043">
        <ele>387.892436</ele>
        <time>2021-11-20T08:20:08.513Z</time>
      </trkpt>
      <trkpt lat="47.543232" lon="8.133457">
        <ele>386.932585</ele>
        <time>2021-11-20T08:20:12.732Z</time>
      </trkpt>
      <trkpt lat="47.543188" lon="8.133671">
        <ele>386.441522</ele>
        <time>2021-11-20T08:20:14.952Z</time>
      </trkpt>
      <trkpt lat="47.543186" lon="8.133718">
        <ele>386.338146</ele>
        <time>2021-11-20T08:20:15.390Z</time>
      </trkpt>
      <trkpt lat="47.543220" lon="8.133852">
        <ele>386.078005</ele>
        <time>2021-11-20T08:20:16.785Z</time>
      </trkpt>
      <trkpt lat="47.543321" lon="8.133795">
        <ele>385.803600</ele>
        <time>2021-11-20T08:20:17.848Z</time>
      </trkpt>
      <trkpt lat="47.543505" lon="8.133721">
        <ele>385.319537</ele>
        <time>2021-11-20T08:20:19.834Z</time>
      </trkpt>
      <trkpt lat="47.543619" lon="8.133664">
        <ele>385.014064</ele>
        <time>2021-11-20T08:20:21.070Z</time>
      </trkpt>
      <trkpt lat="47.543708" lon="8.133619">
        <ele>384.775304</ele>
        <time>2021-11-20T08:20:22.085Z</time>
      </trkpt>
      <trkpt lat="47.543845" lon="8.133524">
        <ele>384.391258</ele>
        <time>2021-11-20T08:20:23.803Z</time>
      </trkpt>
      <trkpt lat="47.544105" lon="8.133316">
        <ele>383.641047</ele>
        <time>2021-11-20T08:20:26.990Z</time>
      </trkpt>
      <trkpt lat="47.544222" lon="8.133222">
        <ele>383.303126</ele>
        <time>2021-11-20T08:20:28.433Z</time>
      </trkpt>
      <trkpt lat="47.544453" lon="8.133038">
        <ele>382.637244</ele>
        <time>2021-11-20T08:20:31.336Z</time>
      </trkpt>
      <trkpt lat="47.544650" lon="8.132899">
        <ele>382.083252</ele>
        <time>2021-11-20T08:20:33.586Z</time>
      </trkpt>
      <trkpt lat="47.544810" lon="8.132765">
        <ele>381.601882</ele>
        <time>2021-11-20T08:20:35.627Z</time>
      </trkpt>
      <trkpt lat="47.545059" lon="8.132589">
        <ele>380.783503</ele>
        <time>2021-11-20T08:20:38.518Z</time>
      </trkpt>
      <trkpt lat="47.545184" lon="8.132503">
        <ele>380.374677</ele>
        <time>2021-11-20T08:20:39.933Z</time>
      </trkpt>
      <trkpt lat="47.545331" lon="8.132442">
        <ele>379.921843</ele>
        <time>2021-11-20T08:20:41.493Z</time>
      </trkpt>
      <trkpt lat="47.545734" lon="8.132329">
        <ele>378.705188</ele>
        <time>2021-11-20T08:20:45.723Z</time>
      </trkpt>
      <trkpt lat="47.545962" lon="8.132304">
        <ele>378.027015</ele>
        <time>2021-11-20T08:20:48.033Z</time>
      </trkpt>
      <trkpt lat="47.546023" lon="8.132300">
        <ele>377.845891</ele>
        <time>2021-11-20T08:20:48.636Z</time>
      </trkpt>
      <trkpt lat="47.546602" lon="8.132235">
        <ele>376.142858</ele>
        <time>2021-11-20T08:20:54.523Z</time>
      </trkpt>
      <trkpt lat="47.546938" lon="8.132181">
        <ele>375.219607</ele>
        <time>2021-11-20T08:20:57.896Z</time>
      </trkpt>
      <trkpt lat="47.547951" lon="8.132055">
        <ele>372.442616</ele>
        <time>2021-11-20T08:21:08.384Z</time>
      </trkpt>
      <trkpt lat="47.548544" lon="8.131974">
        <ele>371.175541</ele>
        <time>2021-11-20T08:21:14.948Z</time>
      </trkpt>
      <trkpt lat="47.549752" lon="8.131786">
        <ele>369.723942</ele>
        <time>2021-11-20T08:21:29.597Z</time>
      </trkpt>
      <trkpt lat="47.550488" lon="8.131671">
        <ele>368.877584</ele>
        <time>2021-11-20T08:21:39.185Z</time>
      </trkpt>
      <trkpt lat="47.550614" lon="8.131652">
        <ele>368.738593</ele>
        <time>2021-11-20T08:21:41.040Z</time>
      </trkpt>
      <trkpt lat="47.550712" lon="8.131637">
        <ele>368.630472</ele>
        <time>2021-11-20T08:21:42.176Z</time>
      </trkpt>
      <trkpt lat="47.551029" lon="8.131586">
        <ele>368.280541</ele>
        <time>2021-11-20T08:21:46.200Z</time>
      </trkpt>
      <trkpt lat="47.551383" lon="8.131531">
        <ele>367.889919</ele>
        <time>2021-11-20T08:21:50.342Z</time>
      </trkpt>
      <trkpt lat="47.551749" lon="8.131479">
        <ele>367.486416</ele>
        <time>2021-11-20T08:21:54.619Z</time>
      </trkpt>
      <trkpt lat="47.551784" lon="8.131474">
        <ele>367.447827</ele>
        <time>2021-11-20T08:21:54.965Z</time>
      </trkpt>
      <trkpt lat="47.551873" lon="8.131469">
        <ele>367.350085</ele>
        <time>2021-11-20T08:21:55.984Z</time>
      </trkpt>
      <trkpt lat="47.552293" lon="8.131579">
        <ele>366.620345</ele>
        <time>2021-11-20T08:22:01.009Z</time>
      </trkpt>
      <trkpt lat="47.552326" lon="8.131597">
        <ele>366.559306</ele>
        <time>2021-11-20T08:22:01.322Z</time>
      </trkpt>
      <trkpt lat="47.552402" lon="8.131645">
        <ele>366.415902</ele>
        <time>2021-11-20T08:22:02.324Z</time>
      </trkpt>
      <trkpt lat="47.552493" lon="8.131722">
        <ele>366.234003</ele>
        <time>2021-11-20T08:22:03.481Z</time>
      </trkpt>
      <trkpt lat="47.552602" lon="8.131831">
        <ele>366.005744</ele>
        <time>2021-11-20T08:22:04.992Z</time>
      </trkpt>
      <trkpt lat="47.553483" lon="8.132756">
        <ele>364.129100</ele>
        <time>2021-11-20T08:22:17.048Z</time>
      </trkpt>
      <trkpt lat="47.553541" lon="8.132821">
        <ele>363.998993</ele>
        <time>2021-11-20T08:22:17.744Z</time>
      </trkpt>
      <trkpt lat="47.553641" lon="8.132928">
        <ele>363.778308</ele>
        <time>2021-11-20T08:22:19.275Z</time>
      </trkpt>
      <trkpt lat="47.553708" lon="8.133003">
        <ele>363.628074</ele>
        <time>2021-11-20T08:22:20.353Z</time>
      </trkpt>
      <trkpt lat="47.553759" lon="8.133056">
        <ele>363.516624</ele>
        <time>2021-11-20T08:22:21.085Z</time>
      </trkpt>
      <trkpt lat="47.553847" lon="8.133128">
        <ele>363.336774</ele>
        <time>2021-11-20T08:22:22.171Z</time>
      </trkpt>
      <trkpt lat="47.554071" lon="8.133239">
        <ele>362.914195</ele>
        <time>2021-11-20T08:22:24.929Z</time>
      </trkpt>
      <trkpt lat="47.554467" lon="8.133300">
        <ele>362.201888</ele>
        <time>2021-11-20T08:22:29.479Z</time>
      </trkpt>
      <trkpt lat="47.554619" lon="8.133314">
        <ele>361.929417</ele>
        <time>2021-11-20T08:22:31.083Z</time>
      </trkpt>
      <trkpt lat="47.554855" lon="8.133333">
        <ele>361.506564</ele>
        <time>2021-11-20T08:22:33.721Z</time>
      </trkpt>
      <trkpt lat="47.555303" lon="8.133375">
        <ele>360.630572</ele>
        <time>2021-11-20T08:22:38.654Z</time>
      </trkpt>
      <trkpt lat="47.555444" lon="8.133390">
        <ele>360.313762</ele>
        <time>2021-11-20T08:22:40.160Z</time>
      </trkpt>
      <trkpt lat="47.555690" lon="8.133401">
        <ele>359.762197</ele>
        <time>2021-11-20T08:22:42.915Z</time>
      </trkpt>
      <trkpt lat="47.555896" lon="8.133399">
        <ele>359.300519</ele>
        <time>2021-11-20T08:22:45.157Z</time>
      </trkpt>
      <trkpt lat="47.556093" lon="8.133383">
        <ele>358.858357</ele>
        <time>2021-11-20T08:22:47.286Z</time>
      </trkpt>
      <trkpt lat="47.556204" lon="8.133369">
        <ele>358.608694</ele>
        <time>2021-11-20T08:22:48.455Z</time>
      </trkpt>
      <trkpt lat="47.556513" lon="8.133340">
        <ele>357.914803</ele>
        <time>2021-11-20T08:22:51.765Z</time>
      </trkpt>
      <trkpt lat="47.557021" lon="8.133293">
        <ele>356.784867</ele>
        <time>2021-11-20T08:22:57.131Z</time>
      </trkpt>
      <trkpt lat="47.557237" lon="8.133273">
        <ele>356.327795</ele>
        <time>2021-11-20T08:22:59.422Z</time>
      </trkpt>
      <trkpt lat="47.557846" lon="8.133209">
        <ele>355.038385</ele>
        <time>2021-11-20T08:23:06.039Z</time>
      </trkpt>
      <trkpt lat="47.558277" lon="8.133165">
        <ele>354.125976</ele>
        <time>2021-11-20T08:23:10.654Z</time>
      </trkpt>
      <trkpt lat="47.558609" lon="8.133121">
        <ele>353.422009</ele>
        <time>2021-11-20T08:23:14.310Z</time>
      </trkpt>
      <trkpt lat="47.559286" lon="8.133042">
        <ele>353.102733</ele>
        <time>2021-11-20T08:23:22.277Z</time>
      </trkpt>
      <trkpt lat="47.559423" lon="8.133034">
        <ele>353.088059</ele>
        <time>2021-11-20T08:23:23.906Z</time>
      </trkpt>
      <trkpt lat="47.559553" lon="8.133012">
        <ele>353.074055</ele>
        <time>2021-11-20T08:23:28.357Z</time>
      </trkpt>
      <trkpt lat="47.559972" lon="8.132981">
        <ele>353.029155</ele>
        <time>2021-11-20T08:23:43.894Z</time>
      </trkpt>
      <trkpt lat="47.560046" lon="8.132973">
        <ele>353.021214</ele>
        <time>2021-11-20T08:23:46.399Z</time>
      </trkpt>
      <trkpt lat="47.560143" lon="8.132963">
        <ele>353.010807</ele>
        <time>2021-11-20T08:23:47.715Z</time>
      </trkpt>
      <trkpt lat="47.560243" lon="8.132948">
        <ele>353.000050</ele>
        <time>2021-11-20T08:23:49.206Z</time>
      </trkpt>
      <trkpt lat="47.560335" lon="8.132935">
        <ele>352.990159</ele>
        <time>2021-11-20T08:23:51.982Z</time>
      </trkpt>
      <trkpt lat="47.560777" lon="8.132722">
        <ele>354.147448</ele>
        <time>2021-11-20T08:24:02.425Z</time>
      </trkpt>
      <trkpt lat="47.560827" lon="8.132679">
        <ele>354.395857</ele>
        <time>2021-11-20T08:24:03.981Z</time>
      </trkpt>
      <trkpt lat="47.560889" lon="8.132614">
        <ele>354.722200</ele>
        <time>2021-11-20T08:24:05.779Z</time>
      </trkpt>
      <trkpt lat="47.561056" lon="8.132422">
        <ele>355.630440</ele>
        <time>2021-11-20T08:24:13.208Z</time>
      </trkpt>
      <trkpt lat="47.561161" lon="8.132610">
        <ele>356.338067</ele>
        <time>2021-11-20T08:24:17.611Z</time>
      </trkpt>
      <trkpt lat="47.561195" lon="8.132668">
        <ele>356.560843</ele>
        <time>2021-11-20T08:24:20.743Z</time>
      </trkpt>
      <trkpt lat="47.561623" lon="8.133432">
        <ele>359.440069</ele>
        <time>2021-11-20T08:24:43.336Z</time>
      </trkpt>
      <trkpt lat="47.561664" lon="8.133579">
        <ele>359.901285</ele>
        <time>2021-11-20T08:24:48.706Z</time>
      </trkpt>
      <trkpt lat="47.561698" lon="8.133720">
        <ele>360.335449</ele>
        <time>2021-11-20T08:24:52.170Z</time>
      </trkpt>
      <trkpt lat="47.561725" lon="8.133913">
        <ele>360.892873</ele>
        <time>2021-11-20T08:24:57.129Z</time>
      </trkpt>
      <trkpt lat="47.561720" lon="8.135210">
        <ele>364.399332</ele>
        <time>2021-11-20T08:25:30.162Z</time>
      </trkpt>
      <trkpt lat="47.561711" lon="8.135438">
        <ele>365.016777</ele>
        <time>2021-11-20T08:25:35.197Z</time>
      </trkpt>
      <trkpt lat="47.561699" lon="8.135702">
        <ele>365.732112</ele>
        <time>2021-11-20T08:25:40.962Z</time>
      </trkpt>
      <trkpt lat="47.561695" lon="8.135815">
        <ele>366.038024</ele>
        <time>2021-11-20T08:25:42.907Z</time>
      </trkpt>
      <trkpt lat="47.561673" lon="8.136111">
        <ele>366.843091</ele>
        <time>2021-11-20T08:25:47.999Z</time>
      </trkpt>
      <trkpt lat="47.561651" lon="8.136422">
        <ele>367.688479</ele>
        <time>2021-11-20T08:25:51.497Z</time>
      </trkpt>
      <trkpt lat="47.561604" lon="8.136996">
        <ele>367.695636</ele>
        <time>2021-11-20T08:25:57.769Z</time>
      </trkpt>
      <trkpt lat="47.561574" lon="8.137322">
        <ele>367.557703</ele>
        <time>2021-11-20T08:26:01.083Z</time>
      </trkpt>
      <trkpt lat="47.561548" lon="8.137622">
        <ele>367.430903</ele>
        <time>2021-11-20T08:26:04.029Z</time>
      </trkpt>
      <trkpt lat="47.561531" lon="8.137825">
        <ele>367.345147</ele>
        <time>2021-11-20T08:26:06.004Z</time>
      </trkpt>
      <trkpt lat="47.561520" lon="8.138020">
        <ele>367.263113</ele>
        <time>2021-11-20T08:26:07.501Z</time>
      </trkpt>
      <trkpt lat="47.561504" lon="8.138613">
        <ele>367.014314</ele>
        <time>2021-11-20T08:26:12.005Z</time>
      </trkpt>
      <trkpt lat="47.561507" lon="8.138771">
        <ele>366.948050</ele>
        <time>2021-11-20T08:26:13.244Z</time>
      </trkpt>
      <trkpt lat="47.561660" lon="8.140164">
        <ele>366.419718</ele>
        <time>2021-11-20T08:26:23.841Z</time>
      </trkpt>
      <trkpt lat="47.561574" lon="8.141379">
        <ele>365.982872</ele>
        <time>2021-11-20T08:26:35.818Z</time>
      </trkpt>
      <trkpt lat="47.561563" lon="8.141574">
        <ele>365.912900</ele>
        <time>2021-11-20T08:26:37.902Z</time>
      </trkpt>
      <trkpt lat="47.561548" lon="8.141908">
        <ele>365.958684</ele>
        <time>2021-11-20T08:26:42.059Z</time>
      </trkpt>
      <trkpt lat="47.561542" lon="8.142165">
        <ele>366.239840</ele>
        <time>2021-11-20T08:26:45.059Z</time>
      </trkpt>
      <trkpt lat="47.561548" lon="8.142491">
        <ele>366.596401</ele>
        <time>2021-11-20T08:26:49.790Z</time>
      </trkpt>
      <trkpt lat="47.561569" lon="8.142863">
        <ele>367.004543</ele>
        <time>2021-11-20T08:26:55.088Z</time>
      </trkpt>
      <trkpt lat="47.561629" lon="8.143405">
        <ele>367.605053</ele>
        <time>2021-11-20T08:27:03.545Z</time>
      </trkpt>
      <trkpt lat="47.561693" lon="8.143892">
        <ele>368.147510</ele>
        <time>2021-11-20T08:27:11.172Z</time>
      </trkpt>
      <trkpt lat="47.561737" lon="8.144240">
        <ele>368.534612</ele>
        <time>2021-11-20T08:27:16.639Z</time>
      </trkpt>
      <trkpt lat="47.561764" lon="8.144413">
        <ele>368.728752</ele>
        <time>2021-11-20T08:27:19.631Z</time>
      </trkpt>
      <trkpt lat="47.561830" lon="8.144934">
        <ele>369.234849</ele>
        <time>2021-11-20T08:27:28.097Z</time>
      </trkpt>
      <trkpt lat="47.561843" lon="8.145077">
        <ele>369.371912</ele>
        <time>2021-11-20T08:27:30.358Z</time>
      </trkpt>
      <trkpt lat="47.561847" lon="8.145230">
        <ele>369.517355</ele>
        <time>2021-11-20T08:27:32.712Z</time>
      </trkpt>
      <trkpt lat="47.561842" lon="8.145448">
        <ele>369.724552</ele>
        <time>2021-11-20T08:27:36.054Z</time>
      </trkpt>
      <trkpt lat="47.561827" lon="8.145709">
        <ele>369.973373</ele>
        <time>2021-11-20T08:27:39.766Z</time>
      </trkpt>
      <trkpt lat="47.561811" lon="8.145912">
        <ele>370.167513</ele>
        <time>2021-11-20T08:27:42.407Z</time>
      </trkpt>
      <trkpt lat="47.561789" lon="8.146405">
        <ele>370.636836</ele>
        <time>2021-11-20T08:27:48.647Z</time>
      </trkpt>
      <trkpt lat="47.561783" lon="8.146574">
        <ele>370.797591</ele>
        <time>2021-11-20T08:27:50.846Z</time>
      </trkpt>
      <trkpt lat="47.561759" lon="8.147209">
        <ele>371.338224</ele>
        <time>2021-11-20T08:27:58.408Z</time>
      </trkpt>
      <trkpt lat="47.561778" lon="8.147534">
        <ele>371.486247</ele>
        <time>2021-11-20T08:28:02.227Z</time>
      </trkpt>
      <trkpt lat="47.561781" lon="8.147568">
        <ele>371.501806</ele>
        <time>2021-11-20T08:28:02.655Z</time>
      </trkpt>
      <trkpt lat="47.561822" lon="8.147813">
        <ele>371.616344</ele>
        <time>2021-11-20T08:28:05.318Z</time>
      </trkpt>
      <trkpt lat="47.561833" lon="8.147845">
        <ele>371.632639</ele>
        <time>2021-11-20T08:28:05.633Z</time>
      </trkpt>
      <trkpt lat="47.561913" lon="8.148081">
        <ele>371.752478</ele>
        <time>2021-11-20T08:28:08.567Z</time>
      </trkpt>
      <trkpt lat="47.561978" lon="8.148254">
        <ele>371.842325</ele>
        <time>2021-11-20T08:28:10.608Z</time>
      </trkpt>
      <trkpt lat="47.562009" lon="8.148365">
        <ele>371.896835</ele>
        <time>2021-11-20T08:28:11.953Z</time>
      </trkpt>
      <trkpt lat="47.562009" lon="8.148597">
        <ele>372.002106</ele>
        <time>2021-11-20T08:28:14.793Z</time>
      </trkpt>
      <trkpt lat="47.561998" lon="8.148673">
        <ele>372.037376</ele>
        <time>2021-11-20T08:28:15.543Z</time>
      </trkpt>
      <trkpt lat="47.561980" lon="8.148763">
        <ele>372.079969</ele>
        <time>2021-11-20T08:28:17.979Z</time>
      </trkpt>
      <trkpt lat="47.561943" lon="8.148889">
        <ele>372.142321</ele>
        <time>2021-11-20T08:28:21.575Z</time>
      </trkpt>
      <trkpt lat="47.561915" lon="8.148980">
        <ele>372.187703</ele>
        <time>2021-11-20T08:28:24.410Z</time>
      </trkpt>
      <trkpt lat="47.561767" lon="8.149503">
        <ele>372.445039</ele>
        <time>2021-11-20T08:28:39.847Z</time>
      </trkpt>
      <trkpt lat="47.561728" lon="8.149653">
        <ele>372.583602</ele>
        <time>2021-11-20T08:28:44.232Z</time>
      </trkpt>
      <trkpt lat="47.561555" lon="8.150316">
        <ele>373.652504</ele>
        <time>2021-11-20T08:29:04.552Z</time>
      </trkpt>
      <trkpt lat="47.561512" lon="8.150470">
        <ele>373.903117</ele>
        <time>2021-11-20T08:29:09.734Z</time>
      </trkpt>
      <trkpt lat="47.561471" lon="8.150574">
        <ele>374.084237</ele>
        <time>2021-11-20T08:29:13.149Z</time>
      </trkpt>
      <trkpt lat="47.561352" lon="8.150768">
        <ele>374.478472</ele>
        <time>2021-11-20T08:29:21.337Z</time>
      </trkpt>
      <trkpt lat="47.561257" lon="8.150909">
        <ele>374.778089</ele>
        <time>2021-11-20T08:29:27.576Z</time>
      </trkpt>
      <trkpt lat="47.561109" lon="8.151163">
        <ele>375.282720</ele>
        <time>2021-11-20T08:29:38.198Z</time>
      </trkpt>
      <trkpt lat="47.561003" lon="8.151403">
        <ele>375.714043</ele>
        <time>2021-11-20T08:29:46.970Z</time>
      </trkpt>
      <trkpt lat="47.560916" lon="8.151600">
        <ele>376.068079</ele>
        <time>2021-11-20T08:29:54.892Z</time>
      </trkpt>
      <trkpt lat="47.560859" lon="8.151728">
        <ele>376.298690</ele>
        <time>2021-11-20T08:30:00.125Z</time>
      </trkpt>
      <trkpt lat="47.560747" lon="8.151985">
        <ele>377.048955</ele>
        <time>2021-11-20T08:30:10.471Z</time>
      </trkpt>
      <trkpt lat="47.560710" lon="8.152072">
        <ele>377.375527</ele>
        <time>2021-11-20T08:30:14.430Z</time>
      </trkpt>
      <trkpt lat="47.560668" lon="8.152171">
        <ele>377.746884</ele>
        <time>2021-11-20T08:30:18.684Z</time>
      </trkpt>
      <trkpt lat="47.560622" lon="8.152294">
        <ele>378.193463</ele>
        <time>2021-11-20T08:30:23.609Z</time>
      </trkpt>
      <trkpt lat="47.560836" lon="8.152486">
        <ele>379.370737</ele>
        <time>2021-11-20T08:30:33.666Z</time>
      </trkpt>
      <trkpt lat="47.561111" lon="8.152733">
        <ele>380.884033</ele>
        <time>2021-11-20T08:30:46.646Z</time>
      </trkpt>
      <trkpt lat="47.561252" lon="8.152858">
        <ele>381.657248</ele>
        <time>2021-11-20T08:30:52.747Z</time>
      </trkpt>
      <trkpt lat="47.561457" lon="8.153044">
        <ele>382.788433</ele>
        <time>2021-11-20T08:31:03.153Z</time>
      </trkpt>
      <trkpt lat="47.561762" lon="8.153301">
        <ele>384.439560</ele>
        <time>2021-11-20T08:31:17.737Z</time>
      </trkpt>
      <trkpt lat="47.561835" lon="8.153371">
        <ele>384.848743</ele>
        <time>2021-11-20T08:31:21.020Z</time>
      </trkpt>
      <trkpt lat="47.561947" lon="8.153511">
        <ele>385.672085</ele>
        <time>2021-11-20T08:31:27.187Z</time>
      </trkpt>
      <trkpt lat="47.561970" lon="8.153627">
        <ele>386.145188</ele>
        <time>2021-11-20T08:31:30.905Z</time>
      </trkpt>
      <trkpt lat="47.561997" lon="8.154372">
        <ele>389.064609</ele>
        <time>2021-11-20T08:31:51.206Z</time>
      </trkpt>
      <trkpt lat="47.562012" lon="8.154800">
        <ele>390.741650</ele>
        <time>2021-11-20T08:32:04.912Z</time>
      </trkpt>
      <trkpt lat="47.561990" lon="8.155137">
        <ele>392.066503</ele>
        <time>2021-11-20T08:32:15.443Z</time>
      </trkpt>
      <trkpt lat="47.561930" lon="8.156090">
        <ele>395.853314</ele>
        <time>2021-11-20T08:32:43.735Z</time>
      </trkpt>
      <trkpt lat="47.561979" lon="8.156520">
        <ele>397.728433</ele>
        <time>2021-11-20T08:32:56.224Z</time>
      </trkpt>
      <trkpt lat="47.562071" lon="8.156772">
        <ele>398.960416</ele>
        <time>2021-11-20T08:33:04.330Z</time>
      </trkpt>
      <trkpt lat="47.562154" lon="8.156983">
        <ele>400.010586</ele>
        <time>2021-11-20T08:33:11.682Z</time>
      </trkpt>
      <trkpt lat="47.562164" lon="8.157389">
        <ele>401.757486</ele>
        <time>2021-11-20T08:33:22.978Z</time>
      </trkpt>
      <trkpt lat="47.561947" lon="8.157917">
        <ele>404.415750</ele>
        <time>2021-11-20T08:33:42.816Z</time>
      </trkpt>
      <trkpt lat="47.561921" lon="8.158206">
        <ele>405.669406</ele>
        <time>2021-11-20T08:33:52.460Z</time>
      </trkpt>
      <trkpt lat="47.562008" lon="8.159070">
        <ele>409.898066</ele>
        <time>2021-11-20T08:34:23.193Z</time>
      </trkpt>
      <trkpt lat="47.562210" lon="8.159656">
        <ele>413.247202</ele>
        <time>2021-11-20T08:34:44.851Z</time>
      </trkpt>
      <trkpt lat="47.562289" lon="8.159788">
        <ele>414.145199</ele>
        <time>2021-11-20T08:34:51.162Z</time>
      </trkpt>
      <trkpt lat="47.562434" lon="8.160072">
        <ele>415.957769</ele>
        <time>2021-11-20T08:35:02.188Z</time>
      </trkpt>
      <trkpt lat="47.562624" lon="8.160801">
        <ele>419.935210</ele>
        <time>2021-11-20T08:35:29.637Z</time>
      </trkpt>
      <trkpt lat="47.562695" lon="8.161170">
        <ele>421.932929</ele>
        <time>2021-11-20T08:35:43.045Z</time>
      </trkpt>
      <trkpt lat="47.562752" lon="8.161415">
        <ele>423.292157</ele>
        <time>2021-11-20T08:35:52.866Z</time>
      </trkpt>
      <trkpt lat="47.563049" lon="8.162174">
        <ele>427.893926</ele>
        <time>2021-11-20T08:36:23.770Z</time>
      </trkpt>
      <trkpt lat="47.563192" lon="8.162491">
        <ele>429.893852</ele>
        <time>2021-11-20T08:36:36.116Z</time>
      </trkpt>
      <trkpt lat="47.563295" lon="8.162696">
        <ele>431.234364</ele>
        <time>2021-11-20T08:36:45.222Z</time>
      </trkpt>
      <trkpt lat="47.563654" lon="8.163273">
        <ele>435.350625</ele>
        <time>2021-11-20T08:37:10.967Z</time>
      </trkpt>
      <trkpt lat="47.564423" lon="8.164078">
        <ele>442.667733</ele>
        <time>2021-11-20T08:38:00.805Z</time>
      </trkpt>
      <trkpt lat="47.564586" lon="8.164339">
        <ele>444.532715</ele>
        <time>2021-11-20T08:38:13.320Z</time>
      </trkpt>
      <trkpt lat="47.564874" lon="8.165016">
        <ele>448.752350</ele>
        <time>2021-11-20T08:38:39.146Z</time>
      </trkpt>
      <trkpt lat="47.564892" lon="8.165085">
        <ele>449.165408</ele>
        <time>2021-11-20T08:38:42.990Z</time>
      </trkpt>
      <trkpt lat="47.564930" lon="8.165227">
        <ele>450.018356</ele>
        <time>2021-11-20T08:38:48.139Z</time>
      </trkpt>
      <trkpt lat="47.565164" lon="8.166208">
        <ele>455.828026</ele>
        <time>2021-11-20T08:39:24.357Z</time>
      </trkpt>
      <trkpt lat="47.565360" lon="8.166598">
        <ele>458.543246</ele>
        <time>2021-11-20T08:39:41.723Z</time>
      </trkpt>
      <trkpt lat="47.566135" lon="8.167074">
        <ele>466.388990</ele>
        <time>2021-11-20T08:40:27.293Z</time>
      </trkpt>
      <trkpt lat="47.566744" lon="8.167659">
        <ele>474.835987</ele>
        <time>2021-11-20T08:41:15.302Z</time>
      </trkpt>
      <trkpt lat="47.567014" lon="8.167999">
        <ele>478.959784</ele>
        <time>2021-11-20T08:41:39.150Z</time>
      </trkpt>
      <trkpt lat="47.567250" lon="8.168420">
        <ele>483.258231</ele>
        <time>2021-11-20T08:42:08.331Z</time>
      </trkpt>
      <trkpt lat="47.567441" lon="8.168765">
        <ele>486.909562</ele>
        <time>2021-11-20T08:42:32.124Z</time>
      </trkpt>
      <trkpt lat="47.567595" lon="8.169037">
        <ele>489.857430</ele>
        <time>2021-11-20T08:42:47.850Z</time>
      </trkpt>
      <trkpt lat="47.567646" lon="8.169354">
        <ele>492.562968</ele>
        <time>2021-11-20T08:43:05.868Z</time>
      </trkpt>
      <trkpt lat="47.567470" lon="8.169899">
        <ele>497.579152</ele>
        <time>2021-11-20T08:43:35.107Z</time>
      </trkpt>
      <trkpt lat="47.567468" lon="8.170052">
        <ele>498.849611</ele>
        <time>2021-11-20T08:43:41.383Z</time>
      </trkpt>
      <trkpt lat="47.567503" lon="8.170146">
        <ele>499.740949</ele>
        <time>2021-11-20T08:43:49.032Z</time>
      </trkpt>
      <trkpt lat="47.567569" lon="8.170223">
        <ele>500.774464</ele>
        <time>2021-11-20T08:43:54.959Z</time>
      </trkpt>
      <trkpt lat="47.567770" lon="8.170215">
        <ele>503.248556</ele>
        <time>2021-11-20T08:44:06.875Z</time>
      </trkpt>
      <trkpt lat="47.568113" lon="8.170041">
        <ele>507.039164</ele>
        <time>2021-11-20T08:44:28.186Z</time>
      </trkpt>
      <trkpt lat="47.568963" lon="8.169790">
        <ele>512.526638</ele>
        <time>2021-11-20T08:45:13.440Z</time>
      </trkpt>
      <trkpt lat="47.569154" lon="8.169757">
        <ele>513.744126</ele>
        <time>2021-11-20T08:45:21.386Z</time>
      </trkpt>
      <trkpt lat="47.569104" lon="8.169420">
        <ele>515.218120</ele>
        <time>2021-11-20T08:45:28.586Z</time>
      </trkpt>
      <trkpt lat="47.569121" lon="8.169300">
        <ele>515.741915</ele>
        <time>2021-11-20T08:45:31.881Z</time>
      </trkpt>
      <trkpt lat="47.569308" lon="8.168880">
        <ele>517.788485</ele>
        <time>2021-11-20T08:45:42.971Z</time>
      </trkpt>
      <trkpt lat="47.569398" lon="8.168517">
        <ele>518.466838</ele>
        <time>2021-11-20T08:45:50.640Z</time>
      </trkpt>
      <trkpt lat="47.569487" lon="8.168034">
        <ele>519.345076</ele>
        <time>2021-11-20T08:46:01.139Z</time>
      </trkpt>
      <trkpt lat="47.569524" lon="8.167941">
        <ele>519.534452</ele>
        <time>2021-11-20T08:46:04.129Z</time>
      </trkpt>
      <trkpt lat="47.569708" lon="8.167575">
        <ele>520.335057</ele>
        <time>2021-11-20T08:46:12.817Z</time>
      </trkpt>
      <trkpt lat="47.569855" lon="8.167393">
        <ele>520.833016</ele>
        <time>2021-11-20T08:46:18.258Z</time>
      </trkpt>
      <trkpt lat="47.570149" lon="8.167162">
        <ele>521.698104</ele>
        <time>2021-11-20T08:46:27.952Z</time>
      </trkpt>
      <trkpt lat="47.570589" lon="8.166957">
        <ele>522.737517</ele>
        <time>2021-11-20T08:46:42.294Z</time>
      </trkpt>
      <trkpt lat="47.570959" lon="8.166863">
        <ele>523.404532</ele>
        <time>2021-11-20T08:46:53.924Z</time>
      </trkpt>
      <trkpt lat="47.571501" lon="8.166874">
        <ele>524.367664</ele>
        <time>2021-11-20T08:47:09.303Z</time>
      </trkpt>
      <trkpt lat="47.571648" lon="8.166925">
        <ele>524.635918</ele>
        <time>2021-11-20T08:47:13.272Z</time>
      </trkpt>
      <trkpt lat="47.571862" lon="8.166968">
        <ele>525.019638</ele>
        <time>2021-11-20T08:47:18.546Z</time>
      </trkpt>
      <trkpt lat="47.572415" lon="8.167117">
        <ele>525.688816</ele>
        <time>2021-11-20T08:47:31.557Z</time>
      </trkpt>
      <trkpt lat="47.572954" lon="8.167110">
        <ele>525.912082</ele>
        <time>2021-11-20T08:47:43.848Z</time>
      </trkpt>
      <trkpt lat="47.573056" lon="8.167138">
        <ele>525.955050</ele>
        <time>2021-11-20T08:47:46.352Z</time>
      </trkpt>
      <trkpt lat="47.573098" lon="8.167145">
        <ele>525.972556</ele>
        <time>2021-11-20T08:47:46.950Z</time>
      </trkpt>
      <trkpt lat="47.574193" lon="8.167763">
        <ele>526.784414</ele>
        <time>2021-11-20T08:48:11.058Z</time>
      </trkpt>
      <trkpt lat="47.575314" lon="8.168053">
        <ele>528.494832</ele>
        <time>2021-11-20T08:48:41.628Z</time>
      </trkpt>
      <trkpt lat="47.575351" lon="8.168039">
        <ele>528.552229</ele>
        <time>2021-11-20T08:48:43.596Z</time>
      </trkpt>
      <trkpt lat="47.575489" lon="8.167983">
        <ele>528.767285</ele>
        <time>2021-11-20T08:48:50.622Z</time>
      </trkpt>
      <trkpt lat="47.576053" lon="8.167541">
        <ele>528.382569</ele>
        <time>2021-11-20T08:49:20.286Z</time>
      </trkpt>
      <trkpt lat="47.576187" lon="8.167447">
        <ele>528.170883</ele>
        <time>2021-11-20T08:49:25.152Z</time>
      </trkpt>
      <trkpt lat="47.576203" lon="8.167494">
        <ele>528.120170</ele>
        <time>2021-11-20T08:49:26.476Z</time>
      </trkpt>
      <trkpt lat="47.576633" lon="8.167736">
        <ele>527.463399</ele>
        <time>2021-11-20T08:49:40.469Z</time>
      </trkpt>
      <trkpt lat="47.576702" lon="8.167801">
        <ele>527.346660</ele>
        <time>2021-11-20T08:49:43.933Z</time>
      </trkpt>
      <trkpt lat="47.576867" lon="8.167936">
        <ele>527.077547</ele>
        <time>2021-11-20T08:49:49.693Z</time>
      </trkpt>
      <trkpt lat="47.577072" lon="8.168073">
        <ele>526.756450</ele>
        <time>2021-11-20T08:49:56.165Z</time>
      </trkpt>
      <trkpt lat="47.577099" lon="8.168078">
        <ele>526.717596</ele>
        <time>2021-11-20T08:49:57.259Z</time>
      </trkpt>
      <trkpt lat="47.577211" lon="8.168020">
        <ele>526.548190</ele>
        <time>2021-11-20T08:50:00.519Z</time>
      </trkpt>
      <trkpt lat="47.577297" lon="8.167960">
        <ele>526.189807</ele>
        <time>2021-11-20T08:50:02.993Z</time>
      </trkpt>
      <trkpt lat="47.577421" lon="8.167885">
        <ele>525.243153</ele>
        <time>2021-11-20T08:50:05.225Z</time>
      </trkpt>
      <trkpt lat="47.577509" lon="8.167869">
        <ele>524.616458</ele>
        <time>2021-11-20T08:50:06.442Z</time>
      </trkpt>
      <trkpt lat="47.577621" lon="8.167865">
        <ele>523.824550</ele>
        <time>2021-11-20T08:50:07.844Z</time>
      </trkpt>
      <trkpt lat="47.578174" lon="8.168184">
        <ele>519.630105</ele>
        <time>2021-11-20T08:50:15.539Z</time>
      </trkpt>
      <trkpt lat="47.578308" lon="8.168344">
        <ele>518.413870</ele>
        <time>2021-11-20T08:50:17.637Z</time>
      </trkpt>
      <trkpt lat="47.578457" lon="8.168636">
        <ele>516.668048</ele>
        <time>2021-11-20T08:50:20.724Z</time>
      </trkpt>
      <trkpt lat="47.578504" lon="8.169078">
        <ele>514.534433</ele>
        <time>2021-11-20T08:50:24.472Z</time>
      </trkpt>
      <trkpt lat="47.578614" lon="8.169154">
        <ele>513.628466</ele>
        <time>2021-11-20T08:50:25.978Z</time>
      </trkpt>
      <trkpt lat="47.578658" lon="8.169156">
        <ele>513.126389</ele>
        <time>2021-11-20T08:50:26.533Z</time>
      </trkpt>
      <trkpt lat="47.578696" lon="8.169133">
        <ele>512.658246</ele>
        <time>2021-11-20T08:50:27.029Z</time>
      </trkpt>
      <trkpt lat="47.578718" lon="8.168699">
        <ele>509.309689</ele>
        <time>2021-11-20T08:50:30.792Z</time>
      </trkpt>
      <trkpt lat="47.578688" lon="8.168353">
        <ele>506.625708</ele>
        <time>2021-11-20T08:50:33.603Z</time>
      </trkpt>
      <trkpt lat="47.578589" lon="8.167949">
        <ele>503.318643</ele>
        <time>2021-11-20T08:50:37.067Z</time>
      </trkpt>
      <trkpt lat="47.578609" lon="8.167720">
        <ele>501.542037</ele>
        <time>2021-11-20T08:50:38.969Z</time>
      </trkpt>
      <trkpt lat="47.578723" lon="8.167460">
        <ele>499.156199</ele>
        <time>2021-11-20T08:50:41.438Z</time>
      </trkpt>
      <trkpt lat="47.579052" lon="8.167196">
        <ele>494.889324</ele>
        <time>2021-11-20T08:50:45.870Z</time>
      </trkpt>
      <trkpt lat="47.579148" lon="8.167183">
        <ele>493.789839</ele>
        <time>2021-11-20T08:50:47.009Z</time>
      </trkpt>
      <trkpt lat="47.579239" lon="8.167209">
        <ele>492.636974</ele>
        <time>2021-11-20T08:50:48.144Z</time>
      </trkpt>
      <trkpt lat="47.579277" lon="8.167220">
        <ele>492.112011</ele>
        <time>2021-11-20T08:50:48.598Z</time>
      </trkpt>
      <trkpt lat="47.580353" lon="8.168476">
        <ele>473.542943</ele>
        <time>2021-11-20T08:51:04.784Z</time>
      </trkpt>
      <trkpt lat="47.580740" lon="8.169048">
        <ele>466.174565</ele>
        <time>2021-11-20T08:51:11.181Z</time>
      </trkpt>
      <trkpt lat="47.580882" lon="8.169585">
        <ele>460.979250</ele>
        <time>2021-11-20T08:51:15.784Z</time>
      </trkpt>
      <trkpt lat="47.581001" lon="8.170162">
        <ele>455.544543</ele>
        <time>2021-11-20T08:51:20.610Z</time>
      </trkpt>
      <trkpt lat="47.581053" lon="8.170349">
        <ele>453.722671</ele>
        <time>2021-11-20T08:51:22.188Z</time>
      </trkpt>
      <trkpt lat="47.581149" lon="8.170639">
        <ele>450.812966</ele>
        <time>2021-11-20T08:51:24.827Z</time>
      </trkpt>
      <trkpt lat="47.581190" lon="8.170733">
        <ele>449.804698</ele>
        <time>2021-11-20T08:51:25.687Z</time>
      </trkpt>
      <trkpt lat="47.581322" lon="8.171039">
        <ele>446.533072</ele>
        <time>2021-11-20T08:51:28.642Z</time>
      </trkpt>
      <trkpt lat="47.581642" lon="8.171482">
        <ele>442.014747</ele>
        <time>2021-11-20T08:51:33.806Z</time>
      </trkpt>
      <trkpt lat="47.582069" lon="8.172293">
        <ele>435.714166</ele>
        <time>2021-11-20T08:51:42.091Z</time>
      </trkpt>
      <trkpt lat="47.582283" lon="8.172514">
        <ele>433.346316</ele>
        <time>2021-11-20T08:51:45.265Z</time>
      </trkpt>
      <trkpt lat="47.582702" lon="8.172718">
        <ele>429.342295</ele>
        <time>2021-11-20T08:51:51.346Z</time>
      </trkpt>
      <trkpt lat="47.582775" lon="8.172921">
        <ele>428.588946</ele>
        <time>2021-11-20T08:51:53.998Z</time>
      </trkpt>
      <trkpt lat="47.582753" lon="8.173015">
        <ele>428.677416</ele>
        <time>2021-11-20T08:51:54.806Z</time>
      </trkpt>
      <trkpt lat="47.582703" lon="8.173082">
        <ele>428.766259</ele>
        <time>2021-11-20T08:51:56.684Z</time>
      </trkpt>
      <trkpt lat="47.582353" lon="8.173034">
        <ele>429.229600</ele>
        <time>2021-11-20T08:52:05.030Z</time>
      </trkpt>
      <trkpt lat="47.581938" lon="8.173171">
        <ele>429.790053</ele>
        <time>2021-11-20T08:52:17.429Z</time>
      </trkpt>
      <trkpt lat="47.581664" lon="8.173110">
        <ele>430.155291</ele>
        <time>2021-11-20T08:52:24.925Z</time>
      </trkpt>
      <trkpt lat="47.581566" lon="8.173106">
        <ele>430.284523</ele>
        <time>2021-11-20T08:52:29.292Z</time>
      </trkpt>
      <trkpt lat="47.581401" lon="8.173161">
        <ele>430.507457</ele>
        <time>2021-11-20T08:52:36.686Z</time>
      </trkpt>
      <trkpt lat="47.581187" lon="8.173239">
        <ele>430.797954</ele>
        <time>2021-11-20T08:52:42.571Z</time>
      </trkpt>
      <trkpt lat="47.581107" lon="8.173293">
        <ele>430.825656</ele>
        <time>2021-11-20T08:52:47.740Z</time>
      </trkpt>
      <trkpt lat="47.581040" lon="8.173360">
        <ele>430.678364</ele>
        <time>2021-11-20T08:52:50.471Z</time>
      </trkpt>
      <trkpt lat="47.580921" lon="8.173516">
        <ele>430.388852</ele>
        <time>2021-11-20T08:52:55.009Z</time>
      </trkpt>
      <trkpt lat="47.580899" lon="8.173634">
        <ele>430.238346</ele>
        <time>2021-11-20T08:52:58.458Z</time>
      </trkpt>
      <trkpt lat="47.580895" lon="8.173757">
        <ele>430.086958</ele>
        <time>2021-11-20T08:53:01.985Z</time>
      </trkpt>
      <trkpt lat="47.580929" lon="8.173895">
        <ele>429.906341</ele>
        <time>2021-11-20T08:53:03.377Z</time>
      </trkpt>
      <trkpt lat="47.581093" lon="8.174089">
        <ele>429.523956</ele>
        <time>2021-11-20T08:53:09.904Z</time>
      </trkpt>
      <trkpt lat="47.581786" lon="8.174089">
        <ele>428.260952</ele>
        <time>2021-11-20T08:53:20.654Z</time>
      </trkpt>
      <trkpt lat="47.581973" lon="8.174217">
        <ele>427.885568</ele>
        <time>2021-11-20T08:53:23.161Z</time>
      </trkpt>
      <trkpt lat="47.582094" lon="8.174425">
        <ele>427.258727</ele>
        <time>2021-11-20T08:53:25.663Z</time>
      </trkpt>
      <trkpt lat="47.582339" lon="8.174888">
        <ele>422.421798</ele>
        <time>2021-11-20T08:53:30.511Z</time>
      </trkpt>
      <trkpt lat="47.582577" lon="8.175149">
        <ele>418.814419</ele>
        <time>2021-11-20T08:53:33.999Z</time>
      </trkpt>
      <trkpt lat="47.582989" lon="8.175334">
        <ele>413.568748</ele>
        <time>2021-11-20T08:53:39.108Z</time>
      </trkpt>
      <trkpt lat="47.583061" lon="8.175390">
        <ele>412.577980</ele>
        <time>2021-11-20T08:53:40.034Z</time>
      </trkpt>
      <trkpt lat="47.583292" lon="8.175767">
        <ele>408.391642</ele>
        <time>2021-11-20T08:53:44.070Z</time>
      </trkpt>
      <trkpt lat="47.583345" lon="8.175789">
        <ele>407.720972</ele>
        <time>2021-11-20T08:53:44.696Z</time>
      </trkpt>
      <trkpt lat="47.583607" lon="8.175910">
        <ele>404.526518</ele>
        <time>2021-11-20T08:53:47.991Z</time>
      </trkpt>
      <trkpt lat="47.583749" lon="8.175890">
        <ele>402.987580</ele>
        <time>2021-11-20T08:53:49.669Z</time>
      </trkpt>
      <trkpt lat="47.583784" lon="8.175894">
        <ele>402.608845</ele>
        <time>2021-11-20T08:53:50.064Z</time>
      </trkpt>
      <trkpt lat="47.583980" lon="8.175915">
        <ele>400.488684</ele>
        <time>2021-11-20T08:53:52.485Z</time>
      </trkpt>
      <trkpt lat="47.584063" lon="8.175897">
        <ele>399.583666</ele>
        <time>2021-11-20T08:53:53.463Z</time>
      </trkpt>
      <trkpt lat="47.584320" lon="8.175828">
        <ele>396.765791</ele>
        <time>2021-11-20T08:53:56.661Z</time>
      </trkpt>
      <trkpt lat="47.584534" lon="8.175831">
        <ele>394.456839</ele>
        <time>2021-11-20T08:53:59.200Z</time>
      </trkpt>
      <trkpt lat="47.586133" lon="8.175874">
        <ele>378.432550</ele>
        <time>2021-11-20T08:54:19.125Z</time>
      </trkpt>
      <trkpt lat="47.586296" lon="8.175856">
        <ele>376.908165</ele>
        <time>2021-11-20T08:54:21.133Z</time>
      </trkpt>
      <trkpt lat="47.587168" lon="8.175856">
        <ele>368.712334</ele>
        <time>2021-11-20T08:54:31.811Z</time>
      </trkpt>
      <trkpt lat="47.587351" lon="8.175839">
        <ele>366.852939</ele>
        <time>2021-11-20T08:54:34.011Z</time>
      </trkpt>
      <trkpt lat="47.587584" lon="8.175798">
        <ele>364.473564</ele>
        <time>2021-11-20T08:54:36.836Z</time>
      </trkpt>
      <trkpt lat="47.587912" lon="8.175687">
        <ele>361.061859</ele>
        <time>2021-11-20T08:54:40.896Z</time>
      </trkpt>
      <trkpt lat="47.588152" lon="8.175562">
        <ele>358.482287</ele>
        <time>2021-11-20T08:54:43.989Z</time>
      </trkpt>
      <trkpt lat="47.588280" lon="8.175497">
        <ele>357.110252</ele>
        <time>2021-11-20T08:54:45.614Z</time>
      </trkpt>
      <trkpt lat="47.588814" lon="8.175535">
        <ele>351.688862</ele>
        <time>2021-11-20T08:54:52.157Z</time>
      </trkpt>
      <trkpt lat="47.589038" lon="8.175531">
        <ele>350.210142</ele>
        <time>2021-11-20T08:54:54.904Z</time>
      </trkpt>
      <trkpt lat="47.589150" lon="8.175524">
        <ele>349.562097</ele>
        <time>2021-11-20T08:54:56.337Z</time>
      </trkpt>
      <trkpt lat="47.589437" lon="8.175426">
        <ele>347.859526</ele>
        <time>2021-11-20T08:55:00.094Z</time>
      </trkpt>
      <trkpt lat="47.589490" lon="8.175383">
        <ele>347.510264</ele>
        <time>2021-11-20T08:55:00.859Z</time>
      </trkpt>
      <trkpt lat="47.590268" lon="8.175295">
        <ele>342.999590</ele>
        <time>2021-11-20T08:55:11.463Z</time>
      </trkpt>
      <trkpt lat="47.590378" lon="8.175282">
        <ele>342.361665</ele>
        <time>2021-11-20T08:55:12.937Z</time>
      </trkpt>
      <trkpt lat="47.590446" lon="8.175273">
        <ele>341.966995</ele>
        <time>2021-11-20T08:55:13.925Z</time>
      </trkpt>
      <trkpt lat="47.590494" lon="8.175266">
        <ele>341.688169</ele>
        <time>2021-11-20T08:55:14.652Z</time>
      </trkpt>
      <trkpt lat="47.590554" lon="8.175213">
        <ele>341.284424</ele>
        <time>2021-11-20T08:55:15.606Z</time>
      </trkpt>
      <trkpt lat="47.590635" lon="8.175360">
        <ele>340.778501</ele>
        <time>2021-11-20T08:55:16.934Z</time>
      </trkpt>
      <trkpt lat="47.590917" lon="8.175180">
        <ele>340.305080</ele>
        <time>2021-11-20T08:55:21.640Z</time>
      </trkpt>
      <trkpt lat="47.590971" lon="8.175139">
        <ele>340.211530</ele>
        <time>2021-11-20T08:55:22.505Z</time>
      </trkpt>
      <trkpt lat="47.591153" lon="8.174995">
        <ele>339.893433</ele>
        <time>2021-11-20T08:55:25.831Z</time>
      </trkpt>
      <trkpt lat="47.591351" lon="8.174827">
        <ele>339.541666</ele>
        <time>2021-11-20T08:55:29.434Z</time>
      </trkpt>
      <trkpt lat="47.591820" lon="8.174385">
        <ele>338.684760</ele>
        <time>2021-11-20T08:55:39.204Z</time>
      </trkpt>
      <trkpt lat="47.592079" lon="8.174112">
        <ele>338.194760</ele>
        <time>2021-11-20T08:55:45.427Z</time>
      </trkpt>
      <trkpt lat="47.592226" lon="8.173976">
        <ele>338.081036</ele>
        <time>2021-11-20T08:55:48.870Z</time>
      </trkpt>
      <trkpt lat="47.592861" lon="8.173461">
        <ele>338.018179</ele>
        <time>2021-11-20T08:56:03.400Z</time>
      </trkpt>
      <trkpt lat="47.593060" lon="8.173300">
        <ele>337.998491</ele>
        <time>2021-11-20T08:56:08.040Z</time>
      </trkpt>
      <trkpt lat="47.593562" lon="8.172891">
        <ele>337.948747</ele>
        <time>2021-11-20T08:56:19.905Z</time>
      </trkpt>
      <trkpt lat="47.593648" lon="8.172755">
        <ele>337.937828</ele>
        <time>2021-11-20T08:56:22.501Z</time>
      </trkpt>
      <trkpt lat="47.593672" lon="8.172679">
        <ele>337.918031</ele>
        <time>2021-11-20T08:56:23.613Z</time>
      </trkpt>
      <trkpt lat="47.593778" lon="8.172683">
        <ele>337.781471</ele>
        <time>2021-11-20T08:56:25.765Z</time>
      </trkpt>
      <trkpt lat="47.593996" lon="8.172601">
        <ele>337.491820</ele>
        <time>2021-11-20T08:56:30.044Z</time>
      </trkpt>
      <trkpt lat="47.594577" lon="8.172353">
        <ele>336.713175</ele>
        <time>2021-11-20T08:56:40.749Z</time>
      </trkpt>
      <trkpt lat="47.595292" lon="8.172024">
        <ele>335.749023</ele>
        <time>2021-11-20T08:56:53.194Z</time>
      </trkpt>
      <trkpt lat="47.595486" lon="8.171961">
        <ele>335.159882</ele>
        <time>2021-11-20T08:56:56.138Z</time>
      </trkpt>
      <trkpt lat="47.595819" lon="8.171918">
        <ele>333.574752</ele>
        <time>2021-11-20T08:57:00.799Z</time>
      </trkpt>
      <trkpt lat="47.596041" lon="8.171960">
        <ele>332.513450</ele>
        <time>2021-11-20T08:57:03.906Z</time>
      </trkpt>
      <trkpt lat="47.596521" lon="8.172593">
        <ele>329.467299</ele>
        <time>2021-11-20T08:57:12.607Z</time>
      </trkpt>
      <trkpt lat="47.596715" lon="8.172923">
        <ele>328.067285</ele>
        <time>2021-11-20T08:57:16.373Z</time>
      </trkpt>
      <trkpt lat="47.596893" lon="8.173084">
        <ele>327.077898</ele>
        <time>2021-11-20T08:57:18.291Z</time>
      </trkpt>
      <trkpt lat="47.597117" lon="8.173411">
        <ele>325.485253</ele>
        <time>2021-11-20T08:57:21.178Z</time>
      </trkpt>
      <trkpt lat="47.597294" lon="8.173908">
        <ele>323.564838</ele>
        <time>2021-11-20T08:57:24.693Z</time>
      </trkpt>
      <trkpt lat="47.597347" lon="8.173942">
        <ele>323.272244</ele>
        <time>2021-11-20T08:57:25.256Z</time>
      </trkpt>
      <trkpt lat="47.597735" lon="8.173848">
        <ele>321.280237</ele>
        <time>2021-11-20T08:57:28.959Z</time>
      </trkpt>
      <trkpt lat="47.597787" lon="8.173826">
        <ele>321.006247</ele>
        <time>2021-11-20T08:57:29.417Z</time>
      </trkpt>
      <trkpt lat="47.597793" lon="8.173758">
        <ele>320.771928</ele>
        <time>2021-11-20T08:57:29.892Z</time>
      </trkpt>
      <trkpt lat="47.597788" lon="8.173696">
        <ele>320.558581</ele>
        <time>2021-11-20T08:57:30.300Z</time>
      </trkpt>
      <trkpt lat="47.597745" lon="8.173609">
        <ele>320.190028</ele>
        <time>2021-11-20T08:57:31.002Z</time>
      </trkpt>
      <trkpt lat="47.597695" lon="8.173531">
        <ele>319.822321</ele>
        <time>2021-11-20T08:57:31.722Z</time>
      </trkpt>
      <trkpt lat="47.597552" lon="8.173338">
        <ele>318.842605</ele>
        <time>2021-11-20T08:57:33.608Z</time>
      </trkpt>
      <trkpt lat="47.597427" lon="8.173055">
        <ele>317.782705</ele>
        <time>2021-11-20T08:57:35.989Z</time>
      </trkpt>
      <trkpt lat="47.597424" lon="8.173049">
        <ele>317.765697</ele>
        <time>2021-11-20T08:57:36.071Z</time>
      </trkpt>
      <trkpt lat="47.597386" lon="8.172875">
        <ele>317.349224</ele>
        <time>2021-11-20T08:57:37.189Z</time>
      </trkpt>
      <trkpt lat="47.597268" lon="8.172337">
        <ele>316.060979</ele>
        <time>2021-11-20T08:57:40.945Z</time>
      </trkpt>
      <trkpt lat="47.596865" lon="8.171710">
        <ele>314.088586</ele>
        <time>2021-11-20T08:57:46.936Z</time>
      </trkpt>
      <trkpt lat="47.596900" lon="8.171578">
        <ele>313.765608</ele>
        <time>2021-11-20T08:57:47.900Z</time>
      </trkpt>
      <trkpt lat="47.597024" lon="8.171618">
        <ele>313.337095</ele>
        <time>2021-11-20T08:57:49.154Z</time>
      </trkpt>
      <trkpt lat="47.597212" lon="8.171709">
        <ele>312.669297</ele>
        <time>2021-11-20T08:57:51.377Z</time>
      </trkpt>
      <trkpt lat="47.597275" lon="8.171743">
        <ele>312.442910</ele>
        <time>2021-11-20T08:57:51.995Z</time>
      </trkpt>
      <trkpt lat="47.597464" lon="8.171816">
        <ele>311.815699</ele>
        <time>2021-11-20T08:57:54.104Z</time>
      </trkpt>
      <trkpt lat="47.597828" lon="8.172147">
        <ele>310.770123</ele>
        <time>2021-11-20T08:57:58.495Z</time>
      </trkpt>
      <trkpt lat="47.597908" lon="8.172200">
        <ele>310.555564</ele>
        <time>2021-11-20T08:57:59.303Z</time>
      </trkpt>
      <trkpt lat="47.597940" lon="8.172115">
        <ele>310.394814</ele>
        <time>2021-11-20T08:57:59.956Z</time>
      </trkpt>
      <trkpt lat="47.597960" lon="8.172067">
        <ele>310.301644</ele>
        <time>2021-11-20T08:58:00.338Z</time>
      </trkpt>
      <trkpt lat="47.598789" lon="8.170031">
        <ele>307.182419</ele>
        <time>2021-11-20T08:58:17.929Z</time>
      </trkpt>
      <trkpt lat="47.598802" lon="8.169999">
        <ele>307.165153</ele>
        <time>2021-11-20T08:58:18.256Z</time>
      </trkpt>
      <trkpt lat="47.598856" lon="8.169867">
        <ele>307.093799</ele>
        <time>2021-11-20T08:58:19.620Z</time>
      </trkpt>
      <trkpt lat="47.598839" lon="8.169662">
        <ele>306.998341</ele>
        <time>2021-11-20T08:58:21.449Z</time>
      </trkpt>
      <trkpt lat="47.598499" lon="8.168926">
        <ele>306.586021</ele>
        <time>2021-11-20T08:58:29.325Z</time>
      </trkpt>
      <trkpt lat="47.598223" lon="8.168539">
        <ele>306.325686</ele>
        <time>2021-11-20T08:58:35.027Z</time>
      </trkpt>
      <trkpt lat="47.598098" lon="8.168367">
        <ele>306.331510</ele>
        <time>2021-11-20T08:58:37.908Z</time>
      </trkpt>
      <trkpt lat="47.598008" lon="8.168249">
        <ele>306.433112</ele>
        <time>2021-11-20T08:58:39.961Z</time>
      </trkpt>
      <trkpt lat="47.598109" lon="8.168119">
        <ele>306.546222</ele>
        <time>2021-11-20T08:58:42.530Z</time>
      </trkpt>
      <trkpt lat="47.598242" lon="8.167955">
        <ele>306.692514</ele>
        <time>2021-11-20T08:58:45.792Z</time>
      </trkpt>
      <trkpt lat="47.598388" lon="8.167785">
        <ele>306.849510</ele>
        <time>2021-11-20T08:58:49.297Z</time>
      </trkpt>
      <trkpt lat="47.598443" lon="8.167732">
        <ele>306.904985</ele>
        <time>2021-11-20T08:58:50.608Z</time>
      </trkpt>
      <trkpt lat="47.598511" lon="8.167699">
        <ele>306.965498</ele>
        <time>2021-11-20T08:58:51.980Z</time>
      </trkpt>
      <trkpt lat="47.598600" lon="8.167686">
        <ele>307.041135</ele>
        <time>2021-11-20T08:58:53.583Z</time>
      </trkpt>
      <trkpt lat="47.598812" lon="8.167627">
        <ele>307.223566</ele>
        <time>2021-11-20T08:58:57.916Z</time>
      </trkpt>
      <trkpt lat="47.599012" lon="8.167567">
        <ele>307.396144</ele>
        <time>2021-11-20T08:59:01.609Z</time>
      </trkpt>
      <trkpt lat="47.599407" lon="8.167443">
        <ele>307.737623</ele>
        <time>2021-11-20T08:59:09.060Z</time>
      </trkpt>
      <trkpt lat="47.599501" lon="8.167395">
        <ele>307.790209</ele>
        <time>2021-11-20T08:59:10.978Z</time>
      </trkpt>
      <trkpt lat="47.599964" lon="8.167066">
        <ele>307.852257</ele>
        <time>2021-11-20T08:59:19.867Z</time>
      </trkpt>
      <trkpt lat="47.599922" lon="8.167015">
        <ele>307.858817</ele>
        <time>2021-11-20T08:59:21.238Z</time>
      </trkpt>
      <trkpt lat="47.599687" lon="8.167094">
        <ele>307.887939</ele>
        <time>2021-11-20T08:59:27.012Z</time>
      </trkpt>
      <trkpt lat="47.599659" lon="8.167070">
        <ele>307.891847</ele>
        <time>2021-11-20T08:59:27.826Z</time>
      </trkpt>
      <trkpt lat="47.599634" lon="8.167047">
        <ele>307.895403</ele>
        <time>2021-11-20T08:59:28.319Z</time>
      </trkpt>
      <trkpt lat="47.599006" lon="8.163203">
        <ele>307.099276</ele>
        <time>2021-11-20T09:00:17.347Z</time>
      </trkpt>
      <trkpt lat="47.598400" lon="8.158819">
        <ele>306.893012</ele>
        <time>2021-11-20T09:01:16.824Z</time>
      </trkpt>
      <trkpt lat="47.598357" lon="8.158487">
        <ele>306.918338</ele>
        <time>2021-11-20T09:01:21.584Z</time>
      </trkpt>
      <trkpt lat="47.598368" lon="8.158424">
        <ele>306.923213</ele>
        <time>2021-11-20T09:01:22.422Z</time>
      </trkpt>
      <trkpt lat="47.599693" lon="8.157319">
        <ele>308.419964</ele>
        <time>2021-11-20T09:01:58.317Z</time>
      </trkpt>
      <trkpt lat="47.599875" lon="8.157189">
        <ele>308.666689</ele>
        <time>2021-11-20T09:02:04.205Z</time>
      </trkpt>
      <trkpt lat="47.600053" lon="8.157054">
        <ele>308.910869</ele>
        <time>2021-11-20T09:02:08.315Z</time>
      </trkpt>
      <trkpt lat="47.600082" lon="8.157033">
        <ele>308.950285</ele>
        <time>2021-11-20T09:02:09.164Z</time>
      </trkpt>
      <trkpt lat="47.600128" lon="8.157002">
        <ele>309.011996</ele>
        <time>2021-11-20T09:02:10.572Z</time>
      </trkpt>
      <trkpt lat="47.600421" lon="8.156716">
        <ele>309.534200</ele>
        <time>2021-11-20T09:02:18.801Z</time>
      </trkpt>
      <trkpt lat="47.600545" lon="8.156492">
        <ele>309.851587</ele>
        <time>2021-11-20T09:02:22.983Z</time>
      </trkpt>
      <trkpt lat="47.600627" lon="8.156310">
        <ele>310.091299</ele>
        <time>2021-11-20T09:02:26.626Z</time>
      </trkpt>
      <trkpt lat="47.600740" lon="8.156020">
        <ele>310.458099</ele>
        <time>2021-11-20T09:02:31.406Z</time>
      </trkpt>
      <trkpt lat="47.600788" lon="8.155796">
        <ele>310.715497</ele>
        <time>2021-11-20T09:02:35.354Z</time>
      </trkpt>
      <trkpt lat="47.600810" lon="8.155622">
        <ele>310.909369</ele>
        <time>2021-11-20T09:02:37.812Z</time>
      </trkpt>
      <trkpt lat="47.600825" lon="8.155110">
        <ele>311.470601</ele>
        <time>2021-11-20T09:02:45.273Z</time>
      </trkpt>
      <trkpt lat="47.600776" lon="8.154780">
        <ele>311.840651</ele>
        <time>2021-11-20T09:02:49.750Z</time>
      </trkpt>
      <trkpt lat="47.600739" lon="8.154598">
        <ele>312.048825</ele>
        <time>2021-11-20T09:02:52.092Z</time>
      </trkpt>
      <trkpt lat="47.600603" lon="8.154164">
        <ele>312.061628</ele>
        <time>2021-11-20T09:02:57.937Z</time>
      </trkpt>
      <trkpt lat="47.600374" lon="8.153460">
        <ele>312.034767</ele>
        <time>2021-11-20T09:03:06.231Z</time>
      </trkpt>
      <trkpt lat="47.599795" lon="8.151707">
        <ele>311.963785</ele>
        <time>2021-11-20T09:03:23.158Z</time>
      </trkpt>
      <trkpt lat="47.599467" lon="8.150696">
        <ele>311.916794</ele>
        <time>2021-11-20T09:03:33.805Z</time>
      </trkpt>
      <trkpt lat="47.599255" lon="8.150072">
        <ele>311.887528</ele>
        <time>2021-11-20T09:03:41.242Z</time>
      </trkpt>
      <trkpt lat="47.599245" lon="8.150041">
        <ele>311.886089</ele>
        <time>2021-11-20T09:03:41.590Z</time>
      </trkpt>
      <trkpt lat="47.599066" lon="8.149515">
        <ele>312.170665</ele>
        <time>2021-11-20T09:03:48.174Z</time>
      </trkpt>
      <trkpt lat="47.598988" lon="8.149038">
        <ele>312.663413</ele>
        <time>2021-11-20T09:03:53.868Z</time>
      </trkpt>
      <trkpt lat="47.599056" lon="8.148448">
        <ele>313.264314</ele>
        <time>2021-11-20T09:04:01.531Z</time>
      </trkpt>
      <trkpt lat="47.599092" lon="8.148294">
        <ele>313.427944</ele>
        <time>2021-11-20T09:04:04.183Z</time>
      </trkpt>
      <trkpt lat="47.599227" lon="8.148032">
        <ele>313.758971</ele>
        <time>2021-11-20T09:04:08.189Z</time>
      </trkpt>
      <trkpt lat="47.599362" lon="8.147866">
        <ele>314.020061</ele>
        <time>2021-11-20T09:04:12.787Z</time>
      </trkpt>
      <trkpt lat="47.599417" lon="8.147799">
        <ele>314.126028</ele>
        <time>2021-11-20T09:04:14.275Z</time>
      </trkpt>
      <trkpt lat="47.599842" lon="8.147348">
        <ele>315.444447</ele>
        <time>2021-11-20T09:04:27.377Z</time>
      </trkpt>
      <trkpt lat="47.599930" lon="8.147256">
        <ele>315.850502</ele>
        <time>2021-11-20T09:04:31.382Z</time>
      </trkpt>
      <trkpt lat="47.600375" lon="8.146597">
        <ele>318.222208</ele>
        <time>2021-11-20T09:04:50.571Z</time>
      </trkpt>
      <trkpt lat="47.600394" lon="8.146557">
        <ele>318.346633</ele>
        <time>2021-11-20T09:04:52.070Z</time>
      </trkpt>
      <trkpt lat="47.600445" lon="8.146449">
        <ele>318.681930</ele>
        <time>2021-11-20T09:04:54.946Z</time>
      </trkpt>
      <trkpt lat="47.600684" lon="8.145860">
        <ele>320.430048</ele>
        <time>2021-11-20T09:05:09.234Z</time>
      </trkpt>
      <trkpt lat="47.600767" lon="8.145560">
        <ele>321.254667</ele>
        <time>2021-11-20T09:05:16.506Z</time>
      </trkpt>
      <trkpt lat="47.600787" lon="8.145439">
        <ele>321.509327</ele>
        <time>2021-11-20T09:05:18.870Z</time>
      </trkpt>
      <trkpt lat="47.600796" lon="8.145294">
        <ele>321.782334</ele>
        <time>2021-11-20T09:05:21.599Z</time>
      </trkpt>
      <trkpt lat="47.600794" lon="8.145101">
        <ele>322.144229</ele>
        <time>2021-11-20T09:05:25.761Z</time>
      </trkpt>
      <trkpt lat="47.600774" lon="8.144904">
        <ele>322.517743</ele>
        <time>2021-11-20T09:05:29.537Z</time>
      </trkpt>
      <trkpt lat="47.600687" lon="8.144558">
        <ele>323.210088</ele>
        <time>2021-11-20T09:05:36.885Z</time>
      </trkpt>
      <trkpt lat="47.600643" lon="8.144448">
        <ele>323.449883</ele>
        <time>2021-11-20T09:05:39.230Z</time>
      </trkpt>
      <trkpt lat="47.600454" lon="8.144069">
        <ele>324.333680</ele>
        <time>2021-11-20T09:05:48.067Z</time>
      </trkpt>
      <trkpt lat="47.599726" lon="8.143190">
        <ele>326.399565</ele>
        <time>2021-11-20T09:06:08.927Z</time>
      </trkpt>
      <trkpt lat="47.599711" lon="8.143167">
        <ele>326.405832</ele>
        <time>2021-11-20T09:06:09.292Z</time>
      </trkpt>
      <trkpt lat="47.599625" lon="8.143040">
        <ele>326.441080</ele>
        <time>2021-11-20T09:06:11.212Z</time>
      </trkpt>
      <trkpt lat="47.599119" lon="8.142538">
        <ele>326.617889</ele>
        <time>2021-11-20T09:06:20.381Z</time>
      </trkpt>
      <trkpt lat="47.598952" lon="8.142414">
        <ele>326.672130</ele>
        <time>2021-11-20T09:06:23.108Z</time>
      </trkpt>
      <trkpt lat="47.598823" lon="8.142341">
        <ele>326.712230</ele>
        <time>2021-11-20T09:06:25.091Z</time>
      </trkpt>
      <trkpt lat="47.598633" lon="8.142288">
        <ele>326.768379</ele>
        <time>2021-11-20T09:06:27.799Z</time>
      </trkpt>
      <trkpt lat="47.598494" lon="8.142235">
        <ele>326.810062</ele>
        <time>2021-11-20T09:06:29.882Z</time>
      </trkpt>
      <trkpt lat="47.598317" lon="8.142168">
        <ele>326.841807</ele>
        <time>2021-11-20T09:06:32.329Z</time>
      </trkpt>
      <trkpt lat="47.597924" lon="8.141954">
        <ele>326.408217</ele>
        <time>2021-11-20T09:06:38.106Z</time>
      </trkpt>
      <trkpt lat="47.597726" lon="8.141757">
        <ele>326.161277</ele>
        <time>2021-11-20T09:06:41.123Z</time>
      </trkpt>
      <trkpt lat="47.596658" lon="8.140124">
        <ele>324.545617</ele>
        <time>2021-11-20T09:06:58.975Z</time>
      </trkpt>
      <trkpt lat="47.596283" lon="8.139715">
        <ele>324.032845</ele>
        <time>2021-11-20T09:07:04.421Z</time>
      </trkpt>
      <trkpt lat="47.596029" lon="8.139184">
        <ele>323.549249</ele>
        <time>2021-11-20T09:07:09.649Z</time>
      </trkpt>
      <trkpt lat="47.595214" lon="8.137474">
        <ele>322.546625</ele>
        <time>2021-11-20T09:07:27.987Z</time>
      </trkpt>
      <trkpt lat="47.595110" lon="8.137170">
        <ele>322.430572</ele>
        <time>2021-11-20T09:07:31.225Z</time>
      </trkpt>
      <trkpt lat="47.595009" lon="8.136714">
        <ele>322.267166</ele>
        <time>2021-11-20T09:07:35.731Z</time>
      </trkpt>
      <trkpt lat="47.594983" lon="8.136598">
        <ele>322.225549</ele>
        <time>2021-11-20T09:07:36.886Z</time>
      </trkpt>
      <trkpt lat="47.594962" lon="8.136531">
        <ele>322.200396</ele>
        <time>2021-11-20T09:07:37.544Z</time>
      </trkpt>
      <trkpt lat="47.594900" lon="8.136327">
        <ele>322.124216</ele>
        <time>2021-11-20T09:07:39.619Z</time>
      </trkpt>
      <trkpt lat="47.594823" lon="8.136125">
        <ele>322.021099</ele>
        <time>2021-11-20T09:07:41.663Z</time>
      </trkpt>
      <trkpt lat="47.594662" lon="8.135767">
        <ele>321.816785</ele>
        <time>2021-11-20T09:07:45.451Z</time>
      </trkpt>
      <trkpt lat="47.594351" lon="8.135126">
        <ele>321.441844</ele>
        <time>2021-11-20T09:07:52.366Z</time>
      </trkpt>
      <trkpt lat="47.594071" lon="8.134556">
        <ele>321.107009</ele>
        <time>2021-11-20T09:07:58.601Z</time>
      </trkpt>
      <trkpt lat="47.593939" lon="8.134327">
        <ele>320.963968</ele>
        <time>2021-11-20T09:08:01.179Z</time>
      </trkpt>
      <trkpt lat="47.593730" lon="8.134016">
        <ele>320.655897</ele>
        <time>2021-11-20T09:08:04.792Z</time>
      </trkpt>
      <trkpt lat="47.593583" lon="8.133716">
        <ele>320.272136</ele>
        <time>2021-11-20T09:08:07.684Z</time>
      </trkpt>
      <trkpt lat="47.593554" lon="8.133656">
        <ele>320.195743</ele>
        <time>2021-11-20T09:08:08.249Z</time>
      </trkpt>
      <trkpt lat="47.593549" lon="8.133646">
        <ele>320.182860</ele>
        <time>2021-11-20T09:08:08.341Z</time>
      </trkpt>
      <trkpt lat="47.593504" lon="8.133551">
        <ele>320.062718</ele>
        <time>2021-11-20T09:08:09.220Z</time>
      </trkpt>
      <trkpt lat="47.593486" lon="8.133523">
        <ele>320.022685</ele>
        <time>2021-11-20T09:08:09.508Z</time>
      </trkpt>
      <trkpt lat="47.593091" lon="8.132750">
        <ele>319.019014</ele>
        <time>2021-11-20T09:08:16.728Z</time>
      </trkpt>
      <trkpt lat="47.592867" lon="8.132484">
        <ele>318.578632</ele>
        <time>2021-11-20T09:08:19.933Z</time>
      </trkpt>
      <trkpt lat="47.592836" lon="8.132464">
        <ele>318.526754</ele>
        <time>2021-11-20T09:08:20.301Z</time>
      </trkpt>
      <trkpt lat="47.592814" lon="8.132534">
        <ele>318.446831</ele>
        <time>2021-11-20T09:08:20.893Z</time>
      </trkpt>
      <trkpt lat="47.592719" lon="8.132686">
        <ele>318.232362</ele>
        <time>2021-11-20T09:08:22.481Z</time>
      </trkpt>
      <trkpt lat="47.592658" lon="8.132770">
        <ele>318.104615</ele>
        <time>2021-11-20T09:08:23.427Z</time>
      </trkpt>
      <trkpt lat="47.592571" lon="8.132886">
        <ele>318.014329</ele>
        <time>2021-11-20T09:08:24.845Z</time>
      </trkpt>
      <trkpt lat="47.592062" lon="8.133399">
        <ele>317.614588</ele>
        <time>2021-11-20T09:08:32.436Z</time>
      </trkpt>
      <trkpt lat="47.592009" lon="8.133338">
        <ele>317.571010</ele>
        <time>2021-11-20T09:08:33.256Z</time>
      </trkpt>
      <trkpt lat="47.591957" lon="8.133278">
        <ele>317.528214</ele>
        <time>2021-11-20T09:08:34.064Z</time>
      </trkpt>
      <trkpt lat="47.591905" lon="8.133207">
        <ele>317.482302</ele>
        <time>2021-11-20T09:08:35.031Z</time>
      </trkpt>
      <trkpt lat="47.591548" lon="8.132722">
        <ele>317.167816</ele>
        <time>2021-11-20T09:08:41.365Z</time>
      </trkpt>
      <trkpt lat="47.591517" lon="8.132683">
        <ele>317.141410</ele>
        <time>2021-11-20T09:08:41.899Z</time>
      </trkpt>
      <trkpt lat="47.591370" lon="8.132496">
        <ele>317.015609</ele>
        <time>2021-11-20T09:08:44.914Z</time>
      </trkpt>
      <trkpt lat="47.591175" lon="8.132110">
        <ele>317.006765</ele>
        <time>2021-11-20T09:08:49.903Z</time>
      </trkpt>
      <trkpt lat="47.591151" lon="8.131993">
        <ele>317.054308</ele>
        <time>2021-11-20T09:08:51.415Z</time>
      </trkpt>
      <trkpt lat="47.591136" lon="8.131905">
        <ele>317.089595</ele>
        <time>2021-11-20T09:08:52.257Z</time>
      </trkpt>
      <trkpt lat="47.591140" lon="8.131724">
        <ele>317.159999</ele>
        <time>2021-11-20T09:08:54.106Z</time>
      </trkpt>
      <trkpt lat="47.591143" lon="8.131579">
        <ele>317.216397</ele>
        <time>2021-11-20T09:08:55.625Z</time>
      </trkpt>
      <trkpt lat="47.591199" lon="8.131358">
        <ele>317.308178</ele>
        <time>2021-11-20T09:08:58.157Z</time>
      </trkpt>
      <trkpt lat="47.591247" lon="8.131227">
        <ele>317.366137</ele>
        <time>2021-11-20T09:08:59.656Z</time>
      </trkpt>
      <trkpt lat="47.591347" lon="8.130977">
        <ele>317.479136</ele>
        <time>2021-11-20T09:09:03.245Z</time>
      </trkpt>
      <trkpt lat="47.591364" lon="8.130933">
        <ele>317.498850</ele>
        <time>2021-11-20T09:09:03.763Z</time>
      </trkpt>
      <trkpt lat="47.591433" lon="8.130739">
        <ele>317.584116</ele>
        <time>2021-11-20T09:09:06.181Z</time>
      </trkpt>
      <trkpt lat="47.591479" lon="8.130581">
        <ele>317.651019</ele>
        <time>2021-11-20T09:09:08.574Z</time>
      </trkpt>
      <trkpt lat="47.591505" lon="8.130439">
        <ele>317.708222</ele>
        <time>2021-11-20T09:09:10.391Z</time>
      </trkpt>
      <trkpt lat="47.591505" lon="8.130232">
        <ele>317.788695</ele>
        <time>2021-11-20T09:09:12.702Z</time>
      </trkpt>
      <trkpt lat="47.591483" lon="8.130025">
        <ele>317.870162</ele>
        <time>2021-11-20T09:09:15.579Z</time>
      </trkpt>
      <trkpt lat="47.591460" lon="8.129923">
        <ele>317.911974</ele>
        <time>2021-11-20T09:09:17.373Z</time>
      </trkpt>
      <trkpt lat="47.591347" lon="8.129594">
        <ele>318.279935</ele>
        <time>2021-11-20T09:09:23.473Z</time>
      </trkpt>
      <trkpt lat="47.591213" lon="8.129277">
        <ele>318.730159</ele>
        <time>2021-11-20T09:09:29.796Z</time>
      </trkpt>
      <trkpt lat="47.590649" lon="8.127923">
        <ele>320.645332</ele>
        <time>2021-11-20T09:09:58.953Z</time>
      </trkpt>
      <trkpt lat="47.590625" lon="8.127864">
        <ele>320.728250</ele>
        <time>2021-11-20T09:10:00.372Z</time>
      </trkpt>
      <trkpt lat="47.590409" lon="8.127398">
        <ele>321.505657</ele>
        <time>2021-11-20T09:10:12.208Z</time>
      </trkpt>
      <trkpt lat="47.589672" lon="8.126374">
        <ele>324.004300</ele>
        <time>2021-11-20T09:10:44.602Z</time>
      </trkpt>
      <trkpt lat="47.589591" lon="8.126262">
        <ele>324.278297</ele>
        <time>2021-11-20T09:10:47.854Z</time>
      </trkpt>
      <trkpt lat="47.589278" lon="8.125788">
        <ele>325.385110</ele>
        <time>2021-11-20T09:11:01.006Z</time>
      </trkpt>
      <trkpt lat="47.589070" lon="8.125392">
        <ele>325.804993</ele>
        <time>2021-11-20T09:11:09.981Z</time>
      </trkpt>
      <trkpt lat="47.589078" lon="8.125315">
        <ele>325.846730</ele>
        <time>2021-11-20T09:11:11.596Z</time>
      </trkpt>
      <trkpt lat="47.589001" lon="8.125276">
        <ele>325.911363</ele>
        <time>2021-11-20T09:11:13.606Z</time>
      </trkpt>
      <trkpt lat="47.588922" lon="8.125160">
        <ele>325.999679</ele>
        <time>2021-11-20T09:11:16.209Z</time>
      </trkpt>
      <trkpt lat="47.588669" lon="8.124663">
        <ele>326.333265</ele>
        <time>2021-11-20T09:11:26.002Z</time>
      </trkpt>
      <trkpt lat="47.588469" lon="8.124106">
        <ele>326.671322</ele>
        <time>2021-11-20T09:11:35.336Z</time>
      </trkpt>
      <trkpt lat="47.588307" lon="8.123639">
        <ele>326.952662</ele>
        <time>2021-11-20T09:11:42.699Z</time>
      </trkpt>
      <trkpt lat="47.588080" lon="8.122981">
        <ele>327.019095</ele>
        <time>2021-11-20T09:11:52.952Z</time>
      </trkpt>
      <trkpt lat="47.587930" lon="8.122557">
        <ele>327.005040</ele>
        <time>2021-11-20T09:11:59.289Z</time>
      </trkpt>
      <trkpt lat="47.587823" lon="8.122266">
        <ele>326.995311</ele>
        <time>2021-11-20T09:12:03.669Z</time>
      </trkpt>
      <trkpt lat="47.587722" lon="8.121983">
        <ele>326.985912</ele>
        <time>2021-11-20T09:12:07.791Z</time>
      </trkpt>
      <trkpt lat="47.587613" lon="8.121661">
        <ele>326.975336</ele>
        <time>2021-11-20T09:12:12.618Z</time>
      </trkpt>
      <trkpt lat="47.587553" lon="8.121454">
        <ele>326.968722</ele>
        <time>2021-11-20T09:12:15.630Z</time>
      </trkpt>
      <trkpt lat="47.587457" lon="8.121156">
        <ele>326.959028</ele>
        <time>2021-11-20T09:12:20.120Z</time>
      </trkpt>
      <trkpt lat="47.587370" lon="8.120885">
        <ele>326.994492</ele>
        <time>2021-11-20T09:12:24.257Z</time>
      </trkpt>
      <trkpt lat="47.587280" lon="8.120590">
        <ele>327.039556</ele>
        <time>2021-11-20T09:12:28.798Z</time>
      </trkpt>
      <trkpt lat="47.587273" lon="8.120566">
        <ele>327.043195</ele>
        <time>2021-11-20T09:12:29.159Z</time>
      </trkpt>
      <trkpt lat="47.587132" lon="8.120084">
        <ele>327.116319</ele>
        <time>2021-11-20T09:12:36.662Z</time>
      </trkpt>
      <trkpt lat="47.587014" lon="8.119573">
        <ele>327.191494</ele>
        <time>2021-11-20T09:12:44.491Z</time>
      </trkpt>
      <trkpt lat="47.586808" lon="8.118617">
        <ele>327.328636</ele>
        <time>2021-11-20T09:12:58.862Z</time>
      </trkpt>
      <trkpt lat="47.586785" lon="8.118468">
        <ele>327.323962</ele>
        <time>2021-11-20T09:13:01.029Z</time>
      </trkpt>
      <trkpt lat="47.586773" lon="8.118379">
        <ele>327.321187</ele>
        <time>2021-11-20T09:13:02.326Z</time>
      </trkpt>
      <trkpt lat="47.586696" lon="8.117684">
        <ele>327.299649</ele>
        <time>2021-11-20T09:13:12.657Z</time>
      </trkpt>
      <trkpt lat="47.586657" lon="8.116185">
        <ele>327.253775</ele>
        <time>2021-11-20T09:13:32.816Z</time>
      </trkpt>
      <trkpt lat="47.586564" lon="8.115669">
        <ele>326.858937</ele>
        <time>2021-11-20T09:13:39.375Z</time>
      </trkpt>
      <trkpt lat="47.586495" lon="8.115468">
        <ele>326.593657</ele>
        <time>2021-11-20T09:13:42.176Z</time>
      </trkpt>
      <trkpt lat="47.586309" lon="8.115027">
        <ele>325.981875</ele>
        <time>2021-11-20T09:13:48.145Z</time>
      </trkpt>
      <trkpt lat="47.586124" lon="8.114616">
        <ele>325.400680</ele>
        <time>2021-11-20T09:13:53.548Z</time>
      </trkpt>
      <trkpt lat="47.586040" lon="8.114419">
        <ele>325.126542</ele>
        <time>2021-11-20T09:13:56.034Z</time>
      </trkpt>
      <trkpt lat="47.585978" lon="8.114276">
        <ele>324.926587</ele>
        <time>2021-11-20T09:13:57.818Z</time>
      </trkpt>
      <trkpt lat="47.585864" lon="8.114008">
        <ele>324.553903</ele>
        <time>2021-11-20T09:14:01.112Z</time>
      </trkpt>
      <trkpt lat="47.585808" lon="8.113882">
        <ele>324.376415</ele>
        <time>2021-11-20T09:14:02.617Z</time>
      </trkpt>
      <trkpt lat="47.585692" lon="8.113619">
        <ele>323.867011</ele>
        <time>2021-11-20T09:14:05.767Z</time>
      </trkpt>
      <trkpt lat="47.585557" lon="8.113319">
        <ele>322.873189</ele>
        <time>2021-11-20T09:14:09.222Z</time>
      </trkpt>
      <trkpt lat="47.585485" lon="8.113157">
        <ele>322.338556</ele>
        <time>2021-11-20T09:14:11.041Z</time>
      </trkpt>
      <trkpt lat="47.585352" lon="8.112867">
        <ele>321.372152</ele>
        <time>2021-11-20T09:14:14.318Z</time>
      </trkpt>
      <trkpt lat="47.585221" lon="8.112571">
        <ele>320.396536</ele>
        <time>2021-11-20T09:14:16.632Z</time>
      </trkpt>
      <trkpt lat="47.585157" lon="8.112429">
        <ele>319.925897</ele>
        <time>2021-11-20T09:14:17.768Z</time>
      </trkpt>
      <trkpt lat="47.585029" lon="8.112132">
        <ele>318.954627</ele>
        <time>2021-11-20T09:14:20.024Z</time>
      </trkpt>
      <trkpt lat="47.584878" lon="8.111799">
        <ele>317.848860</ele>
        <time>2021-11-20T09:14:22.632Z</time>
      </trkpt>
      <trkpt lat="47.584806" lon="8.111649">
        <ele>317.341509</ele>
        <time>2021-11-20T09:14:23.802Z</time>
      </trkpt>
      <trkpt lat="47.584716" lon="8.111496">
        <ele>316.782059</ele>
        <time>2021-11-20T09:14:25.142Z</time>
      </trkpt>
      <trkpt lat="47.584579" lon="8.111319">
        <ele>316.380804</ele>
        <time>2021-11-20T09:14:26.856Z</time>
      </trkpt>
      <trkpt lat="47.584099" lon="8.110752">
        <ele>315.057208</ele>
        <time>2021-11-20T09:14:32.753Z</time>
      </trkpt>
      <trkpt lat="47.584050" lon="8.110692">
        <ele>314.920149</ele>
        <time>2021-11-20T09:14:33.360Z</time>
      </trkpt>
      <trkpt lat="47.583872" lon="8.110453">
        <ele>314.402232</ele>
        <time>2021-11-20T09:14:35.768Z</time>
      </trkpt>
      <trkpt lat="47.583574" lon="8.109890">
        <ele>313.361186</ele>
        <time>2021-11-20T09:14:41.511Z</time>
      </trkpt>
      <trkpt lat="47.583498" lon="8.109663">
        <ele>312.992531</ele>
        <time>2021-11-20T09:14:45.649Z</time>
      </trkpt>
      <trkpt lat="47.583478" lon="8.109592">
        <ele>312.889746</ele>
        <time>2021-11-20T09:14:47.848Z</time>
      </trkpt>
      <trkpt lat="47.583452" lon="8.109511">
        <ele>313.214978</ele>
        <time>2021-11-20T09:14:49.483Z</time>
      </trkpt>
      <trkpt lat="47.583405" lon="8.109406">
        <ele>313.671867</ele>
        <time>2021-11-20T09:14:51.392Z</time>
      </trkpt>
      <trkpt lat="47.583388" lon="8.109374">
        <ele>313.819550</ele>
        <time>2021-11-20T09:14:52.033Z</time>
      </trkpt>
      <trkpt lat="47.583348" lon="8.109308">
        <ele>314.141245</ele>
        <time>2021-11-20T09:14:53.411Z</time>
      </trkpt>
      <trkpt lat="47.583309" lon="8.109254">
        <ele>314.428083</ele>
        <time>2021-11-20T09:14:54.873Z</time>
      </trkpt>
      <trkpt lat="47.583159" lon="8.109095">
        <ele>315.419242</ele>
        <time>2021-11-20T09:15:00.757Z</time>
      </trkpt>
      <trkpt lat="47.583170" lon="8.109033">
        <ele>315.651677</ele>
        <time>2021-11-20T09:15:02.197Z</time>
      </trkpt>
      <trkpt lat="47.583198" lon="8.108941">
        <ele>316.017618</ele>
        <time>2021-11-20T09:15:03.800Z</time>
      </trkpt>
      <trkpt lat="47.583381" lon="8.108515">
        <ele>317.848765</ele>
        <time>2021-11-20T09:15:17.432Z</time>
      </trkpt>
      <trkpt lat="47.583467" lon="8.108290">
        <ele>318.786398</ele>
        <time>2021-11-20T09:15:26.662Z</time>
      </trkpt>
      <trkpt lat="47.583556" lon="8.108122">
        <ele>319.560904</ele>
        <time>2021-11-20T09:15:31.706Z</time>
      </trkpt>
      <trkpt lat="47.583630" lon="8.107975">
        <ele>320.225934</ele>
        <time>2021-11-20T09:15:36.447Z</time>
      </trkpt>
      <trkpt lat="47.583681" lon="8.107874">
        <ele>320.683361</ele>
        <time>2021-11-20T09:15:41.688Z</time>
      </trkpt>
      <trkpt lat="47.583730" lon="8.107651">
        <ele>321.533688</ele>
        <time>2021-11-20T09:15:47.125Z</time>
      </trkpt>
      <trkpt lat="47.583716" lon="8.107419">
        <ele>322.378186</ele>
        <time>2021-11-20T09:15:54.977Z</time>
      </trkpt>
      <trkpt lat="47.583602" lon="8.107067">
        <ele>323.654100</ele>
        <time>2021-11-20T09:16:04.620Z</time>
      </trkpt>
      <trkpt lat="47.583588" lon="8.107045">
        <ele>323.751424</ele>
        <time>2021-11-20T09:16:06.276Z</time>
      </trkpt>
      <trkpt lat="47.583538" lon="8.106963">
        <ele>324.107115</ele>
        <time>2021-11-20T09:16:09.489Z</time>
      </trkpt>
      <trkpt lat="47.583538" lon="8.106963">
        <ele>324.107115</ele>
        <time>2021-11-20T09:16:09.706Z</time>
      </trkpt>
      <trkpt lat="47.583190" lon="8.106425">
        <ele>326.505668</ele>
        <time>2021-11-20T09:16:29.624Z</time>
      </trkpt>
      <trkpt lat="47.582759" lon="8.105824">
        <ele>329.328355</ele>
        <time>2021-11-20T09:16:46.896Z</time>
      </trkpt>
      <trkpt lat="47.582400" lon="8.105317">
        <ele>331.549741</ele>
        <time>2021-11-20T09:16:59.987Z</time>
      </trkpt>
      <trkpt lat="47.581932" lon="8.104673">
        <ele>333.815797</ele>
        <time>2021-11-20T09:17:13.832Z</time>
      </trkpt>
      <trkpt lat="47.581693" lon="8.104351">
        <ele>334.961897</ele>
        <time>2021-11-20T09:17:22.387Z</time>
      </trkpt>
      <trkpt lat="47.581644" lon="8.104206">
        <ele>335.350125</ele>
        <time>2021-11-20T09:17:27.135Z</time>
      </trkpt>
      <trkpt lat="47.581609" lon="8.103948">
        <ele>335.980100</ele>
        <time>2021-11-20T09:17:32.667Z</time>
      </trkpt>
      <trkpt lat="47.581621" lon="8.103861">
        <ele>336.192673</ele>
        <time>2021-11-20T09:17:35.011Z</time>
      </trkpt>
      <trkpt lat="47.581680" lon="8.103741">
        <ele>336.548142</ele>
        <time>2021-11-20T09:17:38.799Z</time>
      </trkpt>
      <trkpt lat="47.581700" lon="8.103708">
        <ele>336.654341</ele>
        <time>2021-11-20T09:17:40.897Z</time>
      </trkpt>
      <trkpt lat="47.581790" lon="8.103613">
        <ele>337.046425</ele>
        <time>2021-11-20T09:17:43.840Z</time>
      </trkpt>
      <trkpt lat="47.582067" lon="8.103520">
        <ele>338.513745</ele>
        <time>2021-11-20T09:17:55.108Z</time>
      </trkpt>
      <trkpt lat="47.582742" lon="8.103783">
        <ele>343.099262</ele>
        <time>2021-11-20T09:18:23.785Z</time>
      </trkpt>
      <trkpt lat="47.582925" lon="8.103781">
        <ele>344.301647</ele>
        <time>2021-11-20T09:18:31.928Z</time>
      </trkpt>
      <trkpt lat="47.583200" lon="8.103673">
        <ele>346.170782</ele>
        <time>2021-11-20T09:18:44.719Z</time>
      </trkpt>
      <trkpt lat="47.583203" lon="8.103671">
        <ele>346.192394</ele>
        <time>2021-11-20T09:18:45.102Z</time>
      </trkpt>
      <trkpt lat="47.583374" lon="8.103500">
        <ele>347.547598</ele>
        <time>2021-11-20T09:18:53.391Z</time>
      </trkpt>
      <trkpt lat="47.583567" lon="8.103131">
        <ele>349.616632</ele>
        <time>2021-11-20T09:19:06.334Z</time>
      </trkpt>
      <trkpt lat="47.583646" lon="8.102779">
        <ele>351.258884</ele>
        <time>2021-11-20T09:19:16.693Z</time>
      </trkpt>
      <trkpt lat="47.583644" lon="8.102396">
        <ele>352.954425</ele>
        <time>2021-11-20T09:19:27.055Z</time>
      </trkpt>
      <trkpt lat="47.583595" lon="8.102123">
        <ele>354.205016</ele>
        <time>2021-11-20T09:19:35.360Z</time>
      </trkpt>
      <trkpt lat="47.583531" lon="8.101951">
        <ele>355.074609</ele>
        <time>2021-11-20T09:19:40.580Z</time>
      </trkpt>
      <trkpt lat="47.583260" lon="8.101238">
        <ele>358.697599</ele>
        <time>2021-11-20T09:20:02.409Z</time>
      </trkpt>
      <trkpt lat="47.583184" lon="8.101026">
        <ele>359.760416</ele>
        <time>2021-11-20T09:20:09.090Z</time>
      </trkpt>
      <trkpt lat="47.583009" lon="8.100415">
        <ele>362.827743</ele>
        <time>2021-11-20T09:20:27.299Z</time>
      </trkpt>
      <trkpt lat="47.582956" lon="8.099712">
        <ele>366.217316</ele>
        <time>2021-11-20T09:20:49.192Z</time>
      </trkpt>
      <trkpt lat="47.582991" lon="8.099169">
        <ele>368.831087</ele>
        <time>2021-11-20T09:21:05.465Z</time>
      </trkpt>
      <trkpt lat="47.583155" lon="8.098591">
        <ele>371.835773</ele>
        <time>2021-11-20T09:21:24.065Z</time>
      </trkpt>
      <trkpt lat="47.583254" lon="8.098366">
        <ele>373.123016</ele>
        <time>2021-11-20T09:21:31.721Z</time>
      </trkpt>
      <trkpt lat="47.583314" lon="8.098261">
        <ele>373.782422</ele>
        <time>2021-11-20T09:21:36.590Z</time>
      </trkpt>
      <trkpt lat="47.583497" lon="8.097983">
        <ele>375.466874</ele>
        <time>2021-11-20T09:21:47.032Z</time>
      </trkpt>
      <trkpt lat="47.585194" lon="8.096078">
        <ele>388.577295</ele>
        <time>2021-11-20T09:23:11.560Z</time>
      </trkpt>
      <trkpt lat="47.585712" lon="8.095427">
        <ele>392.357954</ele>
        <time>2021-11-20T09:23:35.711Z</time>
      </trkpt>
      <trkpt lat="47.585861" lon="8.095144">
        <ele>393.706108</ele>
        <time>2021-11-20T09:23:44.332Z</time>
      </trkpt>
      <trkpt lat="47.585991" lon="8.094838">
        <ele>395.064132</ele>
        <time>2021-11-20T09:23:53.344Z</time>
      </trkpt>
      <trkpt lat="47.586207" lon="8.094026">
        <ele>398.752797</ele>
        <time>2021-11-20T09:24:13.968Z</time>
      </trkpt>
      <trkpt lat="47.586271" lon="8.093380">
        <ele>401.546973</ele>
        <time>2021-11-20T09:24:31.879Z</time>
      </trkpt>
      <trkpt lat="47.586159" lon="8.091548">
        <ele>410.037351</ele>
        <time>2021-11-20T09:25:25.314Z</time>
      </trkpt>
      <trkpt lat="47.586169" lon="8.091329">
        <ele>411.199381</ele>
        <time>2021-11-20T09:25:32.202Z</time>
      </trkpt>
      <trkpt lat="47.586207" lon="8.091057">
        <ele>412.669901</ele>
        <time>2021-11-20T09:25:40.510Z</time>
      </trkpt>
      <trkpt lat="47.586374" lon="8.090476">
        <ele>416.013334</ele>
        <time>2021-11-20T09:26:00.144Z</time>
      </trkpt>
      <trkpt lat="47.586940" lon="8.089282">
        <ele>423.906760</ele>
        <time>2021-11-20T09:26:49.159Z</time>
      </trkpt>
      <trkpt lat="47.587101" lon="8.088498">
        <ele>428.503799</ele>
        <time>2021-11-20T09:27:14.957Z</time>
      </trkpt>
      <trkpt lat="47.587338" lon="8.086784">
        <ele>437.578891</ele>
        <time>2021-11-20T09:28:12.589Z</time>
      </trkpt>
      <trkpt lat="47.587490" lon="8.085581">
        <ele>442.356733</ele>
        <time>2021-11-20T09:28:48.360Z</time>
      </trkpt>
      <trkpt lat="47.587553" lon="8.085157">
        <ele>444.051586</ele>
        <time>2021-11-20T09:28:58.522Z</time>
      </trkpt>
      <trkpt lat="47.587632" lon="8.084818">
        <ele>445.451701</ele>
        <time>2021-11-20T09:29:05.338Z</time>
      </trkpt>
      <trkpt lat="47.587753" lon="8.084390">
        <ele>445.983744</ele>
        <time>2021-11-20T09:29:12.498Z</time>
      </trkpt>
      <trkpt lat="47.587882" lon="8.084051">
        <ele>445.490668</ele>
        <time>2021-11-20T09:29:16.828Z</time>
      </trkpt>
      <trkpt lat="47.587959" lon="8.083838">
        <ele>445.184529</ele>
        <time>2021-11-20T09:29:19.010Z</time>
      </trkpt>
      <trkpt lat="47.588010" lon="8.083700">
        <ele>444.985190</ele>
        <time>2021-11-20T09:29:20.196Z</time>
      </trkpt>
      <trkpt lat="47.588165" lon="8.083275">
        <ele>444.373138</ele>
        <time>2021-11-20T09:29:23.724Z</time>
      </trkpt>
      <trkpt lat="47.588252" lon="8.083013">
        <ele>444.003198</ele>
        <time>2021-11-20T09:29:25.731Z</time>
      </trkpt>
      <trkpt lat="47.588280" lon="8.082843">
        <ele>443.781518</ele>
        <time>2021-11-20T09:29:26.857Z</time>
      </trkpt>
      <trkpt lat="47.588296" lon="8.082646">
        <ele>443.530161</ele>
        <time>2021-11-20T09:29:28.148Z</time>
      </trkpt>
      <trkpt lat="47.588313" lon="8.082124">
        <ele>442.802378</ele>
        <time>2021-11-20T09:29:31.483Z</time>
      </trkpt>
      <trkpt lat="47.588361" lon="8.081689">
        <ele>441.522062</ele>
        <time>2021-11-20T09:29:34.239Z</time>
      </trkpt>
      <trkpt lat="47.588407" lon="8.081450">
        <ele>440.800140</ele>
        <time>2021-11-20T09:29:35.799Z</time>
      </trkpt>
      <trkpt lat="47.588550" lon="8.080930">
        <ele>439.169004</ele>
        <time>2021-11-20T09:29:39.360Z</time>
      </trkpt>
      <trkpt lat="47.588590" lon="8.080813">
        <ele>438.787995</ele>
        <time>2021-11-20T09:29:40.162Z</time>
      </trkpt>
      <trkpt lat="47.588682" lon="8.080451">
        <ele>437.664349</ele>
        <time>2021-11-20T09:29:42.704Z</time>
      </trkpt>
      <trkpt lat="47.588725" lon="8.080182">
        <ele>436.861362</ele>
        <time>2021-11-20T09:29:44.530Z</time>
      </trkpt>
      <trkpt lat="47.588723" lon="8.079889">
        <ele>436.010265</ele>
        <time>2021-11-20T09:29:46.534Z</time>
      </trkpt>
      <trkpt lat="47.588698" lon="8.079659">
        <ele>435.333583</ele>
        <time>2021-11-20T09:29:48.131Z</time>
      </trkpt>
      <trkpt lat="47.588607" lon="8.079377">
        <ele>434.897437</ele>
        <time>2021-11-20T09:29:50.352Z</time>
      </trkpt>
      <trkpt lat="47.588405" lon="8.078961">
        <ele>434.348708</ele>
        <time>2021-11-20T09:29:54.103Z</time>
      </trkpt>
      <trkpt lat="47.588322" lon="8.078847">
        <ele>434.169133</ele>
        <time>2021-11-20T09:29:55.319Z</time>
      </trkpt>
      <trkpt lat="47.588175" lon="8.078681">
        <ele>433.875850</ele>
        <time>2021-11-20T09:29:57.474Z</time>
      </trkpt>
      <trkpt lat="47.587261" lon="8.077843">
        <ele>432.191151</ele>
        <time>2021-11-20T09:30:10.723Z</time>
      </trkpt>
      <trkpt lat="47.586782" lon="8.077419">
        <ele>431.431200</ele>
        <time>2021-11-20T09:30:17.786Z</time>
      </trkpt>
      <trkpt lat="47.586044" lon="8.076710">
        <ele>430.233272</ele>
        <time>2021-11-20T09:30:28.467Z</time>
      </trkpt>
      <trkpt lat="47.585216" lon="8.075691">
        <ele>427.379248</ele>
        <time>2021-11-20T09:30:39.597Z</time>
      </trkpt>
      <trkpt lat="47.584889" lon="8.075206">
        <ele>425.954388</ele>
        <time>2021-11-20T09:30:44.228Z</time>
      </trkpt>
      <trkpt lat="47.584571" lon="8.074688">
        <ele>424.499037</ele>
        <time>2021-11-20T09:30:48.916Z</time>
      </trkpt>
      <trkpt lat="47.584025" lon="8.073868">
        <ele>422.611297</ele>
        <time>2021-11-20T09:30:56.704Z</time>
      </trkpt>
      <trkpt lat="47.583806" lon="8.073622">
        <ele>421.957772</ele>
        <time>2021-11-20T09:30:59.484Z</time>
      </trkpt>
      <trkpt lat="47.582481" lon="8.072674">
        <ele>419.282140</ele>
        <time>2021-11-20T09:31:17.207Z</time>
      </trkpt>
      <trkpt lat="47.582255" lon="8.072455">
        <ele>418.972514</ele>
        <time>2021-11-20T09:31:21.446Z</time>
      </trkpt>
      <trkpt lat="47.582001" lon="8.072163">
        <ele>418.603917</ele>
        <time>2021-11-20T09:31:26.397Z</time>
      </trkpt>
      <trkpt lat="47.581639" lon="8.071564">
        <ele>417.967843</ele>
        <time>2021-11-20T09:31:32.316Z</time>
      </trkpt>
      <trkpt lat="47.581509" lon="8.071314">
        <ele>416.982025</ele>
        <time>2021-11-20T09:31:34.589Z</time>
      </trkpt>
      <trkpt lat="47.581397" lon="8.071044">
        <ele>415.992124</ele>
        <time>2021-11-20T09:31:36.741Z</time>
      </trkpt>
      <trkpt lat="47.581302" lon="8.070775">
        <ele>415.043854</ele>
        <time>2021-11-20T09:31:38.788Z</time>
      </trkpt>
      <trkpt lat="47.581200" lon="8.070445">
        <ele>413.910206</ele>
        <time>2021-11-20T09:31:41.181Z</time>
      </trkpt>
      <trkpt lat="47.581072" lon="8.070001">
        <ele>412.402244</ele>
        <time>2021-11-20T09:31:44.233Z</time>
      </trkpt>
      <trkpt lat="47.580540" lon="8.068640">
        <ele>406.923830</ele>
        <time>2021-11-20T09:31:53.838Z</time>
      </trkpt>
      <trkpt lat="47.580436" lon="8.068266">
        <ele>405.330900</ele>
        <time>2021-11-20T09:31:56.256Z</time>
      </trkpt>
      <trkpt lat="47.580169" lon="8.066489">
        <ele>398.764521</ele>
        <time>2021-11-20T09:32:07.694Z</time>
      </trkpt>
      <trkpt lat="47.579947" lon="8.065949">
        <ele>397.778624</ele>
        <time>2021-11-20T09:32:12.101Z</time>
      </trkpt>
      <trkpt lat="47.579737" lon="8.065632">
        <ele>397.085946</ele>
        <time>2021-11-20T09:32:15.521Z</time>
      </trkpt>
      <trkpt lat="47.579627" lon="8.065529">
        <ele>396.785251</ele>
        <time>2021-11-20T09:32:16.844Z</time>
      </trkpt>
      <trkpt lat="47.579504" lon="8.065414">
        <ele>396.449162</ele>
        <time>2021-11-20T09:32:18.582Z</time>
      </trkpt>
      <trkpt lat="47.579181" lon="8.065229">
        <ele>395.648875</ele>
        <time>2021-11-20T09:32:22.621Z</time>
      </trkpt>
      <trkpt lat="47.579104" lon="8.065203">
        <ele>395.466358</ele>
        <time>2021-11-20T09:32:23.969Z</time>
      </trkpt>
      <trkpt lat="47.579003" lon="8.065169">
        <ele>395.226987</ele>
        <time>2021-11-20T09:32:25.153Z</time>
      </trkpt>
      <trkpt lat="47.578623" lon="8.065188">
        <ele>394.774648</ele>
        <time>2021-11-20T09:32:29.992Z</time>
      </trkpt>
      <trkpt lat="47.578363" lon="8.065294">
        <ele>394.557668</ele>
        <time>2021-11-20T09:32:33.905Z</time>
      </trkpt>
      <trkpt lat="47.578177" lon="8.065370">
        <ele>394.402419</ele>
        <time>2021-11-20T09:32:36.030Z</time>
      </trkpt>
      <trkpt lat="47.577839" lon="8.065448">
        <ele>394.127168</ele>
        <time>2021-11-20T09:32:40.633Z</time>
      </trkpt>
      <trkpt lat="47.577609" lon="8.065406">
        <ele>393.940697</ele>
        <time>2021-11-20T09:32:43.936Z</time>
      </trkpt>
      <trkpt lat="47.577380" lon="8.065302">
        <ele>393.747975</ele>
        <time>2021-11-20T09:32:46.918Z</time>
      </trkpt>
      <trkpt lat="47.577043" lon="8.064953">
        <ele>393.517618</ele>
        <time>2021-11-20T09:32:51.860Z</time>
      </trkpt>
      <trkpt lat="47.576978" lon="8.064848">
        <ele>393.496594</ele>
        <time>2021-11-20T09:32:52.834Z</time>
      </trkpt>
      <trkpt lat="47.576848" lon="8.064544">
        <ele>393.443495</ele>
        <time>2021-11-20T09:32:55.957Z</time>
      </trkpt>
      <trkpt lat="47.576750" lon="8.064033">
        <ele>393.365121</ele>
        <time>2021-11-20T09:33:00.636Z</time>
      </trkpt>
      <trkpt lat="47.576737" lon="8.063729">
        <ele>393.320183</ele>
        <time>2021-11-20T09:33:03.313Z</time>
      </trkpt>
      <trkpt lat="47.576746" lon="8.063401">
        <ele>393.271754</ele>
        <time>2021-11-20T09:33:06.596Z</time>
      </trkpt>
      <trkpt lat="47.576746" lon="8.063355">
        <ele>393.264968</ele>
        <time>2021-11-20T09:33:06.955Z</time>
      </trkpt>
      <trkpt lat="47.576741" lon="8.063055">
        <ele>393.220696</ele>
        <time>2021-11-20T09:33:10.509Z</time>
      </trkpt>
      <trkpt lat="47.576712" lon="8.062700">
        <ele>393.167942</ele>
        <time>2021-11-20T09:33:14.783Z</time>
      </trkpt>
      <trkpt lat="47.576551" lon="8.062025">
        <ele>393.371318</ele>
        <time>2021-11-20T09:33:24.943Z</time>
      </trkpt>
      <trkpt lat="47.576045" lon="8.061150">
        <ele>393.729623</ele>
        <time>2021-11-20T09:33:39.034Z</time>
      </trkpt>
      <trkpt lat="47.575791" lon="8.060748">
        <ele>393.900862</ele>
        <time>2021-11-20T09:33:44.749Z</time>
      </trkpt>
      <trkpt lat="47.575642" lon="8.060451">
        <ele>393.917236</ele>
        <time>2021-11-20T09:33:48.693Z</time>
      </trkpt>
      <trkpt lat="47.575626" lon="8.060407">
        <ele>393.872050</ele>
        <time>2021-11-20T09:33:49.001Z</time>
      </trkpt>
      <trkpt lat="47.575229" lon="8.059329">
        <ele>392.761802</ele>
        <time>2021-11-20T09:33:58.641Z</time>
      </trkpt>
      <trkpt lat="47.575062" lon="8.059032">
        <ele>392.412285</ele>
        <time>2021-11-20T09:34:01.501Z</time>
      </trkpt>
      <trkpt lat="47.574691" lon="8.058686">
        <ele>391.824934</ele>
        <time>2021-11-20T09:34:06.226Z</time>
      </trkpt>
      <trkpt lat="47.574360" lon="8.057968">
        <ele>392.111962</ele>
        <time>2021-11-20T09:34:13.328Z</time>
      </trkpt>
      <trkpt lat="47.574225" lon="8.057606">
        <ele>392.478813</ele>
        <time>2021-11-20T09:34:17.389Z</time>
      </trkpt>
      <trkpt lat="47.574181" lon="8.057386">
        <ele>392.682329</ele>
        <time>2021-11-20T09:34:20.890Z</time>
      </trkpt>
      <trkpt lat="47.574121" lon="8.056069">
        <ele>393.853058</ele>
        <time>2021-11-20T09:34:42.209Z</time>
      </trkpt>
      <trkpt lat="47.573993" lon="8.055472">
        <ele>395.161310</ele>
        <time>2021-11-20T09:34:55.415Z</time>
      </trkpt>
      <trkpt lat="47.573806" lon="8.055119">
        <ele>396.205732</ele>
        <time>2021-11-20T09:35:06.402Z</time>
      </trkpt>
      <trkpt lat="47.573098" lon="8.054422">
        <ele>399.137390</ele>
        <time>2021-11-20T09:35:32.246Z</time>
      </trkpt>
      <trkpt lat="47.572855" lon="8.053943">
        <ele>400.159476</ele>
        <time>2021-11-20T09:35:42.073Z</time>
      </trkpt>
      <trkpt lat="47.572769" lon="8.053639">
        <ele>400.180136</ele>
        <time>2021-11-20T09:35:46.262Z</time>
      </trkpt>
      <trkpt lat="47.572728" lon="8.053331">
        <ele>400.199811</ele>
        <time>2021-11-20T09:35:50.261Z</time>
      </trkpt>
      <trkpt lat="47.572645" lon="8.052612">
        <ele>400.245527</ele>
        <time>2021-11-20T09:35:57.066Z</time>
      </trkpt>
      <trkpt lat="47.572498" lon="8.051744">
        <ele>400.301615</ele>
        <time>2021-11-20T09:36:04.775Z</time>
      </trkpt>
      <trkpt lat="47.572428" lon="8.051523">
        <ele>400.314786</ele>
        <time>2021-11-20T09:36:06.589Z</time>
      </trkpt>
      <trkpt lat="47.572078" lon="8.050690">
        <ele>400.179310</ele>
        <time>2021-11-20T09:36:14.204Z</time>
      </trkpt>
      <trkpt lat="47.571850" lon="8.050064">
        <ele>400.081100</ele>
        <time>2021-11-20T09:36:20.547Z</time>
      </trkpt>
      <trkpt lat="47.571420" lon="8.048138">
        <ele>401.212142</ele>
        <time>2021-11-20T09:36:47.321Z</time>
      </trkpt>
      <trkpt lat="47.571393" lon="8.048046">
        <ele>401.331090</ele>
        <time>2021-11-20T09:36:49.110Z</time>
      </trkpt>
      <trkpt lat="47.571376" lon="8.047921">
        <ele>401.482271</ele>
        <time>2021-11-20T09:36:51.056Z</time>
      </trkpt>
      <trkpt lat="47.571343" lon="8.047807">
        <ele>401.629346</ele>
        <time>2021-11-20T09:36:52.699Z</time>
      </trkpt>
      <trkpt lat="47.571300" lon="8.047715">
        <ele>401.762039</ele>
        <time>2021-11-20T09:36:54.387Z</time>
      </trkpt>
      <trkpt lat="47.571299" lon="8.047673">
        <ele>401.811865</ele>
        <time>2021-11-20T09:36:55.020Z</time>
      </trkpt>
      <trkpt lat="47.571296" lon="8.047649">
        <ele>401.840804</ele>
        <time>2021-11-20T09:36:55.347Z</time>
      </trkpt>
      <trkpt lat="47.571290" lon="8.047622">
        <ele>401.874507</ele>
        <time>2021-11-20T09:36:55.880Z</time>
      </trkpt>
      <trkpt lat="47.571280" lon="8.047594">
        <ele>401.912068</ele>
        <time>2021-11-20T09:36:56.501Z</time>
      </trkpt>
      <trkpt lat="47.571226" lon="8.047517">
        <ele>402.043746</ele>
        <time>2021-11-20T09:36:58.231Z</time>
      </trkpt>
      <trkpt lat="47.571209" lon="8.047506">
        <ele>402.076343</ele>
        <time>2021-11-20T09:36:58.769Z</time>
      </trkpt>
      <trkpt lat="47.571191" lon="8.047498">
        <ele>402.109366</ele>
        <time>2021-11-20T09:36:59.233Z</time>
      </trkpt>
      <trkpt lat="47.571178" lon="8.047495">
        <ele>402.132486</ele>
        <time>2021-11-20T09:36:59.486Z</time>
      </trkpt>
      <trkpt lat="47.571161" lon="8.047494">
        <ele>402.162384</ele>
        <time>2021-11-20T09:36:59.874Z</time>
      </trkpt>
      <trkpt lat="47.570990" lon="8.047289">
        <ele>402.548872</ele>
        <time>2021-11-20T09:37:05.132Z</time>
      </trkpt>
      <trkpt lat="47.570703" lon="8.046690">
        <ele>403.087498</ele>
        <time>2021-11-20T09:37:17.133Z</time>
      </trkpt>
      <trkpt lat="47.570454" lon="8.045878">
        <ele>403.014484</ele>
        <time>2021-11-20T09:37:31.037Z</time>
      </trkpt>
      <trkpt lat="47.570410" lon="8.045595">
        <ele>402.990711</ele>
        <time>2021-11-20T09:37:33.252Z</time>
      </trkpt>
      <trkpt lat="47.570405" lon="8.045482">
        <ele>402.981441</ele>
        <time>2021-11-20T09:37:34.825Z</time>
      </trkpt>
      <trkpt lat="47.570393" lon="8.045065">
        <ele>402.947274</ele>
        <time>2021-11-20T09:37:37.960Z</time>
      </trkpt>
      <trkpt lat="47.570401" lon="8.044853">
        <ele>402.929893</ele>
        <time>2021-11-20T09:37:39.954Z</time>
      </trkpt>
      <trkpt lat="47.570407" lon="8.044709">
        <ele>402.918082</ele>
        <time>2021-11-20T09:37:41.255Z</time>
      </trkpt>
      <trkpt lat="47.570449" lon="8.044391">
        <ele>402.891557</ele>
        <time>2021-11-20T09:37:43.494Z</time>
      </trkpt>
      <trkpt lat="47.570458" lon="8.044327">
        <ele>402.722822</ele>
        <time>2021-11-20T09:37:43.963Z</time>
      </trkpt>
      <trkpt lat="47.570556" lon="8.043717">
        <ele>400.820653</ele>
        <time>2021-11-20T09:37:48.268Z</time>
      </trkpt>
      <trkpt lat="47.570553" lon="8.043603">
        <ele>400.474572</ele>
        <time>2021-11-20T09:37:49.036Z</time>
      </trkpt>
      <trkpt lat="47.570550" lon="8.043505">
        <ele>400.176984</ele>
        <time>2021-11-20T09:37:49.599Z</time>
      </trkpt>
      <trkpt lat="47.570472" lon="8.043006">
        <ele>398.623176</ele>
        <time>2021-11-20T09:37:52.924Z</time>
      </trkpt>
      <trkpt lat="47.570037" lon="8.042001">
        <ele>395.001060</ele>
        <time>2021-11-20T09:38:00.461Z</time>
      </trkpt>
      <trkpt lat="47.569947" lon="8.041607">
        <ele>393.677967</ele>
        <time>2021-11-20T09:38:03.005Z</time>
      </trkpt>
      <trkpt lat="47.569913" lon="8.041464">
        <ele>393.191564</ele>
        <time>2021-11-20T09:38:03.981Z</time>
      </trkpt>
      <trkpt lat="47.569814" lon="8.040942">
        <ele>391.452057</ele>
        <time>2021-11-20T09:38:07.471Z</time>
      </trkpt>
      <trkpt lat="47.569707" lon="8.040137">
        <ele>388.819932</ele>
        <time>2021-11-20T09:38:12.711Z</time>
      </trkpt>
      <trkpt lat="47.569695" lon="8.040052">
        <ele>388.541341</ele>
        <time>2021-11-20T09:38:13.253Z</time>
      </trkpt>
      <trkpt lat="47.569647" lon="8.039770">
        <ele>387.608322</ele>
        <time>2021-11-20T09:38:15.140Z</time>
      </trkpt>
      <trkpt lat="47.569586" lon="8.039479">
        <ele>386.630755</ele>
        <time>2021-11-20T09:38:17.125Z</time>
      </trkpt>
      <trkpt lat="47.569469" lon="8.039531">
        <ele>386.093348</ele>
        <time>2021-11-20T09:38:18.351Z</time>
      </trkpt>
      <trkpt lat="47.569259" lon="8.039574">
        <ele>385.302404</ele>
        <time>2021-11-20T09:38:20.489Z</time>
      </trkpt>
      <trkpt lat="47.569159" lon="8.039571">
        <ele>384.929231</ele>
        <time>2021-11-20T09:38:21.470Z</time>
      </trkpt>
      <trkpt lat="47.569103" lon="8.039554">
        <ele>384.715959</ele>
        <time>2021-11-20T09:38:22.046Z</time>
      </trkpt>
      <trkpt lat="47.569043" lon="8.039527">
        <ele>384.482010</ele>
        <time>2021-11-20T09:38:22.707Z</time>
      </trkpt>
      <trkpt lat="47.568992" lon="8.039490">
        <ele>384.270159</ele>
        <time>2021-11-20T09:38:23.293Z</time>
      </trkpt>
      <trkpt lat="47.568916" lon="8.039421">
        <ele>383.937635</ele>
        <time>2021-11-20T09:38:24.137Z</time>
      </trkpt>
      <trkpt lat="47.568715" lon="8.039132">
        <ele>382.892818</ele>
        <time>2021-11-20T09:38:26.945Z</time>
      </trkpt>
      <trkpt lat="47.568633" lon="8.038920">
        <ele>382.277675</ele>
        <time>2021-11-20T09:38:28.531Z</time>
      </trkpt>
      <trkpt lat="47.568562" lon="8.038275">
        <ele>380.632543</ele>
        <time>2021-11-20T09:38:32.895Z</time>
      </trkpt>
      <trkpt lat="47.568540" lon="8.037665">
        <ele>379.109443</ele>
        <time>2021-11-20T09:38:36.977Z</time>
      </trkpt>
      <trkpt lat="47.568537" lon="8.037570">
        <ele>378.877902</ele>
        <time>2021-11-20T09:38:37.612Z</time>
      </trkpt>
      <trkpt lat="47.568512" lon="8.037290">
        <ele>378.190269</ele>
        <time>2021-11-20T09:38:39.481Z</time>
      </trkpt>
      <trkpt lat="47.568395" lon="8.036764">
        <ele>376.841866</ele>
        <time>2021-11-20T09:38:43.290Z</time>
      </trkpt>
      <trkpt lat="47.568240" lon="8.036333">
        <ele>375.652795</ele>
        <time>2021-11-20T09:38:46.602Z</time>
      </trkpt>
      <trkpt lat="47.568018" lon="8.035824">
        <ele>374.177201</ele>
        <time>2021-11-20T09:38:50.633Z</time>
      </trkpt>
      <trkpt lat="47.567673" lon="8.035162">
        <ele>371.841753</ele>
        <time>2021-11-20T09:38:56.225Z</time>
      </trkpt>
      <trkpt lat="47.567313" lon="8.034591">
        <ele>369.314031</ele>
        <time>2021-11-20T09:39:01.301Z</time>
      </trkpt>
      <trkpt lat="47.567079" lon="8.034308">
        <ele>367.866190</ele>
        <time>2021-11-20T09:39:04.104Z</time>
      </trkpt>
      <trkpt lat="47.566763" lon="8.034017">
        <ele>366.082728</ele>
        <time>2021-11-20T09:39:07.604Z</time>
      </trkpt>
      <trkpt lat="47.566670" lon="8.033967">
        <ele>365.608473</ele>
        <time>2021-11-20T09:39:08.519Z</time>
      </trkpt>
      <trkpt lat="47.566321" lon="8.033776">
        <ele>363.796930</ele>
        <time>2021-11-20T09:39:11.999Z</time>
      </trkpt>
      <trkpt lat="47.566001" lon="8.033711">
        <ele>362.176504</ele>
        <time>2021-11-20T09:39:15.050Z</time>
      </trkpt>
      <trkpt lat="47.565871" lon="8.033704">
        <ele>361.523873</ele>
        <time>2021-11-20T09:39:16.195Z</time>
      </trkpt>
      <trkpt lat="47.565189" lon="8.033686">
        <ele>358.101783</ele>
        <time>2021-11-20T09:39:22.601Z</time>
      </trkpt>
      <trkpt lat="47.564933" lon="8.033469">
        <ele>356.622212</ele>
        <time>2021-11-20T09:39:25.444Z</time>
      </trkpt>
      <trkpt lat="47.564702" lon="8.033000">
        <ele>354.990306</ele>
        <time>2021-11-20T09:39:29.189Z</time>
      </trkpt>
      <trkpt lat="47.564678" lon="8.032921">
        <ele>354.827891</ele>
        <time>2021-11-20T09:39:29.706Z</time>
      </trkpt>
      <trkpt lat="47.564569" lon="8.032525">
        <ele>354.026141</ele>
        <time>2021-11-20T09:39:32.721Z</time>
      </trkpt>
      <trkpt lat="47.564511" lon="8.032311">
        <ele>353.593814</ele>
        <time>2021-11-20T09:39:34.305Z</time>
      </trkpt>
      <trkpt lat="47.564393" lon="8.032053">
        <ele>353.009519</ele>
        <time>2021-11-20T09:39:36.503Z</time>
      </trkpt>
      <trkpt lat="47.563725" lon="8.031208">
        <ele>350.569520</ele>
        <time>2021-11-20T09:39:45.904Z</time>
      </trkpt>
      <trkpt lat="47.563394" lon="8.030849">
        <ele>349.909234</ele>
        <time>2021-11-20T09:39:50.850Z</time>
      </trkpt>
      <trkpt lat="47.563345" lon="8.030793">
        <ele>349.821616</ele>
        <time>2021-11-20T09:39:51.601Z</time>
      </trkpt>
      <trkpt lat="47.563183" lon="8.030459">
        <ele>349.428604</ele>
        <time>2021-11-20T09:39:54.971Z</time>
      </trkpt>
      <trkpt lat="47.563158" lon="8.030396">
        <ele>349.358773</ele>
        <time>2021-11-20T09:39:55.595Z</time>
      </trkpt>
      <trkpt lat="47.562995" lon="8.029987">
        <ele>348.904919</ele>
        <time>2021-11-20T09:39:59.396Z</time>
      </trkpt>
      <trkpt lat="47.562908" lon="8.029661">
        <ele>348.569961</ele>
        <time>2021-11-20T09:40:02.109Z</time>
      </trkpt>
      <trkpt lat="47.562862" lon="8.029514">
        <ele>348.415139</ele>
        <time>2021-11-20T09:40:03.342Z</time>
      </trkpt>
      <trkpt lat="47.562762" lon="8.029240">
        <ele>348.117502</ele>
        <time>2021-11-20T09:40:05.762Z</time>
      </trkpt>
      <trkpt lat="47.562597" lon="8.028906">
        <ele>347.673885</ele>
        <time>2021-11-20T09:40:09.014Z</time>
      </trkpt>
      <trkpt lat="47.562491" lon="8.028727">
        <ele>347.367345</ele>
        <time>2021-11-20T09:40:10.853Z</time>
      </trkpt>
      <trkpt lat="47.562445" lon="8.028648">
        <ele>347.233036</ele>
        <time>2021-11-20T09:40:11.671Z</time>
      </trkpt>
      <trkpt lat="47.562307" lon="8.028432">
        <ele>346.850165</ele>
        <time>2021-11-20T09:40:14.014Z</time>
      </trkpt>
      <trkpt lat="47.561969" lon="8.028038">
        <ele>346.029878</ele>
        <time>2021-11-20T09:40:18.904Z</time>
      </trkpt>
      <trkpt lat="47.561018" lon="8.027383">
        <ele>343.734142</ele>
        <time>2021-11-20T09:40:30.138Z</time>
      </trkpt>
      <trkpt lat="47.560798" lon="8.027161">
        <ele>342.851721</ele>
        <time>2021-11-20T09:40:32.937Z</time>
      </trkpt>
      <trkpt lat="47.560481" lon="8.026632">
        <ele>341.268940</ele>
        <time>2021-11-20T09:40:37.883Z</time>
      </trkpt>
      <trkpt lat="47.560381" lon="8.026393">
        <ele>340.639797</ele>
        <time>2021-11-20T09:40:39.971Z</time>
      </trkpt>
      <trkpt lat="47.560303" lon="8.026133">
        <ele>340.003221</ele>
        <time>2021-11-20T09:40:41.876Z</time>
      </trkpt>
      <trkpt lat="47.560078" lon="8.025111">
        <ele>336.844382</ele>
        <time>2021-11-20T09:40:48.771Z</time>
      </trkpt>
      <trkpt lat="47.559958" lon="8.024826">
        <ele>335.440481</ele>
        <time>2021-11-20T09:40:50.854Z</time>
      </trkpt>
      <trkpt lat="47.559502" lon="8.024274">
        <ele>331.793968</ele>
        <time>2021-11-20T09:40:56.207Z</time>
      </trkpt>
      <trkpt lat="47.559393" lon="8.024159">
        <ele>330.965312</ele>
        <time>2021-11-20T09:40:57.393Z</time>
      </trkpt>
      <trkpt lat="47.558843" lon="8.023745">
        <ele>327.134972</ele>
        <time>2021-11-20T09:41:02.991Z</time>
      </trkpt>
      <trkpt lat="47.558325" lon="8.023268">
        <ele>323.153043</ele>
        <time>2021-11-20T09:41:08.453Z</time>
      </trkpt>
      <trkpt lat="47.557721" lon="8.022248">
        <ele>317.173874</ele>
        <time>2021-11-20T09:41:16.705Z</time>
      </trkpt>
      <trkpt lat="47.557374" lon="8.021813">
        <ele>314.585335</ele>
        <time>2021-11-20T09:41:20.991Z</time>
      </trkpt>
      <trkpt lat="47.557354" lon="8.021790">
        <ele>314.465525</ele>
        <time>2021-11-20T09:41:21.207Z</time>
      </trkpt>
      <trkpt lat="47.557232" lon="8.021693">
        <ele>313.810298</ele>
        <time>2021-11-20T09:41:22.579Z</time>
      </trkpt>
      <trkpt lat="47.557190" lon="8.021670">
        <ele>313.598394</ele>
        <time>2021-11-20T09:41:22.967Z</time>
      </trkpt>
      <trkpt lat="47.557042" lon="8.021611">
        <ele>312.873080</ele>
        <time>2021-11-20T09:41:24.483Z</time>
      </trkpt>
      <trkpt lat="47.556863" lon="8.021668">
        <ele>312.006623</ele>
        <time>2021-11-20T09:41:26.203Z</time>
      </trkpt>
      <trkpt lat="47.556133" lon="8.022482">
        <ele>307.682992</ele>
        <time>2021-11-20T09:41:34.933Z</time>
      </trkpt>
      <trkpt lat="47.555814" lon="8.022759">
        <ele>306.212716</ele>
        <time>2021-11-20T09:41:38.533Z</time>
      </trkpt>
      <trkpt lat="47.555384" lon="8.022959">
        <ele>304.603461</ele>
        <time>2021-11-20T09:41:43.092Z</time>
      </trkpt>
      <trkpt lat="47.555320" lon="8.022972">
        <ele>304.372800</ele>
        <time>2021-11-20T09:41:43.740Z</time>
      </trkpt>
      <trkpt lat="47.555073" lon="8.023022">
        <ele>303.482651</ele>
        <time>2021-11-20T09:41:46.293Z</time>
      </trkpt>
      <trkpt lat="47.554871" lon="8.023042">
        <ele>302.759766</ele>
        <time>2021-11-20T09:41:48.283Z</time>
      </trkpt>
      <trkpt lat="47.554701" lon="8.023055">
        <ele>302.151944</ele>
        <time>2021-11-20T09:41:49.982Z</time>
      </trkpt>
      <trkpt lat="47.554299" lon="8.023080">
        <ele>300.715268</ele>
        <time>2021-11-20T09:41:53.987Z</time>
      </trkpt>
      <trkpt lat="47.554021" lon="8.023095">
        <ele>299.904137</ele>
        <time>2021-11-20T09:41:56.808Z</time>
      </trkpt>
      <trkpt lat="47.553811" lon="8.023113">
        <ele>299.300579</ele>
        <time>2021-11-20T09:41:58.881Z</time>
      </trkpt>
      <trkpt lat="47.553732" lon="8.023128">
        <ele>299.072051</ele>
        <time>2021-11-20T09:41:59.693Z</time>
      </trkpt>
      <trkpt lat="47.553719" lon="8.022919">
        <ele>298.665612</ele>
        <time>2021-11-20T09:42:01.097Z</time>
      </trkpt>
      <trkpt lat="47.553699" lon="8.022667">
        <ele>298.174257</ele>
        <time>2021-11-20T09:42:02.794Z</time>
      </trkpt>
      <trkpt lat="47.553695" lon="8.022619">
        <ele>298.080600</ele>
        <time>2021-11-20T09:42:03.124Z</time>
      </trkpt>
      <trkpt lat="47.553685" lon="8.022501">
        <ele>297.850301</ele>
        <time>2021-11-20T09:42:03.922Z</time>
      </trkpt>
      <trkpt lat="47.553657" lon="8.022146">
        <ele>297.158172</ele>
        <time>2021-11-20T09:42:06.438Z</time>
      </trkpt>
      <trkpt lat="47.553619" lon="8.021667">
        <ele>296.224210</ele>
        <time>2021-11-20T09:42:09.935Z</time>
      </trkpt>
      <trkpt lat="47.553615" lon="8.021606">
        <ele>296.105529</ele>
        <time>2021-11-20T09:42:10.424Z</time>
      </trkpt>
      <trkpt lat="47.553614" lon="8.021587">
        <ele>296.068624</ele>
        <time>2021-11-20T09:42:10.559Z</time>
      </trkpt>
      <trkpt lat="47.553607" lon="8.021497">
        <ele>295.893187</ele>
        <time>2021-11-20T09:42:11.239Z</time>
      </trkpt>
      <trkpt lat="47.553565" lon="8.021501">
        <ele>295.772428</ele>
        <time>2021-11-20T09:42:11.681Z</time>
      </trkpt>
      <trkpt lat="47.553305" lon="8.021505">
        <ele>295.344520</ele>
        <time>2021-11-20T09:42:14.741Z</time>
      </trkpt>
      <trkpt lat="47.553291" lon="8.021502">
        <ele>295.331870</ele>
        <time>2021-11-20T09:42:14.898Z</time>
      </trkpt>
      <trkpt lat="47.553266" lon="8.021493">
        <ele>295.308865</ele>
        <time>2021-11-20T09:42:15.184Z</time>
      </trkpt>
      <trkpt lat="47.553232" lon="8.021484">
        <ele>295.277980</ele>
        <time>2021-11-20T09:42:15.587Z</time>
      </trkpt>
      <trkpt lat="47.553183" lon="8.021466">
        <ele>295.232836</ele>
        <time>2021-11-20T09:42:16.124Z</time>
      </trkpt>
      <trkpt lat="47.552959" lon="8.021335">
        <ele>295.017493</ele>
        <time>2021-11-20T09:42:18.960Z</time>
      </trkpt>
      <trkpt lat="47.552776" lon="8.021316">
        <ele>294.853449</ele>
        <time>2021-11-20T09:42:21.091Z</time>
      </trkpt>
      <trkpt lat="47.552813" lon="8.020595">
        <ele>294.417056</ele>
        <time>2021-11-20T09:42:27.385Z</time>
      </trkpt>
      <trkpt lat="47.552872" lon="8.020109">
        <ele>294.119039</ele>
        <time>2021-11-20T09:42:31.662Z</time>
      </trkpt>
      <trkpt lat="47.552879" lon="8.020034">
        <ele>294.073344</ele>
        <time>2021-11-20T09:42:32.663Z</time>
      </trkpt>
      <trkpt lat="47.552961" lon="8.019989">
        <ele>293.995151</ele>
        <time>2021-11-20T09:42:33.767Z</time>
      </trkpt>
      <trkpt lat="47.553031" lon="8.019915">
        <ele>293.918256</ele>
        <time>2021-11-20T09:42:34.891Z</time>
      </trkpt>
      <trkpt lat="47.553056" lon="8.019871">
        <ele>293.883544</ele>
        <time>2021-11-20T09:42:35.410Z</time>
      </trkpt>
      <trkpt lat="47.553064" lon="8.019820">
        <ele>293.871660</ele>
        <time>2021-11-20T09:42:35.969Z</time>
      </trkpt>
      <trkpt lat="47.553055" lon="8.019647">
        <ele>293.840066</ele>
        <time>2021-11-20T09:42:37.992Z</time>
      </trkpt>
      <trkpt lat="47.553030" lon="8.019182">
        <ele>293.755127</ele>
        <time>2021-11-20T09:42:42.636Z</time>
      </trkpt>
      <trkpt lat="47.553028" lon="8.018988">
        <ele>293.719798</ele>
        <time>2021-11-20T09:42:44.917Z</time>
      </trkpt>
      <trkpt lat="47.553012" lon="8.018748">
        <ele>293.675885</ele>
        <time>2021-11-20T09:42:47.414Z</time>
      </trkpt>
      <trkpt lat="47.553159" lon="8.017677">
        <ele>293.476878</ele>
        <time>2021-11-20T09:42:57.737Z</time>
      </trkpt>
      <trkpt lat="47.553229" lon="8.017328">
        <ele>293.410583</ele>
        <time>2021-11-20T09:43:00.687Z</time>
      </trkpt>
      <trkpt lat="47.553318" lon="8.017064">
        <ele>293.303471</ele>
        <time>2021-11-20T09:43:03.175Z</time>
      </trkpt>
      <trkpt lat="47.553715" lon="8.016236">
        <ele>292.859186</ele>
        <time>2021-11-20T09:43:12.014Z</time>
      </trkpt>
      <trkpt lat="47.553882" lon="8.015749">
        <ele>292.620239</ele>
        <time>2021-11-20T09:43:16.754Z</time>
      </trkpt>
      <trkpt lat="47.553910" lon="8.015626">
        <ele>292.563458</ele>
        <time>2021-11-20T09:43:17.774Z</time>
      </trkpt>
      <trkpt lat="47.554329" lon="8.013807">
        <ele>292.048768</ele>
        <time>2021-11-20T09:43:34.829Z</time>
      </trkpt>
      <trkpt lat="47.554393" lon="8.013577">
        <ele>292.010007</ele>
        <time>2021-11-20T09:43:36.961Z</time>
      </trkpt>
      <trkpt lat="47.554546" lon="8.013079">
        <ele>291.924757</ele>
        <time>2021-11-20T09:43:42.314Z</time>
      </trkpt>
      <trkpt lat="47.554665" lon="8.012540">
        <ele>291.836400</ele>
        <time>2021-11-20T09:43:48.301Z</time>
      </trkpt>
      <trkpt lat="47.554682" lon="8.012449">
        <ele>291.821689</ele>
        <time>2021-11-20T09:43:49.409Z</time>
      </trkpt>
      <trkpt lat="47.554818" lon="8.011865">
        <ele>292.117456</ele>
        <time>2021-11-20T09:43:56.220Z</time>
      </trkpt>
      <trkpt lat="47.555069" lon="8.010772">
        <ele>292.734479</ele>
        <time>2021-11-20T09:44:10.502Z</time>
      </trkpt>
      <trkpt lat="47.555124" lon="8.010557">
        <ele>292.857358</ele>
        <time>2021-11-20T09:44:13.569Z</time>
      </trkpt>
      <trkpt lat="47.555373" lon="8.009365">
        <ele>293.536550</ele>
        <time>2021-11-20T09:44:29.355Z</time>
      </trkpt>
      <trkpt lat="47.555492" lon="8.008854">
        <ele>293.837906</ele>
        <time>2021-11-20T09:44:36.178Z</time>
      </trkpt>
      <trkpt lat="47.555689" lon="8.008075">
        <ele>294.301671</ele>
        <time>2021-11-20T09:44:46.387Z</time>
      </trkpt>
      <trkpt lat="47.556414" lon="8.004608">
        <ele>295.981741</ele>
        <time>2021-11-20T09:45:28.956Z</time>
      </trkpt>
      <trkpt lat="47.556859" lon="8.003033">
        <ele>296.529401</ele>
        <time>2021-11-20T09:45:49.234Z</time>
      </trkpt>
      <trkpt lat="47.557421" lon="8.000151">
        <ele>296.576974</ele>
        <time>2021-11-20T09:46:19.547Z</time>
      </trkpt>
      <trkpt lat="47.557552" lon="7.999488">
        <ele>296.422302</ele>
        <time>2021-11-20T09:46:25.521Z</time>
      </trkpt>
      <trkpt lat="47.557569" lon="7.999330">
        <ele>296.353025</ele>
        <time>2021-11-20T09:46:26.847Z</time>
      </trkpt>
      <trkpt lat="47.557590" lon="7.999121">
        <ele>296.261533</ele>
        <time>2021-11-20T09:46:31.869Z</time>
      </trkpt>
      <trkpt lat="47.557595" lon="7.999065">
        <ele>296.237074</ele>
        <time>2021-11-20T09:46:32.364Z</time>
      </trkpt>
      <trkpt lat="47.557611" lon="7.998828">
        <ele>296.133943</ele>
        <time>2021-11-20T09:46:34.334Z</time>
      </trkpt>
      <trkpt lat="47.557666" lon="7.996934">
        <ele>295.352034</ele>
        <time>2021-11-20T09:46:50.657Z</time>
      </trkpt>
      <trkpt lat="47.557377" lon="7.991413">
        <ele>294.334182</ele>
        <time>2021-11-20T09:47:43.001Z</time>
      </trkpt>
      <trkpt lat="47.557298" lon="7.990679">
        <ele>294.140090</ele>
        <time>2021-11-20T09:47:49.735Z</time>
      </trkpt>
      <trkpt lat="47.557185" lon="7.988787">
        <ele>293.670277</ele>
        <time>2021-11-20T09:48:06.941Z</time>
      </trkpt>
      <trkpt lat="47.556668" lon="7.978159">
        <ele>291.492308</ele>
        <time>2021-11-20T09:49:46.814Z</time>
      </trkpt>
      <trkpt lat="47.556769" lon="7.976421">
        <ele>290.554737</ele>
        <time>2021-11-20T09:50:01.312Z</time>
      </trkpt>
      <trkpt lat="47.557045" lon="7.974526">
        <ele>289.761175</ele>
        <time>2021-11-20T09:50:17.516Z</time>
      </trkpt>
      <trkpt lat="47.557108" lon="7.974186">
        <ele>289.635685</ele>
        <time>2021-11-20T09:50:20.650Z</time>
      </trkpt>
      <trkpt lat="47.557235" lon="7.973507">
        <ele>289.384908</ele>
        <time>2021-11-20T09:50:27.596Z</time>
      </trkpt>
      <trkpt lat="47.557323" lon="7.972992">
        <ele>289.368225</ele>
        <time>2021-11-20T09:50:33.178Z</time>
      </trkpt>
      <trkpt lat="47.557419" lon="7.972636">
        <ele>289.458630</ele>
        <time>2021-11-20T09:50:37.247Z</time>
      </trkpt>
      <trkpt lat="47.557538" lon="7.972196">
        <ele>289.570411</ele>
        <time>2021-11-20T09:50:42.615Z</time>
      </trkpt>
      <trkpt lat="47.557756" lon="7.971140">
        <ele>289.830823</ele>
        <time>2021-11-20T09:50:55.496Z</time>
      </trkpt>
      <trkpt lat="47.558045" lon="7.969704">
        <ele>289.904260</ele>
        <time>2021-11-20T09:51:10.796Z</time>
      </trkpt>
      <trkpt lat="47.558225" lon="7.968807">
        <ele>289.883783</ele>
        <time>2021-11-20T09:51:19.953Z</time>
      </trkpt>
      <trkpt lat="47.558296" lon="7.968403">
        <ele>289.874649</ele>
        <time>2021-11-20T09:51:23.894Z</time>
      </trkpt>
      <trkpt lat="47.558313" lon="7.968259">
        <ele>289.871450</ele>
        <time>2021-11-20T09:51:25.127Z</time>
      </trkpt>
      <trkpt lat="47.558327" lon="7.968108">
        <ele>289.875627</ele>
        <time>2021-11-20T09:51:26.712Z</time>
      </trkpt>
      <trkpt lat="47.558430" lon="7.967788">
        <ele>289.904403</ele>
        <time>2021-11-20T09:51:29.936Z</time>
      </trkpt>
      <trkpt lat="47.558448" lon="7.967701">
        <ele>289.911789</ele>
        <time>2021-11-20T09:51:30.870Z</time>
      </trkpt>
      <trkpt lat="47.558606" lon="7.966985">
        <ele>289.972931</ele>
        <time>2021-11-20T09:51:38.704Z</time>
      </trkpt>
      <trkpt lat="47.558732" lon="7.966356">
        <ele>290.026186</ele>
        <time>2021-11-20T09:51:45.615Z</time>
      </trkpt>
      <trkpt lat="47.558949" lon="7.965326">
        <ele>290.056690</ele>
        <time>2021-11-20T09:51:57.510Z</time>
      </trkpt>
      <trkpt lat="47.559029" lon="7.964894">
        <ele>290.018201</ele>
        <time>2021-11-20T09:52:02.264Z</time>
      </trkpt>
      <trkpt lat="47.559232" lon="7.963800">
        <ele>289.920717</ele>
        <time>2021-11-20T09:52:13.292Z</time>
      </trkpt>
      <trkpt lat="47.559368" lon="7.962709">
        <ele>289.671163</ele>
        <time>2021-11-20T09:52:23.212Z</time>
      </trkpt>
      <trkpt lat="47.559408" lon="7.961845">
        <ele>289.234084</ele>
        <time>2021-11-20T09:52:30.265Z</time>
      </trkpt>
      <trkpt lat="47.559406" lon="7.960730">
        <ele>288.671349</ele>
        <time>2021-11-20T09:52:39.638Z</time>
      </trkpt>
      <trkpt lat="47.559346" lon="7.959868">
        <ele>288.562781</ele>
        <time>2021-11-20T09:52:47.630Z</time>
      </trkpt>
      <trkpt lat="47.559324" lon="7.959601">
        <ele>288.587661</ele>
        <time>2021-11-20T09:52:50.014Z</time>
      </trkpt>
      <trkpt lat="47.559224" lon="7.958738">
        <ele>288.668655</ele>
        <time>2021-11-20T09:52:59.211Z</time>
      </trkpt>
      <trkpt lat="47.558756" lon="7.956469">
        <ele>289.253276</ele>
        <time>2021-11-20T09:53:27.516Z</time>
      </trkpt>
      <trkpt lat="47.558659" lon="7.956055">
        <ele>289.407920</ele>
        <time>2021-11-20T09:53:32.695Z</time>
      </trkpt>
      <trkpt lat="47.558360" lon="7.955074">
        <ele>289.677123</ele>
        <time>2021-11-20T09:53:44.246Z</time>
      </trkpt>
      <trkpt lat="47.558201" lon="7.954539">
        <ele>289.626546</ele>
        <time>2021-11-20T09:53:50.045Z</time>
      </trkpt>
      <trkpt lat="47.558161" lon="7.954466">
        <ele>289.618411</ele>
        <time>2021-11-20T09:53:50.887Z</time>
      </trkpt>
      <trkpt lat="47.558107" lon="7.954410">
        <ele>289.609961</ele>
        <time>2021-11-20T09:53:51.823Z</time>
      </trkpt>
      <trkpt lat="47.558124" lon="7.954331">
        <ele>289.602787</ele>
        <time>2021-11-20T09:53:52.692Z</time>
      </trkpt>
      <trkpt lat="47.558138" lon="7.954249">
        <ele>289.595469</ele>
        <time>2021-11-20T09:53:53.517Z</time>
      </trkpt>
      <trkpt lat="47.558149" lon="7.954179">
        <ele>289.589251</ele>
        <time>2021-11-20T09:53:54.275Z</time>
      </trkpt>
      <trkpt lat="47.558045" lon="7.954108">
        <ele>289.574570</ele>
        <time>2021-11-20T09:53:55.683Z</time>
      </trkpt>
      <trkpt lat="47.557829" lon="7.953829">
        <ele>289.537835</ele>
        <time>2021-11-20T09:53:59.966Z</time>
      </trkpt>
      <trkpt lat="47.557371" lon="7.952961">
        <ele>289.497989</ele>
        <time>2021-11-20T09:54:10.078Z</time>
      </trkpt>
      <trkpt lat="47.557113" lon="7.952476">
        <ele>289.559427</ele>
        <time>2021-11-20T09:54:15.655Z</time>
      </trkpt>
      <trkpt lat="47.556921" lon="7.952131">
        <ele>289.603915</ele>
        <time>2021-11-20T09:54:20.026Z</time>
      </trkpt>
      <trkpt lat="47.556818" lon="7.951969">
        <ele>289.626058</ele>
        <time>2021-11-20T09:54:22.393Z</time>
      </trkpt>
      <trkpt lat="47.556779" lon="7.951918">
        <ele>289.633726</ele>
        <time>2021-11-20T09:54:23.187Z</time>
      </trkpt>
      <trkpt lat="47.556714" lon="7.951837">
        <ele>289.646246</ele>
        <time>2021-11-20T09:54:24.485Z</time>
      </trkpt>
      <trkpt lat="47.556537" lon="7.951618">
        <ele>289.680240</ele>
        <time>2021-11-20T09:54:28.400Z</time>
      </trkpt>
      <trkpt lat="47.556242" lon="7.951253">
        <ele>289.752623</ele>
        <time>2021-11-20T09:54:35.302Z</time>
      </trkpt>
      <trkpt lat="47.556066" lon="7.950941">
        <ele>289.978640</ele>
        <time>2021-11-20T09:54:40.262Z</time>
      </trkpt>
      <trkpt lat="47.555919" lon="7.950621">
        <ele>290.193797</ele>
        <time>2021-11-20T09:54:45.147Z</time>
      </trkpt>
      <trkpt lat="47.555760" lon="7.950281">
        <ele>290.423714</ele>
        <time>2021-11-20T09:54:50.387Z</time>
      </trkpt>
      <trkpt lat="47.555651" lon="7.950049">
        <ele>290.580836</ele>
        <time>2021-11-20T09:54:53.954Z</time>
      </trkpt>
      <trkpt lat="47.555594" lon="7.949924">
        <ele>290.664687</ele>
        <time>2021-11-20T09:54:55.865Z</time>
      </trkpt>
      <trkpt lat="47.555472" lon="7.949652">
        <ele>290.846215</ele>
        <time>2021-11-20T09:54:59.976Z</time>
      </trkpt>
      <trkpt lat="47.555429" lon="7.949557">
        <ele>290.909795</ele>
        <time>2021-11-20T09:55:01.483Z</time>
      </trkpt>
      <trkpt lat="47.555388" lon="7.949465">
        <ele>290.971074</ele>
        <time>2021-11-20T09:55:02.819Z</time>
      </trkpt>
      <trkpt lat="47.555335" lon="7.949348">
        <ele>291.049397</ele>
        <time>2021-11-20T09:55:04.495Z</time>
      </trkpt>
      <trkpt lat="47.555270" lon="7.949203">
        <ele>291.146151</ele>
        <time>2021-11-20T09:55:06.576Z</time>
      </trkpt>
      <trkpt lat="47.554929" lon="7.948424">
        <ele>291.353557</ele>
        <time>2021-11-20T09:55:17.349Z</time>
      </trkpt>
      <trkpt lat="47.554900" lon="7.948352">
        <ele>291.368008</ele>
        <time>2021-11-20T09:55:18.262Z</time>
      </trkpt>
      <trkpt lat="47.554846" lon="7.948223">
        <ele>291.394171</ele>
        <time>2021-11-20T09:55:19.976Z</time>
      </trkpt>
      <trkpt lat="47.554749" lon="7.947993">
        <ele>291.440915</ele>
        <time>2021-11-20T09:55:22.847Z</time>
      </trkpt>
      <trkpt lat="47.554731" lon="7.947945">
        <ele>291.450379</ele>
        <time>2021-11-20T09:55:23.379Z</time>
      </trkpt>
      <trkpt lat="47.554614" lon="7.947707">
        <ele>291.501127</ele>
        <time>2021-11-20T09:55:26.419Z</time>
      </trkpt>
      <trkpt lat="47.554563" lon="7.947632">
        <ele>291.519477</ele>
        <time>2021-11-20T09:55:27.510Z</time>
      </trkpt>
      <trkpt lat="47.554517" lon="7.947576">
        <ele>291.534681</ele>
        <time>2021-11-20T09:55:28.368Z</time>
      </trkpt>
      <trkpt lat="47.554475" lon="7.947529">
        <ele>291.548122</ele>
        <time>2021-11-20T09:55:29.089Z</time>
      </trkpt>
      <trkpt lat="47.554446" lon="7.947485">
        <ele>291.558722</ele>
        <time>2021-11-20T09:55:29.685Z</time>
      </trkpt>
      <trkpt lat="47.554411" lon="7.947434">
        <ele>291.571258</ele>
        <time>2021-11-20T09:55:30.408Z</time>
      </trkpt>
      <trkpt lat="47.554372" lon="7.947483">
        <ele>291.584316</ele>
        <time>2021-11-20T09:55:32.317Z</time>
      </trkpt>
      <trkpt lat="47.554282" lon="7.947594">
        <ele>291.614220</ele>
        <time>2021-11-20T09:55:36.777Z</time>
      </trkpt>
      <trkpt lat="47.554138" lon="7.947710">
        <ele>291.656078</ele>
        <time>2021-11-20T09:55:42.796Z</time>
      </trkpt>
      <trkpt lat="47.553758" lon="7.948048">
        <ele>291.508569</ele>
        <time>2021-11-20T09:55:59.031Z</time>
      </trkpt>
      <trkpt lat="47.553637" lon="7.948167">
        <ele>291.444000</ele>
        <time>2021-11-20T09:56:04.307Z</time>
      </trkpt>
      <trkpt lat="47.553368" lon="7.948399">
        <ele>291.305617</ele>
        <time>2021-11-20T09:56:25.924Z</time>
      </trkpt>
      <trkpt lat="47.553368" lon="7.948399">
        <ele>291.305617</ele>
        <time>2021-11-20T09:56:25.943Z</time>
      </trkpt>
      <trkpt lat="47.553197" lon="7.948543">
        <ele>291.218169</ele>
        <time>2021-11-20T09:56:39.582Z</time>
      </trkpt>
      <trkpt lat="47.552953" lon="7.948775">
        <ele>291.089270</ele>
        <time>2021-11-20T09:56:49.684Z</time>
      </trkpt>
      <trkpt lat="47.552589" lon="7.949160">
        <ele>290.890431</ele>
        <time>2021-11-20T09:57:04.994Z</time>
      </trkpt>
      <trkpt lat="47.552518" lon="7.949236">
        <ele>290.877664</ele>
        <time>2021-11-20T09:57:07.958Z</time>
      </trkpt>
      <trkpt lat="47.552382" lon="7.949119">
        <ele>290.887377</ele>
        <time>2021-11-20T09:57:13.468Z</time>
      </trkpt>
      <trkpt lat="47.552351" lon="7.949099">
        <ele>290.889465</ele>
        <time>2021-11-20T09:57:14.599Z</time>
      </trkpt>
      <trkpt lat="47.552202" lon="7.949003">
        <ele>290.899500</ele>
        <time>2021-11-20T09:57:20.288Z</time>
      </trkpt>
      <trkpt lat="47.552094" lon="7.948926">
        <ele>290.906902</ele>
        <time>2021-11-20T09:57:24.616Z</time>
      </trkpt>
      <trkpt lat="47.552049" lon="7.948982">
        <ele>290.910532</ele>
        <time>2021-11-20T09:57:26.685Z</time>
      </trkpt>
      <trkpt lat="47.552010" lon="7.949039">
        <ele>290.913915</ele>
        <time>2021-11-20T09:57:28.665Z</time>
      </trkpt>
      <trkpt lat="47.551919" lon="7.949186">
        <ele>290.922230</ele>
        <time>2021-11-20T09:57:33.478Z</time>
      </trkpt>
      <trkpt lat="47.551794" lon="7.949387">
        <ele>290.933623</ele>
        <time>2021-11-20T09:57:40.153Z</time>
      </trkpt>
      <trkpt lat="47.551673" lon="7.949634">
        <ele>290.946345</ele>
        <time>2021-11-20T09:57:47.814Z</time>
      </trkpt>
      <trkpt lat="47.551581" lon="7.949830">
        <ele>290.956297</ele>
        <time>2021-11-20T09:57:53.695Z</time>
      </trkpt>
      <trkpt lat="47.551525" lon="7.950027">
        <ele>290.965208</ele>
        <time>2021-11-20T09:57:59.213Z</time>
      </trkpt>
      <trkpt lat="47.551506" lon="7.950255">
        <ele>290.974784</ele>
        <time>2021-11-20T09:58:05.276Z</time>
      </trkpt>
      <trkpt lat="47.551381" lon="7.952341">
        <ele>293.256548</ele>
        <time>2021-11-20T09:59:06.946Z</time>
      </trkpt>
      <trkpt lat="47.551339" lon="7.952761">
        <ele>293.781807</ele>
        <time>2021-11-20T09:59:20.342Z</time>
      </trkpt>
      <trkpt lat="47.551334" lon="7.952777">
        <ele>293.803619</ele>
        <time>2021-11-20T09:59:20.955Z</time>
      </trkpt>
      <trkpt lat="47.551295" lon="7.952900">
        <ele>293.971739</ele>
        <time>2021-11-20T09:59:25.592Z</time>
      </trkpt>
      <trkpt lat="47.551254" lon="7.952986">
        <ele>294.101996</ele>
        <time>2021-11-20T09:59:27.832Z</time>
      </trkpt>
      <trkpt lat="47.550967" lon="7.953063">
        <ele>294.643041</ele>
        <time>2021-11-20T09:59:36.830Z</time>
      </trkpt>
      <trkpt lat="47.550656" lon="7.953072">
        <ele>295.223554</ele>
        <time>2021-11-20T09:59:46.008Z</time>
      </trkpt>
      <trkpt lat="47.550567" lon="7.953069">
        <ele>295.389692</ele>
        <time>2021-11-20T09:59:48.876Z</time>
      </trkpt>
      <trkpt lat="47.549687" lon="7.953071">
        <ele>297.031989</ele>
        <time>2021-11-20T10:00:12.745Z</time>
      </trkpt>
      <trkpt lat="47.549673" lon="7.953076">
        <ele>297.058864</ele>
        <time>2021-11-20T10:00:13.481Z</time>
      </trkpt>
      <trkpt lat="47.549640" lon="7.953086">
        <ele>297.121725</ele>
        <time>2021-11-20T10:00:14.348Z</time>
      </trkpt>
      <trkpt lat="47.549442" lon="7.953195">
        <ele>297.515925</ele>
        <time>2021-11-20T10:00:19.394Z</time>
      </trkpt>
      <trkpt lat="47.549296" lon="7.953268">
        <ele>297.706043</ele>
        <time>2021-11-20T10:00:23.361Z</time>
      </trkpt>
      <trkpt lat="47.548335" lon="7.953779">
        <ele>298.482062</ele>
        <time>2021-11-20T10:00:47.005Z</time>
      </trkpt>
      <trkpt lat="47.548251" lon="7.953895">
        <ele>298.569339</ele>
        <time>2021-11-20T10:00:49.970Z</time>
      </trkpt>
      <trkpt lat="47.548115" lon="7.953729">
        <ele>298.703267</ele>
        <time>2021-11-20T10:00:52.811Z</time>
      </trkpt>
      <trkpt lat="47.547994" lon="7.953584">
        <ele>298.821550</ele>
        <time>2021-11-20T10:00:55.334Z</time>
      </trkpt>
      <trkpt lat="47.547871" lon="7.953437">
        <ele>298.941660</ele>
        <time>2021-11-20T10:00:57.851Z</time>
      </trkpt>
      <trkpt lat="47.547797" lon="7.953355">
        <ele>299.009147</ele>
        <time>2021-11-20T10:00:59.302Z</time>
      </trkpt>
      <trkpt lat="47.547624" lon="7.953160">
        <ele>299.095552</ele>
        <time>2021-11-20T10:01:02.774Z</time>
      </trkpt>
      <trkpt lat="47.547550" lon="7.953078">
        <ele>299.132284</ele>
        <time>2021-11-20T10:01:04.306Z</time>
      </trkpt>
      <trkpt lat="47.547458" lon="7.952975">
        <ele>299.178120</ele>
        <time>2021-11-20T10:01:06.333Z</time>
      </trkpt>
      <trkpt lat="47.547400" lon="7.952910">
        <ele>299.207027</ele>
        <time>2021-11-20T10:01:07.630Z</time>
      </trkpt>
      <trkpt lat="47.547090" lon="7.952543">
        <ele>299.364759</ele>
        <time>2021-11-20T10:01:14.111Z</time>
      </trkpt>
      <trkpt lat="47.546935" lon="7.952372">
        <ele>299.441576</ele>
        <time>2021-11-20T10:01:17.003Z</time>
      </trkpt>
      <trkpt lat="47.546776" lon="7.952185">
        <ele>299.522270</ele>
        <time>2021-11-20T10:01:20.327Z</time>
      </trkpt>
      <trkpt lat="47.546695" lon="7.952091">
        <ele>299.563169</ele>
        <time>2021-11-20T10:01:22.135Z</time>
      </trkpt>
      <trkpt lat="47.546634" lon="7.952024">
        <ele>299.593352</ele>
        <time>2021-11-20T10:01:23.577Z</time>
      </trkpt>
      <trkpt lat="47.546421" lon="7.951793">
        <ele>299.698279</ele>
        <time>2021-11-20T10:01:27.988Z</time>
      </trkpt>
      <trkpt lat="47.546231" lon="7.951558">
        <ele>299.686158</ele>
        <time>2021-11-20T10:01:32.542Z</time>
      </trkpt>
      <trkpt lat="47.546212" lon="7.951535">
        <ele>299.681652</ele>
        <time>2021-11-20T10:01:32.787Z</time>
      </trkpt>
      <trkpt lat="47.546135" lon="7.951406">
        <ele>299.660307</ele>
        <time>2021-11-20T10:01:34.596Z</time>
      </trkpt>
      <trkpt lat="47.545886" lon="7.951110">
        <ele>299.601682</ele>
        <time>2021-11-20T10:01:39.416Z</time>
      </trkpt>
      <trkpt lat="47.545824" lon="7.951061">
        <ele>299.588778</ele>
        <time>2021-11-20T10:01:40.558Z</time>
      </trkpt>
      <trkpt lat="47.545759" lon="7.950982">
        <ele>299.573339</ele>
        <time>2021-11-20T10:01:41.964Z</time>
      </trkpt>
      <trkpt lat="47.545727" lon="7.950947">
        <ele>299.566035</ele>
        <time>2021-11-20T10:01:42.765Z</time>
      </trkpt>
      <trkpt lat="47.545625" lon="7.950829">
        <ele>299.542270</ele>
        <time>2021-11-20T10:01:44.320Z</time>
      </trkpt>
      <trkpt lat="47.545567" lon="7.950765">
        <ele>299.528990</ele>
        <time>2021-11-20T10:01:45.353Z</time>
      </trkpt>
      <trkpt lat="47.545494" lon="7.950684">
        <ele>299.512241</ele>
        <time>2021-11-20T10:01:46.721Z</time>
      </trkpt>
      <trkpt lat="47.545434" lon="7.950668">
        <ele>299.501046</ele>
        <time>2021-11-20T10:01:47.806Z</time>
      </trkpt>
      <trkpt lat="47.545166" lon="7.950366">
        <ele>299.439213</ele>
        <time>2021-11-20T10:01:52.147Z</time>
      </trkpt>
      <trkpt lat="47.544901" lon="7.950044">
        <ele>299.387539</ele>
        <time>2021-11-20T10:01:56.280Z</time>
      </trkpt>
      <trkpt lat="47.544521" lon="7.949558">
        <ele>299.366912</ele>
        <time>2021-11-20T10:02:02.478Z</time>
      </trkpt>
      <trkpt lat="47.544239" lon="7.949202">
        <ele>299.351689</ele>
        <time>2021-11-20T10:02:07.385Z</time>
      </trkpt>
      <trkpt lat="47.543864" lon="7.948694">
        <ele>299.330811</ele>
        <time>2021-11-20T10:02:15.334Z</time>
      </trkpt>
      <trkpt lat="47.543760" lon="7.948548">
        <ele>299.324924</ele>
        <time>2021-11-20T10:02:17.573Z</time>
      </trkpt>
      <trkpt lat="47.543719" lon="7.948489">
        <ele>299.322575</ele>
        <time>2021-11-20T10:02:18.545Z</time>
      </trkpt>
      <trkpt lat="47.543579" lon="7.948287">
        <ele>299.449984</ele>
        <time>2021-11-20T10:02:23.290Z</time>
      </trkpt>
      <trkpt lat="47.543532" lon="7.948214">
        <ele>299.609258</ele>
        <time>2021-11-20T10:02:24.416Z</time>
      </trkpt>
      <trkpt lat="47.543435" lon="7.948000">
        <ele>300.016235</ele>
        <time>2021-11-20T10:02:27.490Z</time>
      </trkpt>
      <trkpt lat="47.543407" lon="7.947938">
        <ele>300.134010</ele>
        <time>2021-11-20T10:02:29.342Z</time>
      </trkpt>
      <trkpt lat="47.543280" lon="7.947656">
        <ele>300.669237</ele>
        <time>2021-11-20T10:02:33.841Z</time>
      </trkpt>
      <trkpt lat="47.543142" lon="7.947250">
        <ele>301.386927</ele>
        <time>2021-11-20T10:02:41.287Z</time>
      </trkpt>
      <trkpt lat="47.543086" lon="7.947052">
        <ele>301.725870</ele>
        <time>2021-11-20T10:02:44.726Z</time>
      </trkpt>
      <trkpt lat="47.543056" lon="7.946935">
        <ele>301.923474</ele>
        <time>2021-11-20T10:02:47.559Z</time>
      </trkpt>
      <trkpt lat="47.543045" lon="7.946881">
        <ele>302.012529</ele>
        <time>2021-11-20T10:02:48.714Z</time>
      </trkpt>
      <trkpt lat="47.542982" lon="7.946547">
        <ele>302.560068</ele>
        <time>2021-11-20T10:02:54.124Z</time>
      </trkpt>
      <trkpt lat="47.542974" lon="7.946495">
        <ele>302.644273</ele>
        <time>2021-11-20T10:02:55.761Z</time>
      </trkpt>
      <trkpt lat="47.542960" lon="7.946400">
        <ele>302.797798</ele>
        <time>2021-11-20T10:02:57.821Z</time>
      </trkpt>
      <trkpt lat="47.542916" lon="7.945730">
        <ele>303.791344</ele>
        <time>2021-11-20T10:03:10.485Z</time>
      </trkpt>
      <trkpt lat="47.542913" lon="7.945267">
        <ele>304.372035</ele>
        <time>2021-11-20T10:03:18.981Z</time>
      </trkpt>
      <trkpt lat="47.543007" lon="7.943867">
        <ele>306.136484</ele>
        <time>2021-11-20T10:03:40.148Z</time>
      </trkpt>
      <trkpt lat="47.543161" lon="7.942213">
        <ele>306.480912</ele>
        <time>2021-11-20T10:03:58.554Z</time>
      </trkpt>
      <trkpt lat="47.543435" lon="7.940670">
        <ele>305.901907</ele>
        <time>2021-11-20T10:04:11.502Z</time>
      </trkpt>
      <trkpt lat="47.543826" lon="7.939433">
        <ele>304.336978</ele>
        <time>2021-11-20T10:04:21.903Z</time>
      </trkpt>
      <trkpt lat="47.544472" lon="7.937932">
        <ele>302.280824</ele>
        <time>2021-11-20T10:04:35.227Z</time>
      </trkpt>
      <trkpt lat="47.544705" lon="7.937395">
        <ele>301.528220</ele>
        <time>2021-11-20T10:04:40.067Z</time>
      </trkpt>
      <trkpt lat="47.544903" lon="7.936917">
        <ele>300.867039</ele>
        <time>2021-11-20T10:04:44.327Z</time>
      </trkpt>
      <trkpt lat="47.545074" lon="7.936484">
        <ele>300.275611</ele>
        <time>2021-11-20T10:04:48.158Z</time>
      </trkpt>
      <trkpt lat="47.545457" lon="7.935110">
        <ele>299.106380</ele>
        <time>2021-11-20T10:04:59.526Z</time>
      </trkpt>
      <trkpt lat="47.545674" lon="7.933625">
        <ele>298.180884</ele>
        <time>2021-11-20T10:05:12.606Z</time>
      </trkpt>
      <trkpt lat="47.545702" lon="7.933290">
        <ele>298.291761</ele>
        <time>2021-11-20T10:05:16.187Z</time>
      </trkpt>
      <trkpt lat="47.545724" lon="7.932758">
        <ele>298.748042</ele>
        <time>2021-11-20T10:05:22.453Z</time>
      </trkpt>
      <trkpt lat="47.545721" lon="7.931992">
        <ele>299.403799</ele>
        <time>2021-11-20T10:05:32.493Z</time>
      </trkpt>
      <trkpt lat="47.545696" lon="7.931497">
        <ele>299.828736</ele>
        <time>2021-11-20T10:05:39.698Z</time>
      </trkpt>
      <trkpt lat="47.545661" lon="7.930955">
        <ele>300.294843</ele>
        <time>2021-11-20T10:05:48.393Z</time>
      </trkpt>
      <trkpt lat="47.545563" lon="7.929641">
        <ele>301.501628</ele>
        <time>2021-11-20T10:06:10.733Z</time>
      </trkpt>
      <trkpt lat="47.545475" lon="7.928419">
        <ele>302.629720</ele>
        <time>2021-11-20T10:06:27.036Z</time>
      </trkpt>
      <trkpt lat="47.545421" lon="7.927686">
        <ele>302.022924</ele>
        <time>2021-11-20T10:06:33.139Z</time>
      </trkpt>
      <trkpt lat="47.545406" lon="7.927306">
        <ele>301.423322</ele>
        <time>2021-11-20T10:06:36.043Z</time>
      </trkpt>
      <trkpt lat="47.545407" lon="7.927001">
        <ele>300.942878</ele>
        <time>2021-11-20T10:06:38.330Z</time>
      </trkpt>
      <trkpt lat="47.545409" lon="7.926773">
        <ele>300.583700</ele>
        <time>2021-11-20T10:06:39.959Z</time>
      </trkpt>
      <trkpt lat="47.545417" lon="7.925848">
        <ele>299.126513</ele>
        <time>2021-11-20T10:06:46.294Z</time>
      </trkpt>
      <trkpt lat="47.545446" lon="7.925350">
        <ele>298.185882</ele>
        <time>2021-11-20T10:06:49.586Z</time>
      </trkpt>
      <trkpt lat="47.545466" lon="7.924880">
        <ele>297.061834</ele>
        <time>2021-11-20T10:06:52.639Z</time>
      </trkpt>
      <trkpt lat="47.545481" lon="7.924396">
        <ele>295.905380</ele>
        <time>2021-11-20T10:06:55.723Z</time>
      </trkpt>
      <trkpt lat="47.545521" lon="7.923709">
        <ele>294.259525</ele>
        <time>2021-11-20T10:07:00.248Z</time>
      </trkpt>
      <trkpt lat="47.545536" lon="7.923407">
        <ele>293.536747</ele>
        <time>2021-11-20T10:07:02.637Z</time>
      </trkpt>
      <trkpt lat="47.545553" lon="7.923142">
        <ele>292.901382</ele>
        <time>2021-11-20T10:07:04.358Z</time>
      </trkpt>
      <trkpt lat="47.545587" lon="7.922895">
        <ele>292.299697</ele>
        <time>2021-11-20T10:07:06.760Z</time>
      </trkpt>
      <trkpt lat="47.545641" lon="7.922610">
        <ele>292.033561</ele>
        <time>2021-11-20T10:07:08.758Z</time>
      </trkpt>
      <trkpt lat="47.545690" lon="7.922369">
        <ele>291.819984</ele>
        <time>2021-11-20T10:07:11.449Z</time>
      </trkpt>
      <trkpt lat="47.545699" lon="7.922325">
        <ele>291.780971</ele>
        <time>2021-11-20T10:07:11.710Z</time>
      </trkpt>
      <trkpt lat="47.545714" lon="7.922249">
        <ele>291.713780</ele>
        <time>2021-11-20T10:07:12.301Z</time>
      </trkpt>
      <trkpt lat="47.545778" lon="7.921947">
        <ele>291.445184</ele>
        <time>2021-11-20T10:07:15.456Z</time>
      </trkpt>
      <trkpt lat="47.545810" lon="7.921755">
        <ele>291.277369</ele>
        <time>2021-11-20T10:07:16.814Z</time>
      </trkpt>
      <trkpt lat="47.545881" lon="7.921096">
        <ele>290.711096</ele>
        <time>2021-11-20T10:07:22.162Z</time>
      </trkpt>
      <trkpt lat="47.545913" lon="7.920765">
        <ele>290.427359</ele>
        <time>2021-11-20T10:07:25.029Z</time>
      </trkpt>
      <trkpt lat="47.545973" lon="7.920313">
        <ele>290.036468</ele>
        <time>2021-11-20T10:07:30.177Z</time>
      </trkpt>
      <trkpt lat="47.546128" lon="7.919617">
        <ele>289.829942</ele>
        <time>2021-11-20T10:07:36.640Z</time>
      </trkpt>
      <trkpt lat="47.546262" lon="7.919081">
        <ele>289.680234</ele>
        <time>2021-11-20T10:07:42.638Z</time>
      </trkpt>
      <trkpt lat="47.546821" lon="7.916867">
        <ele>289.032605</ele>
        <time>2021-11-20T10:08:03.391Z</time>
      </trkpt>
      <trkpt lat="47.547032" lon="7.916218">
        <ele>288.822955</ele>
        <time>2021-11-20T10:08:09.882Z</time>
      </trkpt>
      <trkpt lat="47.547091" lon="7.916039">
        <ele>288.764980</ele>
        <time>2021-11-20T10:08:11.699Z</time>
      </trkpt>
      <trkpt lat="47.547113" lon="7.915971">
        <ele>288.743034</ele>
        <time>2021-11-20T10:08:12.298Z</time>
      </trkpt>
      <trkpt lat="47.547423" lon="7.915080">
        <ele>288.611321</ele>
        <time>2021-11-20T10:08:21.942Z</time>
      </trkpt>
      <trkpt lat="47.547994" lon="7.913433">
        <ele>289.023740</ele>
        <time>2021-11-20T10:08:41.662Z</time>
      </trkpt>
      <trkpt lat="47.548027" lon="7.913334">
        <ele>289.048334</ele>
        <time>2021-11-20T10:08:43.021Z</time>
      </trkpt>
      <trkpt lat="47.548412" lon="7.912168">
        <ele>289.800005</ele>
        <time>2021-11-20T10:08:59.424Z</time>
      </trkpt>
      <trkpt lat="47.549012" lon="7.910340">
        <ele>291.348870</ele>
        <time>2021-11-20T10:09:26.383Z</time>
      </trkpt>
      <trkpt lat="47.549102" lon="7.910058">
        <ele>291.644701</ele>
        <time>2021-11-20T10:09:30.526Z</time>
      </trkpt>
      <trkpt lat="47.549195" lon="7.909756">
        <ele>291.959509</ele>
        <time>2021-11-20T10:09:34.805Z</time>
      </trkpt>
      <trkpt lat="47.549269" lon="7.909511">
        <ele>292.214062</ele>
        <time>2021-11-20T10:09:38.317Z</time>
      </trkpt>
      <trkpt lat="47.549326" lon="7.909321">
        <ele>292.411248</ele>
        <time>2021-11-20T10:09:40.949Z</time>
      </trkpt>
      <trkpt lat="47.549520" lon="7.908678">
        <ele>293.079196</ele>
        <time>2021-11-20T10:09:50.108Z</time>
      </trkpt>
      <trkpt lat="47.549539" lon="7.908625">
        <ele>293.136109</ele>
        <time>2021-11-20T10:09:50.855Z</time>
      </trkpt>
      <trkpt lat="47.550497" lon="7.905558">
        <ele>298.411334</ele>
        <time>2021-11-20T10:10:45.721Z</time>
      </trkpt>
      <trkpt lat="47.550283" lon="7.905413">
        <ele>299.277930</ele>
        <time>2021-11-20T10:10:53.887Z</time>
      </trkpt>
      <trkpt lat="47.550067" lon="7.905245">
        <ele>300.176335</ele>
        <time>2021-11-20T10:11:02.573Z</time>
      </trkpt>
      <trkpt lat="47.549867" lon="7.905155">
        <ele>300.946095</ele>
        <time>2021-11-20T10:11:10.202Z</time>
      </trkpt>
      <trkpt lat="47.549868" lon="7.905010">
        <ele>301.306529</ele>
        <time>2021-11-20T10:11:13.607Z</time>
      </trkpt>
      <trkpt lat="47.550025" lon="7.904774">
        <ele>302.130179</ele>
        <time>2021-11-20T10:11:21.758Z</time>
      </trkpt>
      <trkpt lat="47.550302" lon="7.904164">
        <ele>303.957618</ele>
        <time>2021-11-20T10:11:40.057Z</time>
      </trkpt>
      <trkpt lat="47.550498" lon="7.903445">
        <ele>305.876708</ele>
        <time>2021-11-20T10:11:59.629Z</time>
      </trkpt>
      <trkpt lat="47.550688" lon="7.902451">
        <ele>308.428961</ele>
        <time>2021-11-20T10:12:22.178Z</time>
      </trkpt>
      <trkpt lat="47.550757" lon="7.901591">
        <ele>310.568541</ele>
        <time>2021-11-20T10:12:41.974Z</time>
      </trkpt>
      <trkpt lat="47.550769" lon="7.901362">
        <ele>311.141972</ele>
        <time>2021-11-20T10:12:47.882Z</time>
      </trkpt>
      <trkpt lat="47.550801" lon="7.900244">
        <ele>314.358739</ele>
        <time>2021-11-20T10:13:12.279Z</time>
      </trkpt>
      <trkpt lat="47.550819" lon="7.898109">
        <ele>319.862181</ele>
        <time>2021-11-20T10:13:59.319Z</time>
      </trkpt>
      <trkpt lat="47.550648" lon="7.896481">
        <ele>322.868032</ele>
        <time>2021-11-20T10:14:26.974Z</time>
      </trkpt>
      <trkpt lat="47.550639" lon="7.896345">
        <ele>323.117339</ele>
        <time>2021-11-20T10:14:29.350Z</time>
      </trkpt>
      <trkpt lat="47.550660" lon="7.896255">
        <ele>323.291069</ele>
        <time>2021-11-20T10:14:30.150Z</time>
      </trkpt>
      <trkpt lat="47.550838" lon="7.895509">
        <ele>324.142930</ele>
        <time>2021-11-20T10:14:40.318Z</time>
      </trkpt>
      <trkpt lat="47.550878" lon="7.895158">
        <ele>324.447015</ele>
        <time>2021-11-20T10:14:44.381Z</time>
      </trkpt>
      <trkpt lat="47.550908" lon="7.894308">
        <ele>325.174117</ele>
        <time>2021-11-20T10:14:54.853Z</time>
      </trkpt>
      <trkpt lat="47.550892" lon="7.893176">
        <ele>326.688144</ele>
        <time>2021-11-20T10:15:09.570Z</time>
      </trkpt>
      <trkpt lat="47.550904" lon="7.891725">
        <ele>330.718201</ele>
        <time>2021-11-20T10:15:39.332Z</time>
      </trkpt>
      <trkpt lat="47.550915" lon="7.890600">
        <ele>334.126017</ele>
        <time>2021-11-20T10:16:08.173Z</time>
      </trkpt>
      <trkpt lat="47.550833" lon="7.889069">
        <ele>340.613461</ele>
        <time>2021-11-20T10:16:50.806Z</time>
      </trkpt>
      <trkpt lat="47.550831" lon="7.888611">
        <ele>342.548146</ele>
        <time>2021-11-20T10:17:03.376Z</time>
      </trkpt>
      <trkpt lat="47.550789" lon="7.887816">
        <ele>345.790695</ele>
        <time>2021-11-20T10:17:23.988Z</time>
      </trkpt>
      <trkpt lat="47.550758" lon="7.887295">
        <ele>347.795515</ele>
        <time>2021-11-20T10:17:37.810Z</time>
      </trkpt>
      <trkpt lat="47.550677" lon="7.886476">
        <ele>350.968399</ele>
        <time>2021-11-20T10:17:59.298Z</time>
      </trkpt>
      <trkpt lat="47.550548" lon="7.885799">
        <ele>353.664888</ele>
        <time>2021-11-20T10:18:16.501Z</time>
      </trkpt>
      <trkpt lat="47.550391" lon="7.885109">
        <ele>356.051110</ele>
        <time>2021-11-20T10:18:34.139Z</time>
      </trkpt>
      <trkpt lat="47.550332" lon="7.884727">
        <ele>357.192184</ele>
        <time>2021-11-20T10:18:42.829Z</time>
      </trkpt>
      <trkpt lat="47.550234" lon="7.883221">
        <ele>361.597754</ele>
        <time>2021-11-20T10:19:15.661Z</time>
      </trkpt>
      <trkpt lat="47.549927" lon="7.881490">
        <ele>366.094367</ele>
        <time>2021-11-20T10:19:47.924Z</time>
      </trkpt>
      <trkpt lat="47.549726" lon="7.880786">
        <ele>367.948237</ele>
        <time>2021-11-20T10:20:03.901Z</time>
      </trkpt>
      <trkpt lat="47.549327" lon="7.879547">
        <ele>371.632885</ele>
        <time>2021-11-20T10:20:33.685Z</time>
      </trkpt>
      <trkpt lat="47.549318" lon="7.879398">
        <ele>372.052135</ele>
        <time>2021-11-20T10:20:36.873Z</time>
      </trkpt>
      <trkpt lat="47.549140" lon="7.879391">
        <ele>372.791489</ele>
        <time>2021-11-20T10:20:43.744Z</time>
      </trkpt>
      <trkpt lat="47.548718" lon="7.879258">
        <ele>374.582928</ele>
        <time>2021-11-20T10:20:57.414Z</time>
      </trkpt>
      <trkpt lat="47.548422" lon="7.878959">
        <ele>376.070469</ele>
        <time>2021-11-20T10:21:08.061Z</time>
      </trkpt>
      <trkpt lat="47.548234" lon="7.878638">
        <ele>376.646403</ele>
        <time>2021-11-20T10:21:16.178Z</time>
      </trkpt>
      <trkpt lat="47.547992" lon="7.877974">
        <ele>377.133229</ele>
        <time>2021-11-20T10:21:29.229Z</time>
      </trkpt>
      <trkpt lat="47.547574" lon="7.876801">
        <ele>377.988963</ele>
        <time>2021-11-20T10:21:43.628Z</time>
      </trkpt>
      <trkpt lat="47.547572" lon="7.876796">
        <ele>377.992713</ele>
        <time>2021-11-20T10:21:43.663Z</time>
      </trkpt>
      <trkpt lat="47.547126" lon="7.875801">
        <ele>376.018296</ele>
        <time>2021-11-20T10:21:52.519Z</time>
      </trkpt>
      <trkpt lat="47.546568" lon="7.874676">
        <ele>372.668716</ele>
        <time>2021-11-20T10:22:01.704Z</time>
      </trkpt>
      <trkpt lat="47.546309" lon="7.874154">
        <ele>370.553118</ele>
        <time>2021-11-20T10:22:05.771Z</time>
      </trkpt>
      <trkpt lat="47.546135" lon="7.873859">
        <ele>368.830392</ele>
        <time>2021-11-20T10:22:08.159Z</time>
      </trkpt>
      <trkpt lat="47.546077" lon="7.873763">
        <ele>368.263835</ele>
        <time>2021-11-20T10:22:08.965Z</time>
      </trkpt>
      <trkpt lat="47.545934" lon="7.873549">
        <ele>366.939651</ele>
        <time>2021-11-20T10:22:10.768Z</time>
      </trkpt>
      <trkpt lat="47.545746" lon="7.873302">
        <ele>365.302635</ele>
        <time>2021-11-20T10:22:13.047Z</time>
      </trkpt>
      <trkpt lat="47.545515" lon="7.873015">
        <ele>363.338569</ele>
        <time>2021-11-20T10:22:15.736Z</time>
      </trkpt>
      <trkpt lat="47.545478" lon="7.872968">
        <ele>363.021048</ele>
        <time>2021-11-20T10:22:16.176Z</time>
      </trkpt>
      <trkpt lat="47.545375" lon="7.872836">
        <ele>362.133802</ele>
        <time>2021-11-20T10:22:17.367Z</time>
      </trkpt>
      <trkpt lat="47.545131" lon="7.872664">
        <ele>360.373432</ele>
        <time>2021-11-20T10:22:19.830Z</time>
      </trkpt>
      <trkpt lat="47.544883" lon="7.872555">
        <ele>360.070533</ele>
        <time>2021-11-20T10:22:22.182Z</time>
      </trkpt>
      <trkpt lat="47.544390" lon="7.872423">
        <ele>360.070533</ele>
        <time>2021-11-20T10:22:26.801Z</time>
      </trkpt>
      <trkpt lat="47.543683" lon="7.872298">
        <ele>360.070533</ele>
        <time>2021-11-20T10:22:33.733Z</time>
      </trkpt>
    </trkseg>
  </trk>
</gpx>